<?xml version="1.0" encoding="UTF-8" standalone="no" ?>
<gpx xmlns="http://www.topografix.com/GPX/1/1" xmlns:xsi="http://www.w3.org/2001/XMLSchema-instance" xsi:schemaLocation="http://www.topografix.com/GPX/1/1 http://www.topografix.com/GPX/1/1/gpx.xsd" version="1.1" creator="VisuGPX - https://www.visugpx.com">
  <metadata>
    <name>Rando - Colomby de Gex</name>
    <desc><![CDATA[Très belle rando sur les crêtes du haut Jura avec une vue splendide sur les Alpes. ]]></desc>
  </metadata>
  <trk>
    <name><![CDATA[23-OCT-15 14:56:57]]></name>
    <trkseg>
      <trkpt lat="46.36616" lon="5.99639">
        <ele>889.84</ele>
        <time>2015-10-23T07:15:53Z</time>
      </trkpt>
      <trkpt lat="46.36614" lon="5.99642">
        <ele>889.84</ele>
        <time>2015-10-23T07:15:54Z</time>
      </trkpt>
      <trkpt lat="46.36617" lon="5.99631">
        <ele>893.68</ele>
        <time>2015-10-23T07:16:24Z</time>
      </trkpt>
      <trkpt lat="46.36617" lon="5.99631">
        <ele>897.53</ele>
        <time>2015-10-23T07:16:25Z</time>
      </trkpt>
      <trkpt lat="46.36617" lon="5.99632">
        <ele>900.89</ele>
        <time>2015-10-23T07:16:26Z</time>
      </trkpt>
      <trkpt lat="46.36617" lon="5.99632">
        <ele>904.74</ele>
        <time>2015-10-23T07:16:27Z</time>
      </trkpt>
      <trkpt lat="46.36617" lon="5.99632">
        <ele>908.1</ele>
        <time>2015-10-23T07:16:28Z</time>
      </trkpt>
      <trkpt lat="46.36617" lon="5.99632">
        <ele>911.47</ele>
        <time>2015-10-23T07:16:29Z</time>
      </trkpt>
      <trkpt lat="46.36616" lon="5.99633">
        <ele>914.83</ele>
        <time>2015-10-23T07:16:30Z</time>
      </trkpt>
      <trkpt lat="46.36616" lon="5.99635">
        <ele>921.08</ele>
        <time>2015-10-23T07:16:32Z</time>
      </trkpt>
      <trkpt lat="46.36614" lon="5.99639">
        <ele>926.37</ele>
        <time>2015-10-23T07:16:34Z</time>
      </trkpt>
      <trkpt lat="46.36612" lon="5.99644">
        <ele>934.54</ele>
        <time>2015-10-23T07:16:37Z</time>
      </trkpt>
      <trkpt lat="46.36611" lon="5.99648">
        <ele>939.83</ele>
        <time>2015-10-23T07:16:39Z</time>
      </trkpt>
      <trkpt lat="46.3661" lon="5.99652">
        <ele>944.15</ele>
        <time>2015-10-23T07:16:41Z</time>
      </trkpt>
      <trkpt lat="46.36609" lon="5.99654">
        <ele>948.48</ele>
        <time>2015-10-23T07:16:43Z</time>
      </trkpt>
      <trkpt lat="46.36608" lon="5.99657">
        <ele>952.8</ele>
        <time>2015-10-23T07:16:45Z</time>
      </trkpt>
      <trkpt lat="46.36609" lon="5.99664">
        <ele>956.65</ele>
        <time>2015-10-23T07:16:47Z</time>
      </trkpt>
      <trkpt lat="46.36608" lon="5.99668">
        <ele>961.46</ele>
        <time>2015-10-23T07:16:50Z</time>
      </trkpt>
      <trkpt lat="46.36607" lon="5.99671">
        <ele>964.34</ele>
        <time>2015-10-23T07:16:52Z</time>
      </trkpt>
      <trkpt lat="46.36604" lon="5.99672">
        <ele>966.74</ele>
        <time>2015-10-23T07:16:54Z</time>
      </trkpt>
      <trkpt lat="46.36602" lon="5.99679">
        <ele>972.03</ele>
        <time>2015-10-23T07:16:58Z</time>
      </trkpt>
      <trkpt lat="46.36598" lon="5.99686">
        <ele>977.32</ele>
        <time>2015-10-23T07:17:03Z</time>
      </trkpt>
      <trkpt lat="46.36596" lon="5.99696">
        <ele>980.68</ele>
        <time>2015-10-23T07:17:07Z</time>
      </trkpt>
      <trkpt lat="46.36594" lon="5.99701">
        <ele>984.05</ele>
        <time>2015-10-23T07:17:11Z</time>
      </trkpt>
      <trkpt lat="46.36591" lon="5.99717">
        <ele>988.37</ele>
        <time>2015-10-23T07:17:19Z</time>
      </trkpt>
      <trkpt lat="46.36591" lon="5.99722">
        <ele>988.85</ele>
        <time>2015-10-23T07:17:21Z</time>
      </trkpt>
      <trkpt lat="46.36589" lon="5.99729">
        <ele>991.26</ele>
        <time>2015-10-23T07:17:25Z</time>
      </trkpt>
      <trkpt lat="46.36588" lon="5.99744">
        <ele>995.1</ele>
        <time>2015-10-23T07:17:35Z</time>
      </trkpt>
      <trkpt lat="46.36587" lon="5.99746">
        <ele>995.58</ele>
        <time>2015-10-23T07:17:37Z</time>
      </trkpt>
      <trkpt lat="46.36585" lon="5.99752">
        <ele>997.99</ele>
        <time>2015-10-23T07:17:42Z</time>
      </trkpt>
      <trkpt lat="46.36581" lon="5.99754">
        <ele>998.47</ele>
        <time>2015-10-23T07:17:46Z</time>
      </trkpt>
      <trkpt lat="46.36577" lon="5.9975">
        <ele>999.91</ele>
        <time>2015-10-23T07:17:51Z</time>
      </trkpt>
      <trkpt lat="46.3657" lon="5.99736">
        <ele>1002.31</ele>
        <time>2015-10-23T07:18:02Z</time>
      </trkpt>
      <trkpt lat="46.36565" lon="5.99733">
        <ele>1004.23</ele>
        <time>2015-10-23T07:18:09Z</time>
      </trkpt>
      <trkpt lat="46.36565" lon="5.9974">
        <ele>1004.72</ele>
        <time>2015-10-23T07:18:14Z</time>
      </trkpt>
      <trkpt lat="46.36565" lon="5.99747">
        <ele>1006.16</ele>
        <time>2015-10-23T07:18:19Z</time>
      </trkpt>
      <trkpt lat="46.36565" lon="5.99754">
        <ele>1005.68</ele>
        <time>2015-10-23T07:18:23Z</time>
      </trkpt>
      <trkpt lat="46.36564" lon="5.99774">
        <ele>1008.08</ele>
        <time>2015-10-23T07:18:38Z</time>
      </trkpt>
      <trkpt lat="46.36564" lon="5.99771">
        <ele>1008.08</ele>
        <time>2015-10-23T07:18:40Z</time>
      </trkpt>
      <trkpt lat="46.36562" lon="5.99767">
        <ele>1010.48</ele>
        <time>2015-10-23T07:18:50Z</time>
      </trkpt>
      <trkpt lat="46.36548" lon="5.9976">
        <ele>1012.89</ele>
        <time>2015-10-23T07:19:01Z</time>
      </trkpt>
      <trkpt lat="46.36546" lon="5.99767">
        <ele>1013.37</ele>
        <time>2015-10-23T07:19:07Z</time>
      </trkpt>
      <trkpt lat="46.36545" lon="5.99787">
        <ele>1016.25</ele>
        <time>2015-10-23T07:19:20Z</time>
      </trkpt>
      <trkpt lat="46.36541" lon="5.99793">
        <ele>1017.21</ele>
        <time>2015-10-23T07:19:25Z</time>
      </trkpt>
      <trkpt lat="46.36537" lon="5.99801">
        <ele>1017.21</ele>
        <time>2015-10-23T07:19:30Z</time>
      </trkpt>
      <trkpt lat="46.36527" lon="5.99802">
        <ele>1019.62</ele>
        <time>2015-10-23T07:19:42Z</time>
      </trkpt>
      <trkpt lat="46.36525" lon="5.99803">
        <ele>1020.1</ele>
        <time>2015-10-23T07:19:45Z</time>
      </trkpt>
      <trkpt lat="46.36523" lon="5.99805">
        <ele>1020.58</ele>
        <time>2015-10-23T07:19:47Z</time>
      </trkpt>
      <trkpt lat="46.36521" lon="5.99805">
        <ele>1021.54</ele>
        <time>2015-10-23T07:19:49Z</time>
      </trkpt>
      <trkpt lat="46.36519" lon="5.99805">
        <ele>1021.54</ele>
        <time>2015-10-23T07:19:51Z</time>
      </trkpt>
      <trkpt lat="46.36513" lon="5.99807">
        <ele>1022.5</ele>
        <time>2015-10-23T07:19:57Z</time>
      </trkpt>
      <trkpt lat="46.36508" lon="5.99811">
        <ele>1023.46</ele>
        <time>2015-10-23T07:20:05Z</time>
      </trkpt>
      <trkpt lat="46.36502" lon="5.99814">
        <ele>1026.83</ele>
        <time>2015-10-23T07:20:16Z</time>
      </trkpt>
      <trkpt lat="46.36493" lon="5.99814">
        <ele>1029.71</ele>
        <time>2015-10-23T07:20:29Z</time>
      </trkpt>
      <trkpt lat="46.36483" lon="5.99823">
        <ele>1032.11</ele>
        <time>2015-10-23T07:20:42Z</time>
      </trkpt>
      <trkpt lat="46.36475" lon="5.99829">
        <ele>1035</ele>
        <time>2015-10-23T07:20:56Z</time>
      </trkpt>
      <trkpt lat="46.36466" lon="5.9983">
        <ele>1037.4</ele>
        <time>2015-10-23T07:21:10Z</time>
      </trkpt>
      <trkpt lat="46.36456" lon="5.99827">
        <ele>1039.8</ele>
        <time>2015-10-23T07:21:22Z</time>
      </trkpt>
      <trkpt lat="46.36447" lon="5.99828">
        <ele>1042.69</ele>
        <time>2015-10-23T07:21:34Z</time>
      </trkpt>
      <trkpt lat="46.3644" lon="5.99835">
        <ele>1046.05</ele>
        <time>2015-10-23T07:21:47Z</time>
      </trkpt>
      <trkpt lat="46.36434" lon="5.99845">
        <ele>1049.42</ele>
        <time>2015-10-23T07:22:04Z</time>
      </trkpt>
      <trkpt lat="46.36425" lon="5.99845">
        <ele>1051.82</ele>
        <time>2015-10-23T07:22:17Z</time>
      </trkpt>
      <trkpt lat="46.36415" lon="5.9983">
        <ele>1055.18</ele>
        <time>2015-10-23T07:22:30Z</time>
      </trkpt>
      <trkpt lat="46.3641" lon="5.99832">
        <ele>1057.59</ele>
        <time>2015-10-23T07:22:45Z</time>
      </trkpt>
      <trkpt lat="46.36394" lon="5.99819">
        <ele>1060.95</ele>
        <time>2015-10-23T07:22:58Z</time>
      </trkpt>
      <trkpt lat="46.36384" lon="5.9981">
        <ele>1063.36</ele>
        <time>2015-10-23T07:23:12Z</time>
      </trkpt>
      <trkpt lat="46.36374" lon="5.99804">
        <ele>1066.72</ele>
        <time>2015-10-23T07:23:24Z</time>
      </trkpt>
      <trkpt lat="46.36374" lon="5.99804">
        <ele>1066.72</ele>
        <time>2015-10-23T07:23:25Z</time>
      </trkpt>
      <trkpt lat="46.36359" lon="5.99807">
        <ele>1069.6</ele>
        <time>2015-10-23T07:23:43Z</time>
      </trkpt>
      <trkpt lat="46.36354" lon="5.99806">
        <ele>1072.97</ele>
        <time>2015-10-23T07:23:55Z</time>
      </trkpt>
      <trkpt lat="46.36353" lon="5.99807">
        <ele>1072.97</ele>
        <time>2015-10-23T07:23:57Z</time>
      </trkpt>
      <trkpt lat="46.3635" lon="5.99812">
        <ele>1074.41</ele>
        <time>2015-10-23T07:24:01Z</time>
      </trkpt>
      <trkpt lat="46.3635" lon="5.99816">
        <ele>1074.89</ele>
        <time>2015-10-23T07:24:03Z</time>
      </trkpt>
      <trkpt lat="46.36352" lon="5.99822">
        <ele>1074.41</ele>
        <time>2015-10-23T07:24:07Z</time>
      </trkpt>
      <trkpt lat="46.36353" lon="5.99837">
        <ele>1074.89</ele>
        <time>2015-10-23T07:24:15Z</time>
      </trkpt>
      <trkpt lat="46.36356" lon="5.9985">
        <ele>1076.33</ele>
        <time>2015-10-23T07:24:22Z</time>
      </trkpt>
      <trkpt lat="46.36363" lon="5.99865">
        <ele>1077.29</ele>
        <time>2015-10-23T07:24:33Z</time>
      </trkpt>
      <trkpt lat="46.36365" lon="5.99875">
        <ele>1078.74</ele>
        <time>2015-10-23T07:24:41Z</time>
      </trkpt>
      <trkpt lat="46.36364" lon="5.9989">
        <ele>1080.66</ele>
        <time>2015-10-23T07:24:51Z</time>
      </trkpt>
      <trkpt lat="46.36371" lon="5.99915">
        <ele>1083.54</ele>
        <time>2015-10-23T07:25:07Z</time>
      </trkpt>
      <trkpt lat="46.36372" lon="5.99916">
        <ele>1083.54</ele>
        <time>2015-10-23T07:25:09Z</time>
      </trkpt>
      <trkpt lat="46.36378" lon="5.99942">
        <ele>1086.43</ele>
        <time>2015-10-23T07:25:24Z</time>
      </trkpt>
      <trkpt lat="46.36383" lon="5.99949">
        <ele>1086.43</ele>
        <time>2015-10-23T07:25:30Z</time>
      </trkpt>
      <trkpt lat="46.36388" lon="5.99967">
        <ele>1088.83</ele>
        <time>2015-10-23T07:25:43Z</time>
      </trkpt>
      <trkpt lat="46.36389" lon="5.9997">
        <ele>1088.83</ele>
        <time>2015-10-23T07:25:45Z</time>
      </trkpt>
      <trkpt lat="46.36391" lon="5.99994">
        <ele>1091.23</ele>
        <time>2015-10-23T07:26:01Z</time>
      </trkpt>
      <trkpt lat="46.36395" lon="6.0001">
        <ele>1093.16</ele>
        <time>2015-10-23T07:26:13Z</time>
      </trkpt>
      <trkpt lat="46.36399" lon="6.00023">
        <ele>1094.6</ele>
        <time>2015-10-23T07:26:24Z</time>
      </trkpt>
      <trkpt lat="46.364" lon="6.00026">
        <ele>1095.08</ele>
        <time>2015-10-23T07:26:26Z</time>
      </trkpt>
      <trkpt lat="46.36405" lon="6.0004">
        <ele>1096.04</ele>
        <time>2015-10-23T07:26:36Z</time>
      </trkpt>
      <trkpt lat="46.36405" lon="6.00049">
        <ele>1096.52</ele>
        <time>2015-10-23T07:26:40Z</time>
      </trkpt>
      <trkpt lat="46.36406" lon="6.00053">
        <ele>1097</ele>
        <time>2015-10-23T07:26:41Z</time>
      </trkpt>
      <trkpt lat="46.36407" lon="6.00058">
        <ele>1097</ele>
        <time>2015-10-23T07:26:44Z</time>
      </trkpt>
      <trkpt lat="46.3641" lon="6.00067">
        <ele>1097.96</ele>
        <time>2015-10-23T07:26:49Z</time>
      </trkpt>
      <trkpt lat="46.36409" lon="6.00074">
        <ele>1098.44</ele>
        <time>2015-10-23T07:26:53Z</time>
      </trkpt>
      <trkpt lat="46.36411" lon="6.00076">
        <ele>1098.44</ele>
        <time>2015-10-23T07:26:55Z</time>
      </trkpt>
      <trkpt lat="46.36418" lon="6.00089">
        <ele>1099.4</ele>
        <time>2015-10-23T07:27:02Z</time>
      </trkpt>
      <trkpt lat="46.36423" lon="6.00104">
        <ele>1100.85</ele>
        <time>2015-10-23T07:27:14Z</time>
      </trkpt>
      <trkpt lat="46.36426" lon="6.00116">
        <ele>1101.33</ele>
        <time>2015-10-23T07:27:21Z</time>
      </trkpt>
      <trkpt lat="46.36428" lon="6.0012">
        <ele>1101.81</ele>
        <time>2015-10-23T07:27:24Z</time>
      </trkpt>
      <trkpt lat="46.36429" lon="6.00125">
        <ele>1102.77</ele>
        <time>2015-10-23T07:27:28Z</time>
      </trkpt>
      <trkpt lat="46.36432" lon="6.00137">
        <ele>1103.25</ele>
        <time>2015-10-23T07:27:35Z</time>
      </trkpt>
      <trkpt lat="46.36436" lon="6.0015">
        <ele>1104.69</ele>
        <time>2015-10-23T07:27:44Z</time>
      </trkpt>
      <trkpt lat="46.36435" lon="6.00156">
        <ele>1105.17</ele>
        <time>2015-10-23T07:27:48Z</time>
      </trkpt>
      <trkpt lat="46.36435" lon="6.00159">
        <ele>1105.17</ele>
        <time>2015-10-23T07:27:50Z</time>
      </trkpt>
      <trkpt lat="46.36436" lon="6.00161">
        <ele>1106.13</ele>
        <time>2015-10-23T07:27:51Z</time>
      </trkpt>
      <trkpt lat="46.36441" lon="6.0017">
        <ele>1106.61</ele>
        <time>2015-10-23T07:27:58Z</time>
      </trkpt>
      <trkpt lat="46.36441" lon="6.00175">
        <ele>1107.1</ele>
        <time>2015-10-23T07:28:02Z</time>
      </trkpt>
      <trkpt lat="46.36442" lon="6.00183">
        <ele>1107.58</ele>
        <time>2015-10-23T07:28:07Z</time>
      </trkpt>
      <trkpt lat="46.36447" lon="6.00188">
        <ele>1108.06</ele>
        <time>2015-10-23T07:28:12Z</time>
      </trkpt>
      <trkpt lat="46.36452" lon="6.00188">
        <ele>1108.06</ele>
        <time>2015-10-23T07:28:27Z</time>
      </trkpt>
      <trkpt lat="46.36452" lon="6.00188">
        <ele>1108.06</ele>
        <time>2015-10-23T07:29:01Z</time>
      </trkpt>
      <trkpt lat="46.36452" lon="6.00188">
        <ele>1107.58</ele>
        <time>2015-10-23T07:29:28Z</time>
      </trkpt>
      <trkpt lat="46.36452" lon="6.00189">
        <ele>1107.58</ele>
        <time>2015-10-23T07:29:32Z</time>
      </trkpt>
      <trkpt lat="46.36454" lon="6.00201">
        <ele>1109.02</ele>
        <time>2015-10-23T07:29:39Z</time>
      </trkpt>
      <trkpt lat="46.36459" lon="6.00221">
        <ele>1110.46</ele>
        <time>2015-10-23T07:29:51Z</time>
      </trkpt>
      <trkpt lat="46.36459" lon="6.00223">
        <ele>1110.46</ele>
        <time>2015-10-23T07:29:53Z</time>
      </trkpt>
      <trkpt lat="46.36459" lon="6.00239">
        <ele>1111.9</ele>
        <time>2015-10-23T07:30:04Z</time>
      </trkpt>
      <trkpt lat="46.36461" lon="6.00247">
        <ele>1112.86</ele>
        <time>2015-10-23T07:30:08Z</time>
      </trkpt>
      <trkpt lat="46.36464" lon="6.00266">
        <ele>1113.82</ele>
        <time>2015-10-23T07:30:19Z</time>
      </trkpt>
      <trkpt lat="46.36462" lon="6.00289">
        <ele>1116.23</ele>
        <time>2015-10-23T07:30:34Z</time>
      </trkpt>
      <trkpt lat="46.36463" lon="6.00296">
        <ele>1117.67</ele>
        <time>2015-10-23T07:30:40Z</time>
      </trkpt>
      <trkpt lat="46.36458" lon="6.00315">
        <ele>1119.59</ele>
        <time>2015-10-23T07:30:52Z</time>
      </trkpt>
      <trkpt lat="46.36458" lon="6.00319">
        <ele>1120.55</ele>
        <time>2015-10-23T07:30:55Z</time>
      </trkpt>
      <trkpt lat="46.36459" lon="6.00326">
        <ele>1121.03</ele>
        <time>2015-10-23T07:30:59Z</time>
      </trkpt>
      <trkpt lat="46.36461" lon="6.00332">
        <ele>1122</ele>
        <time>2015-10-23T07:31:03Z</time>
      </trkpt>
      <trkpt lat="46.36463" lon="6.00351">
        <ele>1124.4</ele>
        <time>2015-10-23T07:31:16Z</time>
      </trkpt>
      <trkpt lat="46.36463" lon="6.00354">
        <ele>1124.88</ele>
        <time>2015-10-23T07:31:18Z</time>
      </trkpt>
      <trkpt lat="46.36464" lon="6.00361">
        <ele>1125.84</ele>
        <time>2015-10-23T07:31:22Z</time>
      </trkpt>
      <trkpt lat="46.3646" lon="6.00379">
        <ele>1128.73</ele>
        <time>2015-10-23T07:31:35Z</time>
      </trkpt>
      <trkpt lat="46.36458" lon="6.00383">
        <ele>1129.21</ele>
        <time>2015-10-23T07:31:38Z</time>
      </trkpt>
      <trkpt lat="46.36457" lon="6.00386">
        <ele>1129.21</ele>
        <time>2015-10-23T07:31:40Z</time>
      </trkpt>
      <trkpt lat="46.36462" lon="6.00405">
        <ele>1132.09</ele>
        <time>2015-10-23T07:31:52Z</time>
      </trkpt>
      <trkpt lat="46.36462" lon="6.0041">
        <ele>1132.09</ele>
        <time>2015-10-23T07:31:56Z</time>
      </trkpt>
      <trkpt lat="46.3646" lon="6.00416">
        <ele>1132.57</ele>
        <time>2015-10-23T07:32:00Z</time>
      </trkpt>
      <trkpt lat="46.36458" lon="6.00421">
        <ele>1133.05</ele>
        <time>2015-10-23T07:32:04Z</time>
      </trkpt>
      <trkpt lat="46.36457" lon="6.0043">
        <ele>1134.01</ele>
        <time>2015-10-23T07:32:10Z</time>
      </trkpt>
      <trkpt lat="46.36451" lon="6.00443">
        <ele>1135.45</ele>
        <time>2015-10-23T07:32:19Z</time>
      </trkpt>
      <trkpt lat="46.36455" lon="6.00455">
        <ele>1137.38</ele>
        <time>2015-10-23T07:32:27Z</time>
      </trkpt>
      <trkpt lat="46.36455" lon="6.00463">
        <ele>1138.82</ele>
        <time>2015-10-23T07:32:32Z</time>
      </trkpt>
      <trkpt lat="46.36456" lon="6.0047">
        <ele>1139.78</ele>
        <time>2015-10-23T07:32:36Z</time>
      </trkpt>
      <trkpt lat="46.36456" lon="6.00479">
        <ele>1140.26</ele>
        <time>2015-10-23T07:32:42Z</time>
      </trkpt>
      <trkpt lat="46.3646" lon="6.00486">
        <ele>1141.7</ele>
        <time>2015-10-23T07:32:47Z</time>
      </trkpt>
      <trkpt lat="46.36461" lon="6.00499">
        <ele>1143.14</ele>
        <time>2015-10-23T07:33:00Z</time>
      </trkpt>
      <trkpt lat="46.3646" lon="6.00498">
        <ele>1144.59</ele>
        <time>2015-10-23T07:33:08Z</time>
      </trkpt>
      <trkpt lat="46.36455" lon="6.00483">
        <ele>1146.03</ele>
        <time>2015-10-23T07:33:20Z</time>
      </trkpt>
      <trkpt lat="46.36452" lon="6.00493">
        <ele>1149.39</ele>
        <time>2015-10-23T07:33:31Z</time>
      </trkpt>
      <trkpt lat="46.36447" lon="6.00502">
        <ele>1152.28</ele>
        <time>2015-10-23T07:33:44Z</time>
      </trkpt>
      <trkpt lat="46.36444" lon="6.00509">
        <ele>1155.64</ele>
        <time>2015-10-23T07:33:56Z</time>
      </trkpt>
      <trkpt lat="46.36443" lon="6.00522">
        <ele>1159.01</ele>
        <time>2015-10-23T07:34:11Z</time>
      </trkpt>
      <trkpt lat="46.36446" lon="6.00535">
        <ele>1161.89</ele>
        <time>2015-10-23T07:34:28Z</time>
      </trkpt>
      <trkpt lat="46.36448" lon="6.00537">
        <ele>1162.85</ele>
        <time>2015-10-23T07:34:43Z</time>
      </trkpt>
      <trkpt lat="46.36449" lon="6.00537">
        <ele>1165.74</ele>
        <time>2015-10-23T07:34:54Z</time>
      </trkpt>
      <trkpt lat="46.36449" lon="6.0053">
        <ele>1168.14</ele>
        <time>2015-10-23T07:35:06Z</time>
      </trkpt>
      <trkpt lat="46.36441" lon="6.00527">
        <ele>1171.02</ele>
        <time>2015-10-23T07:35:19Z</time>
      </trkpt>
      <trkpt lat="46.3643" lon="6.00539">
        <ele>1173.91</ele>
        <time>2015-10-23T07:35:32Z</time>
      </trkpt>
      <trkpt lat="46.3643" lon="6.00543">
        <ele>1176.79</ele>
        <time>2015-10-23T07:35:46Z</time>
      </trkpt>
      <trkpt lat="46.36431" lon="6.00563">
        <ele>1178.23</ele>
        <time>2015-10-23T07:36:03Z</time>
      </trkpt>
      <trkpt lat="46.36435" lon="6.00569">
        <ele>1180.64</ele>
        <time>2015-10-23T07:36:19Z</time>
      </trkpt>
      <trkpt lat="46.36433" lon="6.00579">
        <ele>1184</ele>
        <time>2015-10-23T07:36:33Z</time>
      </trkpt>
      <trkpt lat="46.36435" lon="6.00594">
        <ele>1186.4</ele>
        <time>2015-10-23T07:36:48Z</time>
      </trkpt>
      <trkpt lat="46.36436" lon="6.00595">
        <ele>1186.4</ele>
        <time>2015-10-23T07:36:50Z</time>
      </trkpt>
      <trkpt lat="46.36441" lon="6.0059">
        <ele>1186.88</ele>
        <time>2015-10-23T07:36:58Z</time>
      </trkpt>
      <trkpt lat="46.36436" lon="6.00578">
        <ele>1186.88</ele>
        <time>2015-10-23T07:37:08Z</time>
      </trkpt>
      <trkpt lat="46.3643" lon="6.00571">
        <ele>1187.85</ele>
        <time>2015-10-23T07:37:18Z</time>
      </trkpt>
      <trkpt lat="46.36425" lon="6.00561">
        <ele>1188.81</ele>
        <time>2015-10-23T07:37:30Z</time>
      </trkpt>
      <trkpt lat="46.36423" lon="6.00544">
        <ele>1189.77</ele>
        <time>2015-10-23T07:37:42Z</time>
      </trkpt>
      <trkpt lat="46.36417" lon="6.00527">
        <ele>1190.73</ele>
        <time>2015-10-23T07:37:51Z</time>
      </trkpt>
      <trkpt lat="46.36416" lon="6.00521">
        <ele>1191.21</ele>
        <time>2015-10-23T07:37:55Z</time>
      </trkpt>
      <trkpt lat="46.36412" lon="6.00514">
        <ele>1191.69</ele>
        <time>2015-10-23T07:37:59Z</time>
      </trkpt>
      <trkpt lat="46.3641" lon="6.00506">
        <ele>1191.69</ele>
        <time>2015-10-23T07:38:04Z</time>
      </trkpt>
      <trkpt lat="46.36406" lon="6.00492">
        <ele>1191.69</ele>
        <time>2015-10-23T07:38:11Z</time>
      </trkpt>
      <trkpt lat="46.36403" lon="6.00476">
        <ele>1192.65</ele>
        <time>2015-10-23T07:38:20Z</time>
      </trkpt>
      <trkpt lat="46.36404" lon="6.00464">
        <ele>1193.13</ele>
        <time>2015-10-23T07:38:26Z</time>
      </trkpt>
      <trkpt lat="46.36403" lon="6.00442">
        <ele>1194.09</ele>
        <time>2015-10-23T07:38:38Z</time>
      </trkpt>
      <trkpt lat="46.36399" lon="6.00425">
        <ele>1195.06</ele>
        <time>2015-10-23T07:38:48Z</time>
      </trkpt>
      <trkpt lat="46.36399" lon="6.00421">
        <ele>1195.54</ele>
        <time>2015-10-23T07:38:51Z</time>
      </trkpt>
      <trkpt lat="46.364" lon="6.00411">
        <ele>1196.5</ele>
        <time>2015-10-23T07:38:57Z</time>
      </trkpt>
      <trkpt lat="46.36398" lon="6.00405">
        <ele>1196.98</ele>
        <time>2015-10-23T07:39:01Z</time>
      </trkpt>
      <trkpt lat="46.36393" lon="6.004">
        <ele>1197.46</ele>
        <time>2015-10-23T07:39:07Z</time>
      </trkpt>
      <trkpt lat="46.36388" lon="6.00401">
        <ele>1198.42</ele>
        <time>2015-10-23T07:39:10Z</time>
      </trkpt>
      <trkpt lat="46.36382" lon="6.00417">
        <ele>1200.34</ele>
        <time>2015-10-23T07:39:20Z</time>
      </trkpt>
      <trkpt lat="46.36381" lon="6.00426">
        <ele>1201.3</ele>
        <time>2015-10-23T07:39:25Z</time>
      </trkpt>
      <trkpt lat="46.3638" lon="6.00433">
        <ele>1202.27</ele>
        <time>2015-10-23T07:39:30Z</time>
      </trkpt>
      <trkpt lat="46.36381" lon="6.00439">
        <ele>1202.75</ele>
        <time>2015-10-23T07:39:34Z</time>
      </trkpt>
      <trkpt lat="46.36381" lon="6.00446">
        <ele>1203.23</ele>
        <time>2015-10-23T07:39:38Z</time>
      </trkpt>
      <trkpt lat="46.36381" lon="6.00453">
        <ele>1204.19</ele>
        <time>2015-10-23T07:39:43Z</time>
      </trkpt>
      <trkpt lat="46.3638" lon="6.00456">
        <ele>1204.67</ele>
        <time>2015-10-23T07:39:44Z</time>
      </trkpt>
      <trkpt lat="46.3638" lon="6.0047">
        <ele>1206.11</ele>
        <time>2015-10-23T07:39:54Z</time>
      </trkpt>
      <trkpt lat="46.36382" lon="6.00474">
        <ele>1206.59</ele>
        <time>2015-10-23T07:39:57Z</time>
      </trkpt>
      <trkpt lat="46.36381" lon="6.00495">
        <ele>1209</ele>
        <time>2015-10-23T07:40:12Z</time>
      </trkpt>
      <trkpt lat="46.36379" lon="6.005">
        <ele>1210.44</ele>
        <time>2015-10-23T07:40:17Z</time>
      </trkpt>
      <trkpt lat="46.36377" lon="6.00524">
        <ele>1212.36</ele>
        <time>2015-10-23T07:40:32Z</time>
      </trkpt>
      <trkpt lat="46.36378" lon="6.00535">
        <ele>1213.32</ele>
        <time>2015-10-23T07:40:38Z</time>
      </trkpt>
      <trkpt lat="46.36382" lon="6.0056">
        <ele>1215.24</ele>
        <time>2015-10-23T07:40:52Z</time>
      </trkpt>
      <trkpt lat="46.36388" lon="6.00581">
        <ele>1217.17</ele>
        <time>2015-10-23T07:41:06Z</time>
      </trkpt>
      <trkpt lat="46.36389" lon="6.00614">
        <ele>1218.61</ele>
        <time>2015-10-23T07:41:21Z</time>
      </trkpt>
      <trkpt lat="46.36396" lon="6.00635">
        <ele>1220.05</ele>
        <time>2015-10-23T07:41:37Z</time>
      </trkpt>
      <trkpt lat="46.36405" lon="6.00655">
        <ele>1221.97</ele>
        <time>2015-10-23T07:41:52Z</time>
      </trkpt>
      <trkpt lat="46.36416" lon="6.00683">
        <ele>1224.38</ele>
        <time>2015-10-23T07:42:08Z</time>
      </trkpt>
      <trkpt lat="46.36429" lon="6.00704">
        <ele>1226.3</ele>
        <time>2015-10-23T07:42:22Z</time>
      </trkpt>
      <trkpt lat="46.36432" lon="6.00708">
        <ele>1226.3</ele>
        <time>2015-10-23T07:42:24Z</time>
      </trkpt>
      <trkpt lat="46.36447" lon="6.00727">
        <ele>1227.74</ele>
        <time>2015-10-23T07:42:37Z</time>
      </trkpt>
      <trkpt lat="46.36468" lon="6.00747">
        <ele>1229.18</ele>
        <time>2015-10-23T07:42:50Z</time>
      </trkpt>
      <trkpt lat="46.36474" lon="6.00752">
        <ele>1229.18</ele>
        <time>2015-10-23T07:42:56Z</time>
      </trkpt>
      <trkpt lat="46.36491" lon="6.00766">
        <ele>1230.14</ele>
        <time>2015-10-23T07:43:10Z</time>
      </trkpt>
      <trkpt lat="46.36504" lon="6.00777">
        <ele>1231.11</ele>
        <time>2015-10-23T07:43:23Z</time>
      </trkpt>
      <trkpt lat="46.36516" lon="6.00786">
        <ele>1231.59</ele>
        <time>2015-10-23T07:43:34Z</time>
      </trkpt>
      <trkpt lat="46.36525" lon="6.00789">
        <ele>1232.07</ele>
        <time>2015-10-23T07:43:45Z</time>
      </trkpt>
      <trkpt lat="46.36528" lon="6.00789">
        <ele>1232.55</ele>
        <time>2015-10-23T07:44:00Z</time>
      </trkpt>
      <trkpt lat="46.36529" lon="6.0079">
        <ele>1232.55</ele>
        <time>2015-10-23T07:44:19Z</time>
      </trkpt>
      <trkpt lat="46.36537" lon="6.00795">
        <ele>1233.99</ele>
        <time>2015-10-23T07:44:32Z</time>
      </trkpt>
      <trkpt lat="46.36548" lon="6.00807">
        <ele>1234.95</ele>
        <time>2015-10-23T07:44:49Z</time>
      </trkpt>
      <trkpt lat="46.3656" lon="6.00826">
        <ele>1236.39</ele>
        <time>2015-10-23T07:45:04Z</time>
      </trkpt>
      <trkpt lat="46.36572" lon="6.00841">
        <ele>1237.83</ele>
        <time>2015-10-23T07:45:20Z</time>
      </trkpt>
      <trkpt lat="46.36574" lon="6.00851">
        <ele>1239.76</ele>
        <time>2015-10-23T07:45:34Z</time>
      </trkpt>
      <trkpt lat="46.36578" lon="6.00845">
        <ele>1238.32</ele>
        <time>2015-10-23T07:45:49Z</time>
      </trkpt>
      <trkpt lat="46.36581" lon="6.00857">
        <ele>1240.72</ele>
        <time>2015-10-23T07:46:04Z</time>
      </trkpt>
      <trkpt lat="46.36588" lon="6.00873">
        <ele>1242.64</ele>
        <time>2015-10-23T07:46:18Z</time>
      </trkpt>
      <trkpt lat="46.36606" lon="6.00893">
        <ele>1245.04</ele>
        <time>2015-10-23T07:46:37Z</time>
      </trkpt>
      <trkpt lat="46.36616" lon="6.00903">
        <ele>1246.01</ele>
        <time>2015-10-23T07:46:44Z</time>
      </trkpt>
      <trkpt lat="46.36632" lon="6.00917">
        <ele>1248.41</ele>
        <time>2015-10-23T07:46:59Z</time>
      </trkpt>
      <trkpt lat="46.36647" lon="6.00923">
        <ele>1250.33</ele>
        <time>2015-10-23T07:47:11Z</time>
      </trkpt>
      <trkpt lat="46.36651" lon="6.00926">
        <ele>1250.81</ele>
        <time>2015-10-23T07:47:15Z</time>
      </trkpt>
      <trkpt lat="46.36672" lon="6.00942">
        <ele>1252.74</ele>
        <time>2015-10-23T07:47:31Z</time>
      </trkpt>
      <trkpt lat="46.36675" lon="6.00945">
        <ele>1253.22</ele>
        <time>2015-10-23T07:47:34Z</time>
      </trkpt>
      <trkpt lat="46.36689" lon="6.00955">
        <ele>1254.66</ele>
        <time>2015-10-23T07:47:44Z</time>
      </trkpt>
      <trkpt lat="46.36701" lon="6.00973">
        <ele>1256.1</ele>
        <time>2015-10-23T07:47:57Z</time>
      </trkpt>
      <trkpt lat="46.367" lon="6.00977">
        <ele>1257.06</ele>
        <time>2015-10-23T07:48:00Z</time>
      </trkpt>
      <trkpt lat="46.367" lon="6.00991">
        <ele>1258.02</ele>
        <time>2015-10-23T07:48:08Z</time>
      </trkpt>
      <trkpt lat="46.367" lon="6.00995">
        <ele>1258.5</ele>
        <time>2015-10-23T07:48:10Z</time>
      </trkpt>
      <trkpt lat="46.36702" lon="6.01011">
        <ele>1260.43</ele>
        <time>2015-10-23T07:48:22Z</time>
      </trkpt>
      <trkpt lat="46.36702" lon="6.01013">
        <ele>1260.43</ele>
        <time>2015-10-23T07:48:23Z</time>
      </trkpt>
      <trkpt lat="46.36702" lon="6.01016">
        <ele>1261.39</ele>
        <time>2015-10-23T07:48:38Z</time>
      </trkpt>
      <trkpt lat="46.36703" lon="6.01016">
        <ele>1261.39</ele>
        <time>2015-10-23T07:48:55Z</time>
      </trkpt>
      <trkpt lat="46.36704" lon="6.01016">
        <ele>1260.91</ele>
        <time>2015-10-23T07:49:17Z</time>
      </trkpt>
      <trkpt lat="46.36705" lon="6.01016">
        <ele>1261.39</ele>
        <time>2015-10-23T07:49:19Z</time>
      </trkpt>
      <trkpt lat="46.36718" lon="6.01029">
        <ele>1262.83</ele>
        <time>2015-10-23T07:49:34Z</time>
      </trkpt>
      <trkpt lat="46.36723" lon="6.01037">
        <ele>1263.31</ele>
        <time>2015-10-23T07:49:41Z</time>
      </trkpt>
      <trkpt lat="46.36735" lon="6.01053">
        <ele>1265.23</ele>
        <time>2015-10-23T07:49:54Z</time>
      </trkpt>
      <trkpt lat="46.36741" lon="6.01066">
        <ele>1266.67</ele>
        <time>2015-10-23T07:50:04Z</time>
      </trkpt>
      <trkpt lat="46.36744" lon="6.01082">
        <ele>1268.12</ele>
        <time>2015-10-23T07:50:13Z</time>
      </trkpt>
      <trkpt lat="46.36752" lon="6.011">
        <ele>1269.56</ele>
        <time>2015-10-23T07:50:25Z</time>
      </trkpt>
      <trkpt lat="46.36757" lon="6.01114">
        <ele>1271.48</ele>
        <time>2015-10-23T07:50:35Z</time>
      </trkpt>
      <trkpt lat="46.36762" lon="6.01129">
        <ele>1272.92</ele>
        <time>2015-10-23T07:50:46Z</time>
      </trkpt>
      <trkpt lat="46.36766" lon="6.01148">
        <ele>1274.36</ele>
        <time>2015-10-23T07:50:58Z</time>
      </trkpt>
      <trkpt lat="46.36768" lon="6.0116">
        <ele>1275.33</ele>
        <time>2015-10-23T07:51:07Z</time>
      </trkpt>
      <trkpt lat="46.36772" lon="6.01166">
        <ele>1275.81</ele>
        <time>2015-10-23T07:51:12Z</time>
      </trkpt>
      <trkpt lat="46.36776" lon="6.01183">
        <ele>1277.73</ele>
        <time>2015-10-23T07:51:24Z</time>
      </trkpt>
      <trkpt lat="46.36781" lon="6.01203">
        <ele>1279.65</ele>
        <time>2015-10-23T07:51:38Z</time>
      </trkpt>
      <trkpt lat="46.3678" lon="6.01223">
        <ele>1281.09</ele>
        <time>2015-10-23T07:51:50Z</time>
      </trkpt>
      <trkpt lat="46.36778" lon="6.01229">
        <ele>1281.57</ele>
        <time>2015-10-23T07:51:54Z</time>
      </trkpt>
      <trkpt lat="46.3677" lon="6.0124">
        <ele>1283.5</ele>
        <time>2015-10-23T07:52:07Z</time>
      </trkpt>
      <trkpt lat="46.36768" lon="6.0124">
        <ele>1283.98</ele>
        <time>2015-10-23T07:52:10Z</time>
      </trkpt>
      <trkpt lat="46.36761" lon="6.01242">
        <ele>1284.46</ele>
        <time>2015-10-23T07:52:15Z</time>
      </trkpt>
      <trkpt lat="46.36746" lon="6.01259">
        <ele>1285.9</ele>
        <time>2015-10-23T07:52:27Z</time>
      </trkpt>
      <trkpt lat="46.36752" lon="6.01284">
        <ele>1287.82</ele>
        <time>2015-10-23T07:52:42Z</time>
      </trkpt>
      <trkpt lat="46.36753" lon="6.013">
        <ele>1289.27</ele>
        <time>2015-10-23T07:52:51Z</time>
      </trkpt>
      <trkpt lat="46.36753" lon="6.01325">
        <ele>1291.67</ele>
        <time>2015-10-23T07:53:07Z</time>
      </trkpt>
      <trkpt lat="46.36757" lon="6.01345">
        <ele>1293.59</ele>
        <time>2015-10-23T07:53:18Z</time>
      </trkpt>
      <trkpt lat="46.36761" lon="6.01361">
        <ele>1294.55</ele>
        <time>2015-10-23T07:53:30Z</time>
      </trkpt>
      <trkpt lat="46.36759" lon="6.01373">
        <ele>1289.27</ele>
        <time>2015-10-23T07:53:41Z</time>
      </trkpt>
      <trkpt lat="46.36758" lon="6.01375">
        <ele>1307.05</ele>
        <time>2015-10-23T07:53:42Z</time>
      </trkpt>
      <trkpt lat="46.36757" lon="6.01376">
        <ele>1297.44</ele>
        <time>2015-10-23T07:53:43Z</time>
      </trkpt>
      <trkpt lat="46.36756" lon="6.01378">
        <ele>1294.07</ele>
        <time>2015-10-23T07:53:45Z</time>
      </trkpt>
      <trkpt lat="46.36756" lon="6.01379">
        <ele>1300.32</ele>
        <time>2015-10-23T07:53:46Z</time>
      </trkpt>
      <trkpt lat="46.36755" lon="6.01381">
        <ele>1291.19</ele>
        <time>2015-10-23T07:53:47Z</time>
      </trkpt>
      <trkpt lat="46.36754" lon="6.01382">
        <ele>1303.69</ele>
        <time>2015-10-23T07:53:48Z</time>
      </trkpt>
      <trkpt lat="46.36753" lon="6.01383">
        <ele>1292.63</ele>
        <time>2015-10-23T07:53:49Z</time>
      </trkpt>
      <trkpt lat="46.36753" lon="6.01384">
        <ele>1304.17</ele>
        <time>2015-10-23T07:53:50Z</time>
      </trkpt>
      <trkpt lat="46.36752" lon="6.01386">
        <ele>1296.96</ele>
        <time>2015-10-23T07:53:51Z</time>
      </trkpt>
      <trkpt lat="46.36752" lon="6.01387">
        <ele>1303.2</ele>
        <time>2015-10-23T07:53:52Z</time>
      </trkpt>
      <trkpt lat="46.36751" lon="6.01388">
        <ele>1297.44</ele>
        <time>2015-10-23T07:53:53Z</time>
      </trkpt>
      <trkpt lat="46.36751" lon="6.01388">
        <ele>1300.8</ele>
        <time>2015-10-23T07:53:54Z</time>
      </trkpt>
      <trkpt lat="46.3675" lon="6.0139">
        <ele>1300.8</ele>
        <time>2015-10-23T07:53:56Z</time>
      </trkpt>
      <trkpt lat="46.36743" lon="6.01399">
        <ele>1302.24</ele>
        <time>2015-10-23T07:54:08Z</time>
      </trkpt>
      <trkpt lat="46.36732" lon="6.01408">
        <ele>1305.61</ele>
        <time>2015-10-23T07:54:20Z</time>
      </trkpt>
      <trkpt lat="46.36728" lon="6.01412">
        <ele>1306.57</ele>
        <time>2015-10-23T07:54:25Z</time>
      </trkpt>
      <trkpt lat="46.36724" lon="6.01418">
        <ele>1308.01</ele>
        <time>2015-10-23T07:54:30Z</time>
      </trkpt>
      <trkpt lat="46.36722" lon="6.01422">
        <ele>1308.97</ele>
        <time>2015-10-23T07:54:35Z</time>
      </trkpt>
      <trkpt lat="46.3672" lon="6.01423">
        <ele>1308.97</ele>
        <time>2015-10-23T07:54:37Z</time>
      </trkpt>
      <trkpt lat="46.36714" lon="6.01425">
        <ele>1310.41</ele>
        <time>2015-10-23T07:54:44Z</time>
      </trkpt>
      <trkpt lat="46.3671" lon="6.01424">
        <ele>1310.9</ele>
        <time>2015-10-23T07:54:48Z</time>
      </trkpt>
      <trkpt lat="46.36705" lon="6.01422">
        <ele>1311.86</ele>
        <time>2015-10-23T07:54:58Z</time>
      </trkpt>
      <trkpt lat="46.36699" lon="6.01432">
        <ele>1311.38</ele>
        <time>2015-10-23T07:55:09Z</time>
      </trkpt>
      <trkpt lat="46.36699" lon="6.01431">
        <ele>1311.38</ele>
        <time>2015-10-23T07:55:15Z</time>
      </trkpt>
      <trkpt lat="46.36701" lon="6.0143">
        <ele>1311.38</ele>
        <time>2015-10-23T07:55:25Z</time>
      </trkpt>
      <trkpt lat="46.36701" lon="6.0143">
        <ele>1311.38</ele>
        <time>2015-10-23T07:56:00Z</time>
      </trkpt>
      <trkpt lat="46.36702" lon="6.01426">
        <ele>1311.86</ele>
        <time>2015-10-23T07:56:05Z</time>
      </trkpt>
      <trkpt lat="46.36705" lon="6.01416">
        <ele>1311.86</ele>
        <time>2015-10-23T07:56:11Z</time>
      </trkpt>
      <trkpt lat="46.36705" lon="6.01412">
        <ele>1312.34</ele>
        <time>2015-10-23T07:56:13Z</time>
      </trkpt>
      <trkpt lat="46.36707" lon="6.01404">
        <ele>1312.82</ele>
        <time>2015-10-23T07:56:17Z</time>
      </trkpt>
      <trkpt lat="46.36708" lon="6.01398">
        <ele>1312.82</ele>
        <time>2015-10-23T07:56:21Z</time>
      </trkpt>
      <trkpt lat="46.36707" lon="6.0139">
        <ele>1313.3</ele>
        <time>2015-10-23T07:56:25Z</time>
      </trkpt>
      <trkpt lat="46.36701" lon="6.01367">
        <ele>1313.78</ele>
        <time>2015-10-23T07:56:37Z</time>
      </trkpt>
      <trkpt lat="46.36692" lon="6.01345">
        <ele>1314.74</ele>
        <time>2015-10-23T07:56:50Z</time>
      </trkpt>
      <trkpt lat="46.36688" lon="6.01326">
        <ele>1315.7</ele>
        <time>2015-10-23T07:57:00Z</time>
      </trkpt>
      <trkpt lat="46.36688" lon="6.01317">
        <ele>1316.18</ele>
        <time>2015-10-23T07:57:05Z</time>
      </trkpt>
      <trkpt lat="46.36687" lon="6.01314">
        <ele>1316.18</ele>
        <time>2015-10-23T07:57:07Z</time>
      </trkpt>
      <trkpt lat="46.36677" lon="6.01294">
        <ele>1316.18</ele>
        <time>2015-10-23T07:57:21Z</time>
      </trkpt>
      <trkpt lat="46.36673" lon="6.01291">
        <ele>1316.66</ele>
        <time>2015-10-23T07:57:26Z</time>
      </trkpt>
      <trkpt lat="46.36667" lon="6.01288">
        <ele>1317.14</ele>
        <time>2015-10-23T07:57:30Z</time>
      </trkpt>
      <trkpt lat="46.36655" lon="6.01284">
        <ele>1317.62</ele>
        <time>2015-10-23T07:57:40Z</time>
      </trkpt>
      <trkpt lat="46.36639" lon="6.01279">
        <ele>1318.1</ele>
        <time>2015-10-23T07:57:54Z</time>
      </trkpt>
      <trkpt lat="46.36637" lon="6.01278">
        <ele>1318.59</ele>
        <time>2015-10-23T07:57:56Z</time>
      </trkpt>
      <trkpt lat="46.36629" lon="6.01275">
        <ele>1319.07</ele>
        <time>2015-10-23T07:58:03Z</time>
      </trkpt>
      <trkpt lat="46.36625" lon="6.01272">
        <ele>1319.55</ele>
        <time>2015-10-23T07:58:07Z</time>
      </trkpt>
      <trkpt lat="46.3661" lon="6.01262">
        <ele>1321.95</ele>
        <time>2015-10-23T07:58:22Z</time>
      </trkpt>
      <trkpt lat="46.36601" lon="6.01257">
        <ele>1323.39</ele>
        <time>2015-10-23T07:58:32Z</time>
      </trkpt>
      <trkpt lat="46.36593" lon="6.01253">
        <ele>1324.83</ele>
        <time>2015-10-23T07:58:41Z</time>
      </trkpt>
      <trkpt lat="46.36588" lon="6.01253">
        <ele>1325.31</ele>
        <time>2015-10-23T07:58:45Z</time>
      </trkpt>
      <trkpt lat="46.36584" lon="6.01252">
        <ele>1325.31</ele>
        <time>2015-10-23T07:58:50Z</time>
      </trkpt>
      <trkpt lat="46.36566" lon="6.01246">
        <ele>1326.76</ele>
        <time>2015-10-23T07:59:02Z</time>
      </trkpt>
      <trkpt lat="46.36561" lon="6.01242">
        <ele>1327.24</ele>
        <time>2015-10-23T07:59:07Z</time>
      </trkpt>
      <trkpt lat="46.36547" lon="6.0123">
        <ele>1329.16</ele>
        <time>2015-10-23T07:59:18Z</time>
      </trkpt>
      <trkpt lat="46.36541" lon="6.01224">
        <ele>1330.12</ele>
        <time>2015-10-23T07:59:24Z</time>
      </trkpt>
      <trkpt lat="46.36536" lon="6.01214">
        <ele>1331.56</ele>
        <time>2015-10-23T07:59:38Z</time>
      </trkpt>
      <trkpt lat="46.3653" lon="6.01229">
        <ele>1331.08</ele>
        <time>2015-10-23T07:59:49Z</time>
      </trkpt>
      <trkpt lat="46.36527" lon="6.01231">
        <ele>1332.04</ele>
        <time>2015-10-23T07:59:54Z</time>
      </trkpt>
      <trkpt lat="46.36516" lon="6.01227">
        <ele>1327.24</ele>
        <time>2015-10-23T08:00:04Z</time>
      </trkpt>
      <trkpt lat="46.36515" lon="6.01226">
        <ele>1337.81</ele>
        <time>2015-10-23T08:00:05Z</time>
      </trkpt>
      <trkpt lat="46.36514" lon="6.01226">
        <ele>1333.97</ele>
        <time>2015-10-23T08:00:06Z</time>
      </trkpt>
      <trkpt lat="46.36495" lon="6.01218">
        <ele>1336.85</ele>
        <time>2015-10-23T08:00:21Z</time>
      </trkpt>
      <trkpt lat="46.36479" lon="6.01219">
        <ele>1338.77</ele>
        <time>2015-10-23T08:00:33Z</time>
      </trkpt>
      <trkpt lat="46.36468" lon="6.01224">
        <ele>1340.7</ele>
        <time>2015-10-23T08:00:44Z</time>
      </trkpt>
      <trkpt lat="46.36467" lon="6.01225">
        <ele>1341.18</ele>
        <time>2015-10-23T08:00:45Z</time>
      </trkpt>
      <trkpt lat="46.36451" lon="6.01232">
        <ele>1343.58</ele>
        <time>2015-10-23T08:00:59Z</time>
      </trkpt>
      <trkpt lat="46.3644" lon="6.0124">
        <ele>1344.54</ele>
        <time>2015-10-23T08:01:11Z</time>
      </trkpt>
      <trkpt lat="46.36425" lon="6.01243">
        <ele>1345.98</ele>
        <time>2015-10-23T08:01:24Z</time>
      </trkpt>
      <trkpt lat="46.36413" lon="6.01245">
        <ele>1348.39</ele>
        <time>2015-10-23T08:01:37Z</time>
      </trkpt>
      <trkpt lat="46.36409" lon="6.01245">
        <ele>1349.35</ele>
        <time>2015-10-23T08:01:40Z</time>
      </trkpt>
      <trkpt lat="46.36402" lon="6.01245">
        <ele>1351.75</ele>
        <time>2015-10-23T08:01:51Z</time>
      </trkpt>
      <trkpt lat="46.36392" lon="6.01248">
        <ele>1354.63</ele>
        <time>2015-10-23T08:02:03Z</time>
      </trkpt>
      <trkpt lat="46.36382" lon="6.01249">
        <ele>1357.52</ele>
        <time>2015-10-23T08:02:15Z</time>
      </trkpt>
      <trkpt lat="46.36367" lon="6.01251">
        <ele>1359.92</ele>
        <time>2015-10-23T08:02:27Z</time>
      </trkpt>
      <trkpt lat="46.36358" lon="6.01257">
        <ele>1362.33</ele>
        <time>2015-10-23T08:02:38Z</time>
      </trkpt>
      <trkpt lat="46.36352" lon="6.01269">
        <ele>1364.73</ele>
        <time>2015-10-23T08:02:51Z</time>
      </trkpt>
      <trkpt lat="46.3634" lon="6.01269">
        <ele>1368.09</ele>
        <time>2015-10-23T08:03:04Z</time>
      </trkpt>
      <trkpt lat="46.36338" lon="6.01268">
        <ele>1369.05</ele>
        <time>2015-10-23T08:03:08Z</time>
      </trkpt>
      <trkpt lat="46.36332" lon="6.01266">
        <ele>1370.02</ele>
        <time>2015-10-23T08:03:13Z</time>
      </trkpt>
      <trkpt lat="46.3632" lon="6.01266">
        <ele>1373.86</ele>
        <time>2015-10-23T08:03:26Z</time>
      </trkpt>
      <trkpt lat="46.36315" lon="6.01268">
        <ele>1375.78</ele>
        <time>2015-10-23T08:03:35Z</time>
      </trkpt>
      <trkpt lat="46.36307" lon="6.0127">
        <ele>1378.67</ele>
        <time>2015-10-23T08:03:48Z</time>
      </trkpt>
      <trkpt lat="46.36295" lon="6.01271">
        <ele>1382.03</ele>
        <time>2015-10-23T08:04:01Z</time>
      </trkpt>
      <trkpt lat="46.36295" lon="6.01271">
        <ele>1382.03</ele>
        <time>2015-10-23T08:04:02Z</time>
      </trkpt>
      <trkpt lat="46.3629" lon="6.01271">
        <ele>1383.96</ele>
        <time>2015-10-23T08:04:09Z</time>
      </trkpt>
      <trkpt lat="46.36286" lon="6.01272">
        <ele>1384.92</ele>
        <time>2015-10-23T08:04:16Z</time>
      </trkpt>
      <trkpt lat="46.36278" lon="6.01271">
        <ele>1387.8</ele>
        <time>2015-10-23T08:04:28Z</time>
      </trkpt>
      <trkpt lat="46.36272" lon="6.01271">
        <ele>1389.24</ele>
        <time>2015-10-23T08:04:34Z</time>
      </trkpt>
      <trkpt lat="46.36266" lon="6.01272">
        <ele>1390.68</ele>
        <time>2015-10-23T08:04:41Z</time>
      </trkpt>
      <trkpt lat="46.36263" lon="6.01272">
        <ele>1391.65</ele>
        <time>2015-10-23T08:04:44Z</time>
      </trkpt>
      <trkpt lat="46.36253" lon="6.01272">
        <ele>1394.05</ele>
        <time>2015-10-23T08:04:55Z</time>
      </trkpt>
      <trkpt lat="46.36244" lon="6.01269">
        <ele>1396.93</ele>
        <time>2015-10-23T08:05:08Z</time>
      </trkpt>
      <trkpt lat="46.36236" lon="6.01266">
        <ele>1399.82</ele>
        <time>2015-10-23T08:05:22Z</time>
      </trkpt>
      <trkpt lat="46.36231" lon="6.01265">
        <ele>1402.22</ele>
        <time>2015-10-23T08:05:33Z</time>
      </trkpt>
      <trkpt lat="46.36228" lon="6.01264">
        <ele>1403.66</ele>
        <time>2015-10-23T08:05:36Z</time>
      </trkpt>
      <trkpt lat="46.36222" lon="6.01264">
        <ele>1404.62</ele>
        <time>2015-10-23T08:05:41Z</time>
      </trkpt>
      <trkpt lat="46.36215" lon="6.01263">
        <ele>1406.07</ele>
        <time>2015-10-23T08:05:48Z</time>
      </trkpt>
      <trkpt lat="46.3621" lon="6.01263">
        <ele>1406.55</ele>
        <time>2015-10-23T08:05:52Z</time>
      </trkpt>
      <trkpt lat="46.36201" lon="6.01264">
        <ele>1408.95</ele>
        <time>2015-10-23T08:06:02Z</time>
      </trkpt>
      <trkpt lat="46.36198" lon="6.01264">
        <ele>1410.87</ele>
        <time>2015-10-23T08:06:09Z</time>
      </trkpt>
      <trkpt lat="46.36186" lon="6.01269">
        <ele>1413.76</ele>
        <time>2015-10-23T08:06:22Z</time>
      </trkpt>
      <trkpt lat="46.36183" lon="6.01271">
        <ele>1414.24</ele>
        <time>2015-10-23T08:06:26Z</time>
      </trkpt>
      <trkpt lat="46.36178" lon="6.01273">
        <ele>1417.12</ele>
        <time>2015-10-23T08:06:40Z</time>
      </trkpt>
      <trkpt lat="46.36172" lon="6.01275">
        <ele>1417.12</ele>
        <time>2015-10-23T08:06:44Z</time>
      </trkpt>
      <trkpt lat="46.36161" lon="6.01282">
        <ele>1420</ele>
        <time>2015-10-23T08:06:57Z</time>
      </trkpt>
      <trkpt lat="46.36152" lon="6.01292">
        <ele>1422.41</ele>
        <time>2015-10-23T08:07:09Z</time>
      </trkpt>
      <trkpt lat="46.3615" lon="6.01293">
        <ele>1423.37</ele>
        <time>2015-10-23T08:07:12Z</time>
      </trkpt>
      <trkpt lat="46.36136" lon="6.01295">
        <ele>1425.77</ele>
        <time>2015-10-23T08:07:27Z</time>
      </trkpt>
      <trkpt lat="46.36131" lon="6.01294">
        <ele>1427.21</ele>
        <time>2015-10-23T08:07:34Z</time>
      </trkpt>
      <trkpt lat="46.36129" lon="6.01291">
        <ele>1427.7</ele>
        <time>2015-10-23T08:07:37Z</time>
      </trkpt>
      <trkpt lat="46.36127" lon="6.01287">
        <ele>1428.66</ele>
        <time>2015-10-23T08:07:41Z</time>
      </trkpt>
      <trkpt lat="46.36123" lon="6.01286">
        <ele>1429.62</ele>
        <time>2015-10-23T08:07:45Z</time>
      </trkpt>
      <trkpt lat="46.36119" lon="6.01285">
        <ele>1430.58</ele>
        <time>2015-10-23T08:07:49Z</time>
      </trkpt>
      <trkpt lat="46.36114" lon="6.01283">
        <ele>1431.06</ele>
        <time>2015-10-23T08:07:53Z</time>
      </trkpt>
      <trkpt lat="46.36106" lon="6.01281">
        <ele>1433.94</ele>
        <time>2015-10-23T08:08:05Z</time>
      </trkpt>
      <trkpt lat="46.36104" lon="6.01281">
        <ele>1434.42</ele>
        <time>2015-10-23T08:08:10Z</time>
      </trkpt>
      <trkpt lat="46.36096" lon="6.01279">
        <ele>1436.35</ele>
        <time>2015-10-23T08:08:19Z</time>
      </trkpt>
      <trkpt lat="46.36091" lon="6.01275">
        <ele>1436.35</ele>
        <time>2015-10-23T08:08:24Z</time>
      </trkpt>
      <trkpt lat="46.36088" lon="6.0127">
        <ele>1435.87</ele>
        <time>2015-10-23T08:08:28Z</time>
      </trkpt>
      <trkpt lat="46.36087" lon="6.01266">
        <ele>1437.31</ele>
        <time>2015-10-23T08:08:32Z</time>
      </trkpt>
      <trkpt lat="46.36072" lon="6.01265">
        <ele>1440.19</ele>
        <time>2015-10-23T08:08:47Z</time>
      </trkpt>
      <trkpt lat="46.3607" lon="6.01265">
        <ele>1441.15</ele>
        <time>2015-10-23T08:08:51Z</time>
      </trkpt>
      <trkpt lat="46.36067" lon="6.01265">
        <ele>1442.11</ele>
        <time>2015-10-23T08:08:54Z</time>
      </trkpt>
      <trkpt lat="46.36058" lon="6.01265">
        <ele>1445.48</ele>
        <time>2015-10-23T08:09:07Z</time>
      </trkpt>
      <trkpt lat="46.36057" lon="6.01265">
        <ele>1445.96</ele>
        <time>2015-10-23T08:09:09Z</time>
      </trkpt>
      <trkpt lat="46.36054" lon="6.01266">
        <ele>1447.4</ele>
        <time>2015-10-23T08:09:22Z</time>
      </trkpt>
      <trkpt lat="46.36041" lon="6.01271">
        <ele>1449.32</ele>
        <time>2015-10-23T08:09:36Z</time>
      </trkpt>
      <trkpt lat="46.36039" lon="6.01272">
        <ele>1449.81</ele>
        <time>2015-10-23T08:09:38Z</time>
      </trkpt>
      <trkpt lat="46.36033" lon="6.01271">
        <ele>1450.77</ele>
        <time>2015-10-23T08:09:44Z</time>
      </trkpt>
      <trkpt lat="46.36029" lon="6.01272">
        <ele>1451.25</ele>
        <time>2015-10-23T08:09:47Z</time>
      </trkpt>
      <trkpt lat="46.36025" lon="6.01272">
        <ele>1452.21</ele>
        <time>2015-10-23T08:09:51Z</time>
      </trkpt>
      <trkpt lat="46.36022" lon="6.01272">
        <ele>1452.69</ele>
        <time>2015-10-23T08:09:54Z</time>
      </trkpt>
      <trkpt lat="46.36008" lon="6.01272">
        <ele>1454.61</ele>
        <time>2015-10-23T08:10:05Z</time>
      </trkpt>
      <trkpt lat="46.36007" lon="6.01272">
        <ele>1455.09</ele>
        <time>2015-10-23T08:10:06Z</time>
      </trkpt>
      <trkpt lat="46.36004" lon="6.01272">
        <ele>1455.57</ele>
        <time>2015-10-23T08:10:09Z</time>
      </trkpt>
      <trkpt lat="46.36" lon="6.01275">
        <ele>1456.05</ele>
        <time>2015-10-23T08:10:13Z</time>
      </trkpt>
      <trkpt lat="46.35995" lon="6.01276">
        <ele>1457.02</ele>
        <time>2015-10-23T08:10:17Z</time>
      </trkpt>
      <trkpt lat="46.35983" lon="6.01276">
        <ele>1457.98</ele>
        <time>2015-10-23T08:10:27Z</time>
      </trkpt>
      <trkpt lat="46.35978" lon="6.01279">
        <ele>1458.46</ele>
        <time>2015-10-23T08:10:31Z</time>
      </trkpt>
      <trkpt lat="46.35969" lon="6.01285">
        <ele>1459.9</ele>
        <time>2015-10-23T08:10:40Z</time>
      </trkpt>
      <trkpt lat="46.35965" lon="6.01294">
        <ele>1460.86</ele>
        <time>2015-10-23T08:10:47Z</time>
      </trkpt>
      <trkpt lat="46.35961" lon="6.01298">
        <ele>1462.3</ele>
        <time>2015-10-23T08:10:52Z</time>
      </trkpt>
      <trkpt lat="46.35953" lon="6.01309">
        <ele>1464.23</ele>
        <time>2015-10-23T08:11:02Z</time>
      </trkpt>
      <trkpt lat="46.35951" lon="6.01315">
        <ele>1465.19</ele>
        <time>2015-10-23T08:11:06Z</time>
      </trkpt>
      <trkpt lat="46.35947" lon="6.0132">
        <ele>1466.15</ele>
        <time>2015-10-23T08:11:11Z</time>
      </trkpt>
      <trkpt lat="46.35941" lon="6.01329">
        <ele>1468.07</ele>
        <time>2015-10-23T08:11:19Z</time>
      </trkpt>
      <trkpt lat="46.35938" lon="6.01337">
        <ele>1469.51</ele>
        <time>2015-10-23T08:11:25Z</time>
      </trkpt>
      <trkpt lat="46.35936" lon="6.01342">
        <ele>1470.47</ele>
        <time>2015-10-23T08:11:29Z</time>
      </trkpt>
      <trkpt lat="46.35928" lon="6.01359">
        <ele>1472.88</ele>
        <time>2015-10-23T08:11:41Z</time>
      </trkpt>
      <trkpt lat="46.35927" lon="6.01366">
        <ele>1473.36</ele>
        <time>2015-10-23T08:11:45Z</time>
      </trkpt>
      <trkpt lat="46.35924" lon="6.01383">
        <ele>1475.28</ele>
        <time>2015-10-23T08:11:56Z</time>
      </trkpt>
      <trkpt lat="46.35919" lon="6.01395">
        <ele>1477.2</ele>
        <time>2015-10-23T08:12:06Z</time>
      </trkpt>
      <trkpt lat="46.35917" lon="6.01406">
        <ele>1478.16</ele>
        <time>2015-10-23T08:12:13Z</time>
      </trkpt>
      <trkpt lat="46.35912" lon="6.01417">
        <ele>1480.57</ele>
        <time>2015-10-23T08:12:22Z</time>
      </trkpt>
      <trkpt lat="46.35911" lon="6.0142">
        <ele>1480.57</ele>
        <time>2015-10-23T08:12:24Z</time>
      </trkpt>
      <trkpt lat="46.3591" lon="6.01429">
        <ele>1481.53</ele>
        <time>2015-10-23T08:12:29Z</time>
      </trkpt>
      <trkpt lat="46.35908" lon="6.01432">
        <ele>1482.01</ele>
        <time>2015-10-23T08:12:41Z</time>
      </trkpt>
      <trkpt lat="46.35908" lon="6.01432">
        <ele>1482.01</ele>
        <time>2015-10-23T08:12:59Z</time>
      </trkpt>
      <trkpt lat="46.35908" lon="6.01432">
        <ele>1482.49</ele>
        <time>2015-10-23T08:13:17Z</time>
      </trkpt>
      <trkpt lat="46.35908" lon="6.01431">
        <ele>1482.49</ele>
        <time>2015-10-23T08:13:49Z</time>
      </trkpt>
      <trkpt lat="46.35908" lon="6.01431">
        <ele>1482.49</ele>
        <time>2015-10-23T08:14:11Z</time>
      </trkpt>
      <trkpt lat="46.35906" lon="6.01429">
        <ele>1482.97</ele>
        <time>2015-10-23T08:14:25Z</time>
      </trkpt>
      <trkpt lat="46.35905" lon="6.0143">
        <ele>1483.45</ele>
        <time>2015-10-23T08:14:30Z</time>
      </trkpt>
      <trkpt lat="46.35903" lon="6.01438">
        <ele>1484.41</ele>
        <time>2015-10-23T08:14:37Z</time>
      </trkpt>
      <trkpt lat="46.35902" lon="6.01442">
        <ele>1484.89</ele>
        <time>2015-10-23T08:14:40Z</time>
      </trkpt>
      <trkpt lat="46.35899" lon="6.01458">
        <ele>1487.3</ele>
        <time>2015-10-23T08:14:51Z</time>
      </trkpt>
      <trkpt lat="46.35898" lon="6.01462">
        <ele>1488.26</ele>
        <time>2015-10-23T08:14:54Z</time>
      </trkpt>
      <trkpt lat="46.35898" lon="6.01466">
        <ele>1488.74</ele>
        <time>2015-10-23T08:14:57Z</time>
      </trkpt>
      <trkpt lat="46.35898" lon="6.01479">
        <ele>1490.18</ele>
        <time>2015-10-23T08:15:06Z</time>
      </trkpt>
      <trkpt lat="46.35899" lon="6.01484">
        <ele>1490.66</ele>
        <time>2015-10-23T08:15:09Z</time>
      </trkpt>
      <trkpt lat="46.35899" lon="6.01504">
        <ele>1493.55</ele>
        <time>2015-10-23T08:15:20Z</time>
      </trkpt>
      <trkpt lat="46.35899" lon="6.01506">
        <ele>1493.55</ele>
        <time>2015-10-23T08:15:22Z</time>
      </trkpt>
      <trkpt lat="46.359" lon="6.01509">
        <ele>1494.03</ele>
        <time>2015-10-23T08:15:24Z</time>
      </trkpt>
      <trkpt lat="46.35899" lon="6.01524">
        <ele>1498.83</ele>
        <time>2015-10-23T08:15:35Z</time>
      </trkpt>
      <trkpt lat="46.35899" lon="6.01545">
        <ele>1500.27</ele>
        <time>2015-10-23T08:15:51Z</time>
      </trkpt>
      <trkpt lat="46.35898" lon="6.01548">
        <ele>1500.76</ele>
        <time>2015-10-23T08:15:54Z</time>
      </trkpt>
      <trkpt lat="46.35896" lon="6.01555">
        <ele>1501.72</ele>
        <time>2015-10-23T08:15:59Z</time>
      </trkpt>
      <trkpt lat="46.35896" lon="6.01561">
        <ele>1503.16</ele>
        <time>2015-10-23T08:16:04Z</time>
      </trkpt>
      <trkpt lat="46.35892" lon="6.01579">
        <ele>1505.56</ele>
        <time>2015-10-23T08:16:17Z</time>
      </trkpt>
      <trkpt lat="46.3589" lon="6.01582">
        <ele>1506.04</ele>
        <time>2015-10-23T08:16:19Z</time>
      </trkpt>
      <trkpt lat="46.35889" lon="6.01586">
        <ele>1507</ele>
        <time>2015-10-23T08:16:23Z</time>
      </trkpt>
      <trkpt lat="46.35887" lon="6.01593">
        <ele>1507.97</ele>
        <time>2015-10-23T08:16:28Z</time>
      </trkpt>
      <trkpt lat="46.35877" lon="6.01608">
        <ele>1509.89</ele>
        <time>2015-10-23T08:16:41Z</time>
      </trkpt>
      <trkpt lat="46.35877" lon="6.01619">
        <ele>1511.33</ele>
        <time>2015-10-23T08:16:48Z</time>
      </trkpt>
      <trkpt lat="46.35876" lon="6.01626">
        <ele>1512.77</ele>
        <time>2015-10-23T08:16:54Z</time>
      </trkpt>
      <trkpt lat="46.35868" lon="6.01639">
        <ele>1513.73</ele>
        <time>2015-10-23T08:17:04Z</time>
      </trkpt>
      <trkpt lat="46.35861" lon="6.01656">
        <ele>1515.18</ele>
        <time>2015-10-23T08:17:15Z</time>
      </trkpt>
      <trkpt lat="46.35859" lon="6.01659">
        <ele>1515.66</ele>
        <time>2015-10-23T08:17:18Z</time>
      </trkpt>
      <trkpt lat="46.35857" lon="6.01662">
        <ele>1516.14</ele>
        <time>2015-10-23T08:17:20Z</time>
      </trkpt>
      <trkpt lat="46.35853" lon="6.01672">
        <ele>1517.1</ele>
        <time>2015-10-23T08:17:27Z</time>
      </trkpt>
      <trkpt lat="46.35848" lon="6.01678">
        <ele>1518.06</ele>
        <time>2015-10-23T08:17:35Z</time>
      </trkpt>
      <trkpt lat="46.35846" lon="6.01685">
        <ele>1518.54</ele>
        <time>2015-10-23T08:17:39Z</time>
      </trkpt>
      <trkpt lat="46.35843" lon="6.01692">
        <ele>1519.5</ele>
        <time>2015-10-23T08:17:45Z</time>
      </trkpt>
      <trkpt lat="46.35841" lon="6.01696">
        <ele>1519.98</ele>
        <time>2015-10-23T08:17:48Z</time>
      </trkpt>
      <trkpt lat="46.35838" lon="6.01701">
        <ele>1521.42</ele>
        <time>2015-10-23T08:17:53Z</time>
      </trkpt>
      <trkpt lat="46.35837" lon="6.01704">
        <ele>1521.9</ele>
        <time>2015-10-23T08:17:56Z</time>
      </trkpt>
      <trkpt lat="46.35835" lon="6.01708">
        <ele>1522.87</ele>
        <time>2015-10-23T08:17:59Z</time>
      </trkpt>
      <trkpt lat="46.35833" lon="6.01712">
        <ele>1523.35</ele>
        <time>2015-10-23T08:18:03Z</time>
      </trkpt>
      <trkpt lat="46.35831" lon="6.01716">
        <ele>1523.83</ele>
        <time>2015-10-23T08:18:06Z</time>
      </trkpt>
      <trkpt lat="46.35829" lon="6.01718">
        <ele>1524.79</ele>
        <time>2015-10-23T08:18:09Z</time>
      </trkpt>
      <trkpt lat="46.35828" lon="6.01722">
        <ele>1525.27</ele>
        <time>2015-10-23T08:18:12Z</time>
      </trkpt>
      <trkpt lat="46.35826" lon="6.01725">
        <ele>1525.75</ele>
        <time>2015-10-23T08:18:16Z</time>
      </trkpt>
      <trkpt lat="46.35822" lon="6.01727">
        <ele>1526.23</ele>
        <time>2015-10-23T08:18:19Z</time>
      </trkpt>
      <trkpt lat="46.35818" lon="6.01723">
        <ele>1526.71</ele>
        <time>2015-10-23T08:18:24Z</time>
      </trkpt>
      <trkpt lat="46.35814" lon="6.01713">
        <ele>1526.71</ele>
        <time>2015-10-23T08:18:31Z</time>
      </trkpt>
      <trkpt lat="46.35811" lon="6.01707">
        <ele>1527.19</ele>
        <time>2015-10-23T08:18:36Z</time>
      </trkpt>
      <trkpt lat="46.35806" lon="6.01689">
        <ele>1527.67</ele>
        <time>2015-10-23T08:18:47Z</time>
      </trkpt>
      <trkpt lat="46.35801" lon="6.01678">
        <ele>1528.15</ele>
        <time>2015-10-23T08:18:55Z</time>
      </trkpt>
      <trkpt lat="46.35792" lon="6.01662">
        <ele>1528.15</ele>
        <time>2015-10-23T08:19:08Z</time>
      </trkpt>
      <trkpt lat="46.3578" lon="6.01652">
        <ele>1528.15</ele>
        <time>2015-10-23T08:19:19Z</time>
      </trkpt>
      <trkpt lat="46.35766" lon="6.01644">
        <ele>1529.11</ele>
        <time>2015-10-23T08:19:33Z</time>
      </trkpt>
      <trkpt lat="46.3576" lon="6.01644">
        <ele>1528.63</ele>
        <time>2015-10-23T08:19:38Z</time>
      </trkpt>
      <trkpt lat="46.35752" lon="6.0164">
        <ele>1529.11</ele>
        <time>2015-10-23T08:19:46Z</time>
      </trkpt>
      <trkpt lat="46.35746" lon="6.01636">
        <ele>1528.63</ele>
        <time>2015-10-23T08:19:58Z</time>
      </trkpt>
      <trkpt lat="46.35745" lon="6.01636">
        <ele>1529.59</ele>
        <time>2015-10-23T08:20:19Z</time>
      </trkpt>
      <trkpt lat="46.35744" lon="6.01637">
        <ele>1528.15</ele>
        <time>2015-10-23T08:20:32Z</time>
      </trkpt>
      <trkpt lat="46.35741" lon="6.01626">
        <ele>1524.79</ele>
        <time>2015-10-23T08:20:45Z</time>
      </trkpt>
      <trkpt lat="46.35739" lon="6.01616">
        <ele>1521.9</ele>
        <time>2015-10-23T08:20:58Z</time>
      </trkpt>
      <trkpt lat="46.35736" lon="6.01615">
        <ele>1521.42</ele>
        <time>2015-10-23T08:21:00Z</time>
      </trkpt>
      <trkpt lat="46.35728" lon="6.01614">
        <ele>1519.98</ele>
        <time>2015-10-23T08:21:07Z</time>
      </trkpt>
      <trkpt lat="46.35715" lon="6.01611">
        <ele>1518.06</ele>
        <time>2015-10-23T08:21:20Z</time>
      </trkpt>
      <trkpt lat="46.35713" lon="6.0161">
        <ele>1517.58</ele>
        <time>2015-10-23T08:21:23Z</time>
      </trkpt>
      <trkpt lat="46.35709" lon="6.01609">
        <ele>1516.62</ele>
        <time>2015-10-23T08:21:27Z</time>
      </trkpt>
      <trkpt lat="46.35705" lon="6.01602">
        <ele>1516.62</ele>
        <time>2015-10-23T08:21:32Z</time>
      </trkpt>
      <trkpt lat="46.35699" lon="6.01594">
        <ele>1516.62</ele>
        <time>2015-10-23T08:21:41Z</time>
      </trkpt>
      <trkpt lat="46.35696" lon="6.0159">
        <ele>1516.62</ele>
        <time>2015-10-23T08:21:45Z</time>
      </trkpt>
      <trkpt lat="46.35691" lon="6.01592">
        <ele>1517.58</ele>
        <time>2015-10-23T08:21:50Z</time>
      </trkpt>
      <trkpt lat="46.35687" lon="6.01591">
        <ele>1518.54</ele>
        <time>2015-10-23T08:21:54Z</time>
      </trkpt>
      <trkpt lat="46.35684" lon="6.01587">
        <ele>1519.98</ele>
        <time>2015-10-23T08:22:03Z</time>
      </trkpt>
      <trkpt lat="46.35686" lon="6.0157">
        <ele>1516.62</ele>
        <time>2015-10-23T08:22:16Z</time>
      </trkpt>
      <trkpt lat="46.35686" lon="6.01569">
        <ele>1516.14</ele>
        <time>2015-10-23T08:22:17Z</time>
      </trkpt>
      <trkpt lat="46.35685" lon="6.01562">
        <ele>1514.69</ele>
        <time>2015-10-23T08:22:22Z</time>
      </trkpt>
      <trkpt lat="46.3568" lon="6.01552">
        <ele>1511.33</ele>
        <time>2015-10-23T08:22:32Z</time>
      </trkpt>
      <trkpt lat="46.35679" lon="6.01552">
        <ele>1511.33</ele>
        <time>2015-10-23T08:22:33Z</time>
      </trkpt>
      <trkpt lat="46.35677" lon="6.01553">
        <ele>1511.33</ele>
        <time>2015-10-23T08:22:35Z</time>
      </trkpt>
      <trkpt lat="46.35666" lon="6.01551">
        <ele>1510.37</ele>
        <time>2015-10-23T08:22:43Z</time>
      </trkpt>
      <trkpt lat="46.35664" lon="6.01553">
        <ele>1509.89</ele>
        <time>2015-10-23T08:22:46Z</time>
      </trkpt>
      <trkpt lat="46.35646" lon="6.01553">
        <ele>1512.29</ele>
        <time>2015-10-23T08:23:00Z</time>
      </trkpt>
      <trkpt lat="46.35642" lon="6.01549">
        <ele>1515.18</ele>
        <time>2015-10-23T08:23:08Z</time>
      </trkpt>
      <trkpt lat="46.35638" lon="6.01544">
        <ele>1516.14</ele>
        <time>2015-10-23T08:23:15Z</time>
      </trkpt>
      <trkpt lat="46.35632" lon="6.01543">
        <ele>1517.58</ele>
        <time>2015-10-23T08:23:22Z</time>
      </trkpt>
      <trkpt lat="46.35624" lon="6.01546">
        <ele>1517.58</ele>
        <time>2015-10-23T08:23:28Z</time>
      </trkpt>
      <trkpt lat="46.35613" lon="6.01539">
        <ele>1519.02</ele>
        <time>2015-10-23T08:23:42Z</time>
      </trkpt>
      <trkpt lat="46.3561" lon="6.01538">
        <ele>1519.98</ele>
        <time>2015-10-23T08:23:48Z</time>
      </trkpt>
      <trkpt lat="46.35606" lon="6.01544">
        <ele>1521.9</ele>
        <time>2015-10-23T08:23:54Z</time>
      </trkpt>
      <trkpt lat="46.35604" lon="6.01547">
        <ele>1522.39</ele>
        <time>2015-10-23T08:23:57Z</time>
      </trkpt>
      <trkpt lat="46.35602" lon="6.01553">
        <ele>1523.35</ele>
        <time>2015-10-23T08:24:02Z</time>
      </trkpt>
      <trkpt lat="46.35598" lon="6.01554">
        <ele>1523.35</ele>
        <time>2015-10-23T08:24:06Z</time>
      </trkpt>
      <trkpt lat="46.3559" lon="6.01557">
        <ele>1525.27</ele>
        <time>2015-10-23T08:24:16Z</time>
      </trkpt>
      <trkpt lat="46.35587" lon="6.01552">
        <ele>1526.23</ele>
        <time>2015-10-23T08:24:22Z</time>
      </trkpt>
      <trkpt lat="46.35578" lon="6.01551">
        <ele>1529.11</ele>
        <time>2015-10-23T08:24:35Z</time>
      </trkpt>
      <trkpt lat="46.35577" lon="6.01549">
        <ele>1530.56</ele>
        <time>2015-10-23T08:24:38Z</time>
      </trkpt>
      <trkpt lat="46.35573" lon="6.01547">
        <ele>1531.52</ele>
        <time>2015-10-23T08:24:44Z</time>
      </trkpt>
      <trkpt lat="46.35567" lon="6.01538">
        <ele>1534.4</ele>
        <time>2015-10-23T08:24:56Z</time>
      </trkpt>
      <trkpt lat="46.35564" lon="6.01528">
        <ele>1535.84</ele>
        <time>2015-10-23T08:25:05Z</time>
      </trkpt>
      <trkpt lat="46.3556" lon="6.01523">
        <ele>1536.8</ele>
        <time>2015-10-23T08:25:10Z</time>
      </trkpt>
      <trkpt lat="46.35558" lon="6.01517">
        <ele>1536.8</ele>
        <time>2015-10-23T08:25:21Z</time>
      </trkpt>
      <trkpt lat="46.35558" lon="6.01515">
        <ele>1536.32</ele>
        <time>2015-10-23T08:25:24Z</time>
      </trkpt>
      <trkpt lat="46.35559" lon="6.0151">
        <ele>1533.92</ele>
        <time>2015-10-23T08:25:28Z</time>
      </trkpt>
      <trkpt lat="46.35559" lon="6.01507">
        <ele>1533.44</ele>
        <time>2015-10-23T08:25:30Z</time>
      </trkpt>
      <trkpt lat="46.35558" lon="6.01501">
        <ele>1531.52</ele>
        <time>2015-10-23T08:25:39Z</time>
      </trkpt>
      <trkpt lat="46.35558" lon="6.0149">
        <ele>1528.15</ele>
        <time>2015-10-23T08:25:51Z</time>
      </trkpt>
      <trkpt lat="46.35552" lon="6.01489">
        <ele>1524.79</ele>
        <time>2015-10-23T08:26:01Z</time>
      </trkpt>
      <trkpt lat="46.3555" lon="6.01488">
        <ele>1523.35</ele>
        <time>2015-10-23T08:26:08Z</time>
      </trkpt>
      <trkpt lat="46.35532" lon="6.01478">
        <ele>1521.42</ele>
        <time>2015-10-23T08:26:22Z</time>
      </trkpt>
      <trkpt lat="46.35527" lon="6.01472">
        <ele>1521.42</ele>
        <time>2015-10-23T08:26:37Z</time>
      </trkpt>
      <trkpt lat="46.35528" lon="6.01465">
        <ele>1519.5</ele>
        <time>2015-10-23T08:26:42Z</time>
      </trkpt>
      <trkpt lat="46.35525" lon="6.01446">
        <ele>1517.1</ele>
        <time>2015-10-23T08:26:55Z</time>
      </trkpt>
      <trkpt lat="46.35518" lon="6.0143">
        <ele>1515.66</ele>
        <time>2015-10-23T08:27:07Z</time>
      </trkpt>
      <trkpt lat="46.35516" lon="6.01424">
        <ele>1515.66</ele>
        <time>2015-10-23T08:27:11Z</time>
      </trkpt>
      <trkpt lat="46.35517" lon="6.01414">
        <ele>1515.66</ele>
        <time>2015-10-23T08:27:17Z</time>
      </trkpt>
      <trkpt lat="46.35511" lon="6.01395">
        <ele>1515.66</ele>
        <time>2015-10-23T08:27:29Z</time>
      </trkpt>
      <trkpt lat="46.3551" lon="6.01383">
        <ele>1515.66</ele>
        <time>2015-10-23T08:27:36Z</time>
      </trkpt>
      <trkpt lat="46.35513" lon="6.0137">
        <ele>1517.1</ele>
        <time>2015-10-23T08:27:45Z</time>
      </trkpt>
      <trkpt lat="46.35512" lon="6.01357">
        <ele>1517.58</ele>
        <time>2015-10-23T08:27:52Z</time>
      </trkpt>
      <trkpt lat="46.35509" lon="6.01339">
        <ele>1516.62</ele>
        <time>2015-10-23T08:28:04Z</time>
      </trkpt>
      <trkpt lat="46.35505" lon="6.01329">
        <ele>1518.54</ele>
        <time>2015-10-23T08:28:13Z</time>
      </trkpt>
      <trkpt lat="46.35503" lon="6.01326">
        <ele>1519.98</ele>
        <time>2015-10-23T08:28:17Z</time>
      </trkpt>
      <trkpt lat="46.355" lon="6.01324">
        <ele>1520.94</ele>
        <time>2015-10-23T08:28:21Z</time>
      </trkpt>
      <trkpt lat="46.35491" lon="6.01317">
        <ele>1519.5</ele>
        <time>2015-10-23T08:28:32Z</time>
      </trkpt>
      <trkpt lat="46.35489" lon="6.01312">
        <ele>1519.02</ele>
        <time>2015-10-23T08:28:37Z</time>
      </trkpt>
      <trkpt lat="46.35485" lon="6.01302">
        <ele>1519.98</ele>
        <time>2015-10-23T08:28:44Z</time>
      </trkpt>
      <trkpt lat="46.35477" lon="6.01295">
        <ele>1519.98</ele>
        <time>2015-10-23T08:28:58Z</time>
      </trkpt>
      <trkpt lat="46.35477" lon="6.01294">
        <ele>1520.46</ele>
        <time>2015-10-23T08:28:59Z</time>
      </trkpt>
      <trkpt lat="46.35483" lon="6.01289">
        <ele>1519.5</ele>
        <time>2015-10-23T08:29:06Z</time>
      </trkpt>
      <trkpt lat="46.35488" lon="6.01286">
        <ele>1518.06</ele>
        <time>2015-10-23T08:29:11Z</time>
      </trkpt>
      <trkpt lat="46.35491" lon="6.01285">
        <ele>1517.58</ele>
        <time>2015-10-23T08:29:15Z</time>
      </trkpt>
      <trkpt lat="46.35494" lon="6.01287">
        <ele>1517.1</ele>
        <time>2015-10-23T08:29:18Z</time>
      </trkpt>
      <trkpt lat="46.35496" lon="6.01286">
        <ele>1516.62</ele>
        <time>2015-10-23T08:29:20Z</time>
      </trkpt>
      <trkpt lat="46.35502" lon="6.01271">
        <ele>1514.69</ele>
        <time>2015-10-23T08:29:31Z</time>
      </trkpt>
      <trkpt lat="46.35505" lon="6.01265">
        <ele>1513.73</ele>
        <time>2015-10-23T08:29:35Z</time>
      </trkpt>
      <trkpt lat="46.35508" lon="6.01251">
        <ele>1510.85</ele>
        <time>2015-10-23T08:29:49Z</time>
      </trkpt>
      <trkpt lat="46.35506" lon="6.0124">
        <ele>1508.45</ele>
        <time>2015-10-23T08:30:01Z</time>
      </trkpt>
      <trkpt lat="46.35509" lon="6.01234">
        <ele>1505.56</ele>
        <time>2015-10-23T08:30:15Z</time>
      </trkpt>
      <trkpt lat="46.35511" lon="6.01224">
        <ele>1502.68</ele>
        <time>2015-10-23T08:30:26Z</time>
      </trkpt>
      <trkpt lat="46.35516" lon="6.01213">
        <ele>1500.27</ele>
        <time>2015-10-23T08:30:38Z</time>
      </trkpt>
      <trkpt lat="46.35517" lon="6.01211">
        <ele>1499.79</ele>
        <time>2015-10-23T08:30:40Z</time>
      </trkpt>
      <trkpt lat="46.35513" lon="6.012">
        <ele>1496.43</ele>
        <time>2015-10-23T08:30:51Z</time>
      </trkpt>
      <trkpt lat="46.35516" lon="6.01182">
        <ele>1494.51</ele>
        <time>2015-10-23T08:31:02Z</time>
      </trkpt>
      <trkpt lat="46.3551" lon="6.01167">
        <ele>1496.91</ele>
        <time>2015-10-23T08:31:14Z</time>
      </trkpt>
      <trkpt lat="46.35509" lon="6.01165">
        <ele>1497.39</ele>
        <time>2015-10-23T08:31:16Z</time>
      </trkpt>
      <trkpt lat="46.35499" lon="6.0116">
        <ele>1499.79</ele>
        <time>2015-10-23T08:31:28Z</time>
      </trkpt>
      <trkpt lat="46.35494" lon="6.01158">
        <ele>1500.76</ele>
        <time>2015-10-23T08:31:35Z</time>
      </trkpt>
      <trkpt lat="46.35488" lon="6.01152">
        <ele>1503.16</ele>
        <time>2015-10-23T08:31:46Z</time>
      </trkpt>
      <trkpt lat="46.35488" lon="6.01149">
        <ele>1505.56</ele>
        <time>2015-10-23T08:31:57Z</time>
      </trkpt>
      <trkpt lat="46.35487" lon="6.01149">
        <ele>1506.04</ele>
        <time>2015-10-23T08:31:58Z</time>
      </trkpt>
      <trkpt lat="46.35481" lon="6.01147">
        <ele>1506.04</ele>
        <time>2015-10-23T08:32:03Z</time>
      </trkpt>
      <trkpt lat="46.35475" lon="6.01142">
        <ele>1507</ele>
        <time>2015-10-23T08:32:10Z</time>
      </trkpt>
      <trkpt lat="46.35469" lon="6.01141">
        <ele>1507.48</ele>
        <time>2015-10-23T08:32:15Z</time>
      </trkpt>
      <trkpt lat="46.35459" lon="6.01141">
        <ele>1508.93</ele>
        <time>2015-10-23T08:32:27Z</time>
      </trkpt>
      <trkpt lat="46.35451" lon="6.01136">
        <ele>1510.85</ele>
        <time>2015-10-23T08:32:38Z</time>
      </trkpt>
      <trkpt lat="46.35446" lon="6.01133">
        <ele>1510.85</ele>
        <time>2015-10-23T08:32:44Z</time>
      </trkpt>
      <trkpt lat="46.35438" lon="6.01134">
        <ele>1511.33</ele>
        <time>2015-10-23T08:32:50Z</time>
      </trkpt>
      <trkpt lat="46.35424" lon="6.01134">
        <ele>1511.81</ele>
        <time>2015-10-23T08:33:02Z</time>
      </trkpt>
      <trkpt lat="46.35416" lon="6.01129">
        <ele>1512.77</ele>
        <time>2015-10-23T08:33:10Z</time>
      </trkpt>
      <trkpt lat="46.35409" lon="6.01124">
        <ele>1515.66</ele>
        <time>2015-10-23T08:33:21Z</time>
      </trkpt>
      <trkpt lat="46.35408" lon="6.01124">
        <ele>1515.66</ele>
        <time>2015-10-23T08:33:22Z</time>
      </trkpt>
      <trkpt lat="46.354" lon="6.01111">
        <ele>1517.58</ele>
        <time>2015-10-23T08:33:33Z</time>
      </trkpt>
      <trkpt lat="46.35388" lon="6.01111">
        <ele>1517.58</ele>
        <time>2015-10-23T08:33:44Z</time>
      </trkpt>
      <trkpt lat="46.35387" lon="6.01111">
        <ele>1517.1</ele>
        <time>2015-10-23T08:33:45Z</time>
      </trkpt>
      <trkpt lat="46.35382" lon="6.01103">
        <ele>1517.58</ele>
        <time>2015-10-23T08:33:51Z</time>
      </trkpt>
      <trkpt lat="46.35368" lon="6.01099">
        <ele>1515.66</ele>
        <time>2015-10-23T08:34:04Z</time>
      </trkpt>
      <trkpt lat="46.35358" lon="6.01093">
        <ele>1517.1</ele>
        <time>2015-10-23T08:34:14Z</time>
      </trkpt>
      <trkpt lat="46.35351" lon="6.01094">
        <ele>1519.5</ele>
        <time>2015-10-23T08:34:25Z</time>
      </trkpt>
      <trkpt lat="46.3535" lon="6.01095">
        <ele>1519.98</ele>
        <time>2015-10-23T08:34:26Z</time>
      </trkpt>
      <trkpt lat="46.35347" lon="6.01094">
        <ele>1520.46</ele>
        <time>2015-10-23T08:34:29Z</time>
      </trkpt>
      <trkpt lat="46.35339" lon="6.01093">
        <ele>1522.87</ele>
        <time>2015-10-23T08:34:41Z</time>
      </trkpt>
      <trkpt lat="46.35333" lon="6.01094">
        <ele>1523.35</ele>
        <time>2015-10-23T08:34:47Z</time>
      </trkpt>
      <trkpt lat="46.35327" lon="6.01093">
        <ele>1523.35</ele>
        <time>2015-10-23T08:34:52Z</time>
      </trkpt>
      <trkpt lat="46.35322" lon="6.01089">
        <ele>1523.35</ele>
        <time>2015-10-23T08:34:56Z</time>
      </trkpt>
      <trkpt lat="46.35319" lon="6.01086">
        <ele>1522.87</ele>
        <time>2015-10-23T08:35:00Z</time>
      </trkpt>
      <trkpt lat="46.35312" lon="6.01087">
        <ele>1522.87</ele>
        <time>2015-10-23T08:35:05Z</time>
      </trkpt>
      <trkpt lat="46.3531" lon="6.01086">
        <ele>1523.35</ele>
        <time>2015-10-23T08:35:08Z</time>
      </trkpt>
      <trkpt lat="46.35297" lon="6.01075">
        <ele>1524.79</ele>
        <time>2015-10-23T08:35:21Z</time>
      </trkpt>
      <trkpt lat="46.35294" lon="6.01071">
        <ele>1524.79</ele>
        <time>2015-10-23T08:35:26Z</time>
      </trkpt>
      <trkpt lat="46.35287" lon="6.01071">
        <ele>1525.75</ele>
        <time>2015-10-23T08:35:32Z</time>
      </trkpt>
      <trkpt lat="46.35276" lon="6.01068">
        <ele>1526.23</ele>
        <time>2015-10-23T08:35:44Z</time>
      </trkpt>
      <trkpt lat="46.35271" lon="6.01066">
        <ele>1526.23</ele>
        <time>2015-10-23T08:35:48Z</time>
      </trkpt>
      <trkpt lat="46.35265" lon="6.0106">
        <ele>1526.23</ele>
        <time>2015-10-23T08:35:56Z</time>
      </trkpt>
      <trkpt lat="46.35263" lon="6.01054">
        <ele>1527.19</ele>
        <time>2015-10-23T08:36:00Z</time>
      </trkpt>
      <trkpt lat="46.35254" lon="6.01049">
        <ele>1529.59</ele>
        <time>2015-10-23T08:36:13Z</time>
      </trkpt>
      <trkpt lat="46.3525" lon="6.01044">
        <ele>1531.04</ele>
        <time>2015-10-23T08:36:22Z</time>
      </trkpt>
      <trkpt lat="46.3525" lon="6.01039">
        <ele>1532.96</ele>
        <time>2015-10-23T08:36:29Z</time>
      </trkpt>
      <trkpt lat="46.35247" lon="6.0103">
        <ele>1533.92</ele>
        <time>2015-10-23T08:36:36Z</time>
      </trkpt>
      <trkpt lat="46.35243" lon="6.01026">
        <ele>1535.36</ele>
        <time>2015-10-23T08:36:43Z</time>
      </trkpt>
      <trkpt lat="46.35238" lon="6.01013">
        <ele>1535.36</ele>
        <time>2015-10-23T08:36:55Z</time>
      </trkpt>
      <trkpt lat="46.35235" lon="6.01004">
        <ele>1532.96</ele>
        <time>2015-10-23T08:37:04Z</time>
      </trkpt>
      <trkpt lat="46.35229" lon="6.00999">
        <ele>1530.08</ele>
        <time>2015-10-23T08:37:16Z</time>
      </trkpt>
      <trkpt lat="46.35228" lon="6.00997">
        <ele>1529.59</ele>
        <time>2015-10-23T08:37:21Z</time>
      </trkpt>
      <trkpt lat="46.35223" lon="6.00993">
        <ele>1526.71</ele>
        <time>2015-10-23T08:37:27Z</time>
      </trkpt>
      <trkpt lat="46.35212" lon="6.00992">
        <ele>1524.79</ele>
        <time>2015-10-23T08:37:37Z</time>
      </trkpt>
      <trkpt lat="46.352" lon="6.00998">
        <ele>1524.79</ele>
        <time>2015-10-23T08:37:48Z</time>
      </trkpt>
      <trkpt lat="46.35198" lon="6.00997">
        <ele>1525.27</ele>
        <time>2015-10-23T08:37:50Z</time>
      </trkpt>
      <trkpt lat="46.35183" lon="6.00987">
        <ele>1523.83</ele>
        <time>2015-10-23T08:38:03Z</time>
      </trkpt>
      <trkpt lat="46.3517" lon="6.00986">
        <ele>1521.9</ele>
        <time>2015-10-23T08:38:14Z</time>
      </trkpt>
      <trkpt lat="46.35167" lon="6.00988">
        <ele>1521.9</ele>
        <time>2015-10-23T08:38:17Z</time>
      </trkpt>
      <trkpt lat="46.35161" lon="6.00994">
        <ele>1520.94</ele>
        <time>2015-10-23T08:38:24Z</time>
      </trkpt>
      <trkpt lat="46.35159" lon="6.00995">
        <ele>1519.98</ele>
        <time>2015-10-23T08:38:26Z</time>
      </trkpt>
      <trkpt lat="46.35156" lon="6.00998">
        <ele>1519.02</ele>
        <time>2015-10-23T08:38:30Z</time>
      </trkpt>
      <trkpt lat="46.35146" lon="6.01005">
        <ele>1516.62</ele>
        <time>2015-10-23T08:38:40Z</time>
      </trkpt>
      <trkpt lat="46.35141" lon="6.01007">
        <ele>1514.69</ele>
        <time>2015-10-23T08:38:46Z</time>
      </trkpt>
      <trkpt lat="46.35134" lon="6.01008">
        <ele>1512.77</ele>
        <time>2015-10-23T08:38:53Z</time>
      </trkpt>
      <trkpt lat="46.35127" lon="6.01007">
        <ele>1512.29</ele>
        <time>2015-10-23T08:38:57Z</time>
      </trkpt>
      <trkpt lat="46.35123" lon="6.01006">
        <ele>1511.81</ele>
        <time>2015-10-23T08:39:02Z</time>
      </trkpt>
      <trkpt lat="46.35121" lon="6.01005">
        <ele>1511.33</ele>
        <time>2015-10-23T08:39:04Z</time>
      </trkpt>
      <trkpt lat="46.35112" lon="6.01001">
        <ele>1509.89</ele>
        <time>2015-10-23T08:39:12Z</time>
      </trkpt>
      <trkpt lat="46.35105" lon="6.01002">
        <ele>1508.45</ele>
        <time>2015-10-23T08:39:19Z</time>
      </trkpt>
      <trkpt lat="46.35099" lon="6.00998">
        <ele>1505.56</ele>
        <time>2015-10-23T08:39:28Z</time>
      </trkpt>
      <trkpt lat="46.35096" lon="6.00994">
        <ele>1504.12</ele>
        <time>2015-10-23T08:39:33Z</time>
      </trkpt>
      <trkpt lat="46.35094" lon="6.00989">
        <ele>1502.68</ele>
        <time>2015-10-23T08:39:38Z</time>
      </trkpt>
      <trkpt lat="46.35093" lon="6.00983">
        <ele>1502.2</ele>
        <time>2015-10-23T08:39:43Z</time>
      </trkpt>
      <trkpt lat="46.35096" lon="6.00961">
        <ele>1500.76</ele>
        <time>2015-10-23T08:39:56Z</time>
      </trkpt>
      <trkpt lat="46.35098" lon="6.00955">
        <ele>1500.76</ele>
        <time>2015-10-23T08:40:00Z</time>
      </trkpt>
      <trkpt lat="46.35101" lon="6.00936">
        <ele>1499.79</ele>
        <time>2015-10-23T08:40:12Z</time>
      </trkpt>
      <trkpt lat="46.35101" lon="6.00934">
        <ele>1499.31</ele>
        <time>2015-10-23T08:40:14Z</time>
      </trkpt>
      <trkpt lat="46.35106" lon="6.00914">
        <ele>1495.95</ele>
        <time>2015-10-23T08:40:28Z</time>
      </trkpt>
      <trkpt lat="46.35104" lon="6.00901">
        <ele>1493.06</ele>
        <time>2015-10-23T08:40:41Z</time>
      </trkpt>
      <trkpt lat="46.35104" lon="6.00893">
        <ele>1491.14</ele>
        <time>2015-10-23T08:40:53Z</time>
      </trkpt>
      <trkpt lat="46.35104" lon="6.00889">
        <ele>1490.66</ele>
        <time>2015-10-23T08:40:57Z</time>
      </trkpt>
      <trkpt lat="46.35109" lon="6.00873">
        <ele>1488.74</ele>
        <time>2015-10-23T08:41:09Z</time>
      </trkpt>
      <trkpt lat="46.35111" lon="6.00862">
        <ele>1487.3</ele>
        <time>2015-10-23T08:41:16Z</time>
      </trkpt>
      <trkpt lat="46.35119" lon="6.0085">
        <ele>1484.89</ele>
        <time>2015-10-23T08:41:26Z</time>
      </trkpt>
      <trkpt lat="46.35124" lon="6.00838">
        <ele>1483.45</ele>
        <time>2015-10-23T08:41:34Z</time>
      </trkpt>
      <trkpt lat="46.35129" lon="6.00832">
        <ele>1482.97</ele>
        <time>2015-10-23T08:41:39Z</time>
      </trkpt>
      <trkpt lat="46.35135" lon="6.00818">
        <ele>1482.49</ele>
        <time>2015-10-23T08:41:48Z</time>
      </trkpt>
      <trkpt lat="46.35137" lon="6.0081">
        <ele>1482.49</ele>
        <time>2015-10-23T08:41:52Z</time>
      </trkpt>
      <trkpt lat="46.35138" lon="6.00805">
        <ele>1481.53</ele>
        <time>2015-10-23T08:41:57Z</time>
      </trkpt>
      <trkpt lat="46.35137" lon="6.00798">
        <ele>1481.05</ele>
        <time>2015-10-23T08:42:02Z</time>
      </trkpt>
      <trkpt lat="46.3513" lon="6.00792">
        <ele>1480.09</ele>
        <time>2015-10-23T08:42:09Z</time>
      </trkpt>
      <trkpt lat="46.35127" lon="6.00793">
        <ele>1479.61</ele>
        <time>2015-10-23T08:42:11Z</time>
      </trkpt>
      <trkpt lat="46.35122" lon="6.00793">
        <ele>1478.16</ele>
        <time>2015-10-23T08:42:19Z</time>
      </trkpt>
      <trkpt lat="46.35122" lon="6.00786">
        <ele>1477.2</ele>
        <time>2015-10-23T08:42:24Z</time>
      </trkpt>
      <trkpt lat="46.35116" lon="6.00772">
        <ele>1475.76</ele>
        <time>2015-10-23T08:42:35Z</time>
      </trkpt>
      <trkpt lat="46.35112" lon="6.00768">
        <ele>1474.8</ele>
        <time>2015-10-23T08:42:40Z</time>
      </trkpt>
      <trkpt lat="46.35104" lon="6.00761">
        <ele>1474.8</ele>
        <time>2015-10-23T08:42:47Z</time>
      </trkpt>
      <trkpt lat="46.35096" lon="6.0075">
        <ele>1474.8</ele>
        <time>2015-10-23T08:42:57Z</time>
      </trkpt>
      <trkpt lat="46.35093" lon="6.00747">
        <ele>1474.32</ele>
        <time>2015-10-23T08:43:11Z</time>
      </trkpt>
      <trkpt lat="46.35096" lon="6.00756">
        <ele>1474.8</ele>
        <time>2015-10-23T08:44:25Z</time>
      </trkpt>
      <trkpt lat="46.35094" lon="6.00753">
        <ele>1474.8</ele>
        <time>2015-10-23T08:44:26Z</time>
      </trkpt>
      <trkpt lat="46.35088" lon="6.00748">
        <ele>1473.84</ele>
        <time>2015-10-23T08:44:36Z</time>
      </trkpt>
      <trkpt lat="46.35074" lon="6.00733">
        <ele>1474.32</ele>
        <time>2015-10-23T08:44:49Z</time>
      </trkpt>
      <trkpt lat="46.35072" lon="6.00731">
        <ele>1474.32</ele>
        <time>2015-10-23T08:44:51Z</time>
      </trkpt>
      <trkpt lat="46.35066" lon="6.00715">
        <ele>1475.76</ele>
        <time>2015-10-23T08:45:03Z</time>
      </trkpt>
      <trkpt lat="46.35062" lon="6.00704">
        <ele>1476.24</ele>
        <time>2015-10-23T08:45:11Z</time>
      </trkpt>
      <trkpt lat="46.35059" lon="6.00701">
        <ele>1477.2</ele>
        <time>2015-10-23T08:45:14Z</time>
      </trkpt>
      <trkpt lat="46.35054" lon="6.00694">
        <ele>1479.61</ele>
        <time>2015-10-23T08:45:23Z</time>
      </trkpt>
      <trkpt lat="46.35053" lon="6.00691">
        <ele>1479.61</ele>
        <time>2015-10-23T08:45:26Z</time>
      </trkpt>
      <trkpt lat="46.3505" lon="6.00682">
        <ele>1482.97</ele>
        <time>2015-10-23T08:45:35Z</time>
      </trkpt>
      <trkpt lat="46.35048" lon="6.00675">
        <ele>1483.45</ele>
        <time>2015-10-23T08:45:41Z</time>
      </trkpt>
      <trkpt lat="46.35045" lon="6.00666">
        <ele>1485.37</ele>
        <time>2015-10-23T08:45:51Z</time>
      </trkpt>
      <trkpt lat="46.35043" lon="6.00654">
        <ele>1486.82</ele>
        <time>2015-10-23T08:46:03Z</time>
      </trkpt>
      <trkpt lat="46.35042" lon="6.00651">
        <ele>1489.22</ele>
        <time>2015-10-23T08:46:14Z</time>
      </trkpt>
      <trkpt lat="46.35042" lon="6.0065">
        <ele>1488.74</ele>
        <time>2015-10-23T08:46:26Z</time>
      </trkpt>
      <trkpt lat="46.35038" lon="6.00637">
        <ele>1491.62</ele>
        <time>2015-10-23T08:46:38Z</time>
      </trkpt>
      <trkpt lat="46.35038" lon="6.00636">
        <ele>1491.62</ele>
        <time>2015-10-23T08:46:41Z</time>
      </trkpt>
      <trkpt lat="46.35038" lon="6.00631">
        <ele>1492.58</ele>
        <time>2015-10-23T08:46:45Z</time>
      </trkpt>
      <trkpt lat="46.35037" lon="6.0063">
        <ele>1492.1</ele>
        <time>2015-10-23T08:46:47Z</time>
      </trkpt>
      <trkpt lat="46.35032" lon="6.00623">
        <ele>1495.95</ele>
        <time>2015-10-23T08:46:58Z</time>
      </trkpt>
      <trkpt lat="46.35028" lon="6.00609">
        <ele>1497.39</ele>
        <time>2015-10-23T08:47:10Z</time>
      </trkpt>
      <trkpt lat="46.35027" lon="6.00606">
        <ele>1498.83</ele>
        <time>2015-10-23T08:47:22Z</time>
      </trkpt>
      <trkpt lat="46.35024" lon="6.00598">
        <ele>1499.79</ele>
        <time>2015-10-23T08:47:38Z</time>
      </trkpt>
      <trkpt lat="46.35023" lon="6.00595">
        <ele>1499.79</ele>
        <time>2015-10-23T08:47:41Z</time>
      </trkpt>
      <trkpt lat="46.35022" lon="6.00585">
        <ele>1502.68</ele>
        <time>2015-10-23T08:47:53Z</time>
      </trkpt>
      <trkpt lat="46.35019" lon="6.00575">
        <ele>1505.08</ele>
        <time>2015-10-23T08:48:05Z</time>
      </trkpt>
      <trkpt lat="46.35016" lon="6.00571">
        <ele>1507.48</ele>
        <time>2015-10-23T08:48:13Z</time>
      </trkpt>
      <trkpt lat="46.35015" lon="6.00563">
        <ele>1508.93</ele>
        <time>2015-10-23T08:48:24Z</time>
      </trkpt>
      <trkpt lat="46.35015" lon="6.00562">
        <ele>1508.93</ele>
        <time>2015-10-23T08:48:25Z</time>
      </trkpt>
      <trkpt lat="46.35014" lon="6.00555">
        <ele>1509.41</ele>
        <time>2015-10-23T08:48:30Z</time>
      </trkpt>
      <trkpt lat="46.3501" lon="6.0055">
        <ele>1511.81</ele>
        <time>2015-10-23T08:48:41Z</time>
      </trkpt>
      <trkpt lat="46.35011" lon="6.00544">
        <ele>1512.29</ele>
        <time>2015-10-23T08:48:51Z</time>
      </trkpt>
      <trkpt lat="46.35013" lon="6.00541">
        <ele>1511.33</ele>
        <time>2015-10-23T08:48:55Z</time>
      </trkpt>
      <trkpt lat="46.35014" lon="6.00539">
        <ele>1510.85</ele>
        <time>2015-10-23T08:48:57Z</time>
      </trkpt>
      <trkpt lat="46.35014" lon="6.00536">
        <ele>1510.85</ele>
        <time>2015-10-23T08:48:59Z</time>
      </trkpt>
      <trkpt lat="46.35011" lon="6.00528">
        <ele>1512.29</ele>
        <time>2015-10-23T08:49:11Z</time>
      </trkpt>
      <trkpt lat="46.35008" lon="6.00521">
        <ele>1513.25</ele>
        <time>2015-10-23T08:49:22Z</time>
      </trkpt>
      <trkpt lat="46.35005" lon="6.00513">
        <ele>1513.73</ele>
        <time>2015-10-23T08:49:28Z</time>
      </trkpt>
      <trkpt lat="46.35005" lon="6.0051">
        <ele>1514.21</ele>
        <time>2015-10-23T08:49:31Z</time>
      </trkpt>
      <trkpt lat="46.35" lon="6.00503">
        <ele>1514.69</ele>
        <time>2015-10-23T08:49:38Z</time>
      </trkpt>
      <trkpt lat="46.34997" lon="6.00497">
        <ele>1515.18</ele>
        <time>2015-10-23T08:49:42Z</time>
      </trkpt>
      <trkpt lat="46.34995" lon="6.00493">
        <ele>1515.66</ele>
        <time>2015-10-23T08:49:46Z</time>
      </trkpt>
      <trkpt lat="46.34994" lon="6.00481">
        <ele>1515.66</ele>
        <time>2015-10-23T08:49:54Z</time>
      </trkpt>
      <trkpt lat="46.34991" lon="6.00475">
        <ele>1516.62</ele>
        <time>2015-10-23T08:49:59Z</time>
      </trkpt>
      <trkpt lat="46.34987" lon="6.00469">
        <ele>1517.58</ele>
        <time>2015-10-23T08:50:06Z</time>
      </trkpt>
      <trkpt lat="46.34985" lon="6.00465">
        <ele>1518.54</ele>
        <time>2015-10-23T08:50:09Z</time>
      </trkpt>
      <trkpt lat="46.34978" lon="6.00459">
        <ele>1520.46</ele>
        <time>2015-10-23T08:50:20Z</time>
      </trkpt>
      <trkpt lat="46.34977" lon="6.00459">
        <ele>1520.94</ele>
        <time>2015-10-23T08:50:21Z</time>
      </trkpt>
      <trkpt lat="46.34974" lon="6.00456">
        <ele>1522.39</ele>
        <time>2015-10-23T08:50:27Z</time>
      </trkpt>
      <trkpt lat="46.3497" lon="6.00455">
        <ele>1522.87</ele>
        <time>2015-10-23T08:50:31Z</time>
      </trkpt>
      <trkpt lat="46.34967" lon="6.00451">
        <ele>1522.87</ele>
        <time>2015-10-23T08:50:35Z</time>
      </trkpt>
      <trkpt lat="46.34962" lon="6.00448">
        <ele>1523.35</ele>
        <time>2015-10-23T08:50:39Z</time>
      </trkpt>
      <trkpt lat="46.34959" lon="6.00446">
        <ele>1524.31</ele>
        <time>2015-10-23T08:50:42Z</time>
      </trkpt>
      <trkpt lat="46.34955" lon="6.00447">
        <ele>1525.75</ele>
        <time>2015-10-23T08:50:47Z</time>
      </trkpt>
      <trkpt lat="46.34954" lon="6.00445">
        <ele>1525.75</ele>
        <time>2015-10-23T08:50:49Z</time>
      </trkpt>
      <trkpt lat="46.34948" lon="6.00443">
        <ele>1527.67</ele>
        <time>2015-10-23T08:50:57Z</time>
      </trkpt>
      <trkpt lat="46.34943" lon="6.00439">
        <ele>1528.15</ele>
        <time>2015-10-23T08:51:03Z</time>
      </trkpt>
      <trkpt lat="46.34941" lon="6.00438">
        <ele>1528.15</ele>
        <time>2015-10-23T08:51:06Z</time>
      </trkpt>
      <trkpt lat="46.34936" lon="6.00437">
        <ele>1529.59</ele>
        <time>2015-10-23T08:51:12Z</time>
      </trkpt>
      <trkpt lat="46.34934" lon="6.00437">
        <ele>1529.59</ele>
        <time>2015-10-23T08:51:15Z</time>
      </trkpt>
      <trkpt lat="46.34929" lon="6.00435">
        <ele>1532</ele>
        <time>2015-10-23T08:51:24Z</time>
      </trkpt>
      <trkpt lat="46.34928" lon="6.0043">
        <ele>1533.44</ele>
        <time>2015-10-23T08:51:30Z</time>
      </trkpt>
      <trkpt lat="46.34924" lon="6.0043">
        <ele>1534.88</ele>
        <time>2015-10-23T08:51:36Z</time>
      </trkpt>
      <trkpt lat="46.34922" lon="6.00432">
        <ele>1536.32</ele>
        <time>2015-10-23T08:51:39Z</time>
      </trkpt>
      <trkpt lat="46.34919" lon="6.00427">
        <ele>1537.29</ele>
        <time>2015-10-23T08:51:44Z</time>
      </trkpt>
      <trkpt lat="46.34916" lon="6.00427">
        <ele>1539.21</ele>
        <time>2015-10-23T08:51:51Z</time>
      </trkpt>
      <trkpt lat="46.34914" lon="6.00425">
        <ele>1539.69</ele>
        <time>2015-10-23T08:51:54Z</time>
      </trkpt>
      <trkpt lat="46.34913" lon="6.00421">
        <ele>1540.17</ele>
        <time>2015-10-23T08:51:57Z</time>
      </trkpt>
      <trkpt lat="46.34912" lon="6.00417">
        <ele>1540.65</ele>
        <time>2015-10-23T08:52:00Z</time>
      </trkpt>
      <trkpt lat="46.34906" lon="6.00412">
        <ele>1542.09</ele>
        <time>2015-10-23T08:52:11Z</time>
      </trkpt>
      <trkpt lat="46.34901" lon="6.00405">
        <ele>1541.61</ele>
        <time>2015-10-23T08:52:23Z</time>
      </trkpt>
      <trkpt lat="46.34896" lon="6.00391">
        <ele>1542.09</ele>
        <time>2015-10-23T08:52:34Z</time>
      </trkpt>
      <trkpt lat="46.34895" lon="6.0039">
        <ele>1541.61</ele>
        <time>2015-10-23T08:52:35Z</time>
      </trkpt>
      <trkpt lat="46.34893" lon="6.00388">
        <ele>1541.13</ele>
        <time>2015-10-23T08:52:46Z</time>
      </trkpt>
      <trkpt lat="46.34887" lon="6.00392">
        <ele>1543.05</ele>
        <time>2015-10-23T08:52:53Z</time>
      </trkpt>
      <trkpt lat="46.34883" lon="6.00396">
        <ele>1544.5</ele>
        <time>2015-10-23T08:52:58Z</time>
      </trkpt>
      <trkpt lat="46.3488" lon="6.00402">
        <ele>1545.46</ele>
        <time>2015-10-23T08:53:03Z</time>
      </trkpt>
      <trkpt lat="46.34876" lon="6.00413">
        <ele>1547.86</ele>
        <time>2015-10-23T08:53:14Z</time>
      </trkpt>
      <trkpt lat="46.34873" lon="6.00416">
        <ele>1548.82</ele>
        <time>2015-10-23T08:53:18Z</time>
      </trkpt>
      <trkpt lat="46.3487" lon="6.0042">
        <ele>1549.78</ele>
        <time>2015-10-23T08:53:22Z</time>
      </trkpt>
      <trkpt lat="46.34865" lon="6.00428">
        <ele>1551.71</ele>
        <time>2015-10-23T08:53:29Z</time>
      </trkpt>
      <trkpt lat="46.34862" lon="6.00434">
        <ele>1553.15</ele>
        <time>2015-10-23T08:53:41Z</time>
      </trkpt>
      <trkpt lat="46.34862" lon="6.00434">
        <ele>1552.67</ele>
        <time>2015-10-23T08:54:10Z</time>
      </trkpt>
      <trkpt lat="46.34861" lon="6.00435">
        <ele>1553.63</ele>
        <time>2015-10-23T08:54:22Z</time>
      </trkpt>
      <trkpt lat="46.34857" lon="6.00442">
        <ele>1554.59</ele>
        <time>2015-10-23T08:54:27Z</time>
      </trkpt>
      <trkpt lat="46.34852" lon="6.00459">
        <ele>1556.03</ele>
        <time>2015-10-23T08:54:37Z</time>
      </trkpt>
      <trkpt lat="46.34852" lon="6.00464">
        <ele>1557.47</ele>
        <time>2015-10-23T08:54:41Z</time>
      </trkpt>
      <trkpt lat="46.34856" lon="6.00483">
        <ele>1559.4</ele>
        <time>2015-10-23T08:54:52Z</time>
      </trkpt>
      <trkpt lat="46.34857" lon="6.00484">
        <ele>1559.4</ele>
        <time>2015-10-23T08:54:53Z</time>
      </trkpt>
      <trkpt lat="46.34857" lon="6.00487">
        <ele>1560.36</ele>
        <time>2015-10-23T08:54:57Z</time>
      </trkpt>
      <trkpt lat="46.34855" lon="6.00491">
        <ele>1560.84</ele>
        <time>2015-10-23T08:55:07Z</time>
      </trkpt>
      <trkpt lat="46.34855" lon="6.00491">
        <ele>1561.32</ele>
        <time>2015-10-23T08:55:36Z</time>
      </trkpt>
      <trkpt lat="46.34854" lon="6.00494">
        <ele>1562.76</ele>
        <time>2015-10-23T08:56:01Z</time>
      </trkpt>
      <trkpt lat="46.34854" lon="6.005">
        <ele>1564.2</ele>
        <time>2015-10-23T08:56:06Z</time>
      </trkpt>
      <trkpt lat="46.34855" lon="6.00502">
        <ele>1564.2</ele>
        <time>2015-10-23T08:56:08Z</time>
      </trkpt>
      <trkpt lat="46.34857" lon="6.00509">
        <ele>1565.64</ele>
        <time>2015-10-23T08:56:14Z</time>
      </trkpt>
      <trkpt lat="46.34859" lon="6.00515">
        <ele>1566.12</ele>
        <time>2015-10-23T08:56:19Z</time>
      </trkpt>
      <trkpt lat="46.34858" lon="6.00522">
        <ele>1568.53</ele>
        <time>2015-10-23T08:56:24Z</time>
      </trkpt>
      <trkpt lat="46.34856" lon="6.00528">
        <ele>1569.97</ele>
        <time>2015-10-23T08:56:31Z</time>
      </trkpt>
      <trkpt lat="46.34856" lon="6.00531">
        <ele>1569.97</ele>
        <time>2015-10-23T08:56:34Z</time>
      </trkpt>
      <trkpt lat="46.34852" lon="6.00539">
        <ele>1572.85</ele>
        <time>2015-10-23T08:56:44Z</time>
      </trkpt>
      <trkpt lat="46.34851" lon="6.00543">
        <ele>1574.3</ele>
        <time>2015-10-23T08:56:48Z</time>
      </trkpt>
      <trkpt lat="46.34847" lon="6.00549">
        <ele>1575.74</ele>
        <time>2015-10-23T08:56:55Z</time>
      </trkpt>
      <trkpt lat="46.34843" lon="6.00557">
        <ele>1578.62</ele>
        <time>2015-10-23T08:57:04Z</time>
      </trkpt>
      <trkpt lat="46.34841" lon="6.00559">
        <ele>1579.58</ele>
        <time>2015-10-23T08:57:08Z</time>
      </trkpt>
      <trkpt lat="46.34837" lon="6.0056">
        <ele>1580.54</ele>
        <time>2015-10-23T08:57:12Z</time>
      </trkpt>
      <trkpt lat="46.34835" lon="6.00559">
        <ele>1581.03</ele>
        <time>2015-10-23T08:57:14Z</time>
      </trkpt>
      <trkpt lat="46.34832" lon="6.00573">
        <ele>1581.99</ele>
        <time>2015-10-23T08:57:25Z</time>
      </trkpt>
      <trkpt lat="46.34833" lon="6.0058">
        <ele>1583.43</ele>
        <time>2015-10-23T08:57:30Z</time>
      </trkpt>
      <trkpt lat="46.34833" lon="6.00581">
        <ele>1583.43</ele>
        <time>2015-10-23T08:57:31Z</time>
      </trkpt>
      <trkpt lat="46.34828" lon="6.00592">
        <ele>1584.87</ele>
        <time>2015-10-23T08:57:40Z</time>
      </trkpt>
      <trkpt lat="46.34828" lon="6.00594">
        <ele>1584.87</ele>
        <time>2015-10-23T08:57:42Z</time>
      </trkpt>
      <trkpt lat="46.34828" lon="6.00598">
        <ele>1585.83</ele>
        <time>2015-10-23T08:57:45Z</time>
      </trkpt>
      <trkpt lat="46.34825" lon="6.00602">
        <ele>1586.79</ele>
        <time>2015-10-23T08:57:49Z</time>
      </trkpt>
      <trkpt lat="46.34824" lon="6.00604">
        <ele>1587.27</ele>
        <time>2015-10-23T08:57:51Z</time>
      </trkpt>
      <trkpt lat="46.34823" lon="6.00609">
        <ele>1587.75</ele>
        <time>2015-10-23T08:57:55Z</time>
      </trkpt>
      <trkpt lat="46.34817" lon="6.00618">
        <ele>1590.16</ele>
        <time>2015-10-23T08:58:05Z</time>
      </trkpt>
      <trkpt lat="46.34815" lon="6.00619">
        <ele>1590.64</ele>
        <time>2015-10-23T08:58:08Z</time>
      </trkpt>
      <trkpt lat="46.3481" lon="6.0062">
        <ele>1592.56</ele>
        <time>2015-10-23T08:58:20Z</time>
      </trkpt>
      <trkpt lat="46.3481" lon="6.0062">
        <ele>1592.56</ele>
        <time>2015-10-23T08:58:21Z</time>
      </trkpt>
      <trkpt lat="46.34807" lon="6.00621">
        <ele>1593.52</ele>
        <time>2015-10-23T08:58:25Z</time>
      </trkpt>
      <trkpt lat="46.34804" lon="6.00626">
        <ele>1594</ele>
        <time>2015-10-23T08:58:29Z</time>
      </trkpt>
      <trkpt lat="46.34803" lon="6.00629">
        <ele>1594.96</ele>
        <time>2015-10-23T08:58:31Z</time>
      </trkpt>
      <trkpt lat="46.34802" lon="6.00633">
        <ele>1595.45</ele>
        <time>2015-10-23T08:58:35Z</time>
      </trkpt>
      <trkpt lat="46.34802" lon="6.00636">
        <ele>1595.45</ele>
        <time>2015-10-23T08:58:50Z</time>
      </trkpt>
      <trkpt lat="46.34802" lon="6.00636">
        <ele>1595.93</ele>
        <time>2015-10-23T08:59:05Z</time>
      </trkpt>
      <trkpt lat="46.34803" lon="6.00635">
        <ele>1595.45</ele>
        <time>2015-10-23T08:59:27Z</time>
      </trkpt>
      <trkpt lat="46.34806" lon="6.00631">
        <ele>1595.93</ele>
        <time>2015-10-23T08:59:41Z</time>
      </trkpt>
      <trkpt lat="46.34814" lon="6.00632">
        <ele>1596.41</ele>
        <time>2015-10-23T09:02:13Z</time>
      </trkpt>
      <trkpt lat="46.34809" lon="6.00624">
        <ele>1595.93</ele>
        <time>2015-10-23T09:02:14Z</time>
      </trkpt>
      <trkpt lat="46.34807" lon="6.00623">
        <ele>1593.52</ele>
        <time>2015-10-23T09:02:27Z</time>
      </trkpt>
      <trkpt lat="46.34806" lon="6.00624">
        <ele>1594.96</ele>
        <time>2015-10-23T09:02:30Z</time>
      </trkpt>
      <trkpt lat="46.34798" lon="6.00621">
        <ele>1595.45</ele>
        <time>2015-10-23T09:02:41Z</time>
      </trkpt>
      <trkpt lat="46.34796" lon="6.00617">
        <ele>1594.96</ele>
        <time>2015-10-23T09:02:45Z</time>
      </trkpt>
      <trkpt lat="46.34784" lon="6.00605">
        <ele>1594.48</ele>
        <time>2015-10-23T09:02:56Z</time>
      </trkpt>
      <trkpt lat="46.3478" lon="6.00601">
        <ele>1594.48</ele>
        <time>2015-10-23T09:03:01Z</time>
      </trkpt>
      <trkpt lat="46.34766" lon="6.00596">
        <ele>1593.04</ele>
        <time>2015-10-23T09:03:14Z</time>
      </trkpt>
      <trkpt lat="46.3476" lon="6.00597">
        <ele>1592.08</ele>
        <time>2015-10-23T09:03:19Z</time>
      </trkpt>
      <trkpt lat="46.34757" lon="6.00596">
        <ele>1591.12</ele>
        <time>2015-10-23T09:03:22Z</time>
      </trkpt>
      <trkpt lat="46.34755" lon="6.00596">
        <ele>1590.16</ele>
        <time>2015-10-23T09:03:24Z</time>
      </trkpt>
      <trkpt lat="46.34743" lon="6.00592">
        <ele>1587.75</ele>
        <time>2015-10-23T09:03:36Z</time>
      </trkpt>
      <trkpt lat="46.3474" lon="6.0059">
        <ele>1587.75</ele>
        <time>2015-10-23T09:03:39Z</time>
      </trkpt>
      <trkpt lat="46.34728" lon="6.00585">
        <ele>1587.27</ele>
        <time>2015-10-23T09:03:49Z</time>
      </trkpt>
      <trkpt lat="46.34725" lon="6.0058">
        <ele>1586.79</ele>
        <time>2015-10-23T09:03:54Z</time>
      </trkpt>
      <trkpt lat="46.34721" lon="6.00573">
        <ele>1587.75</ele>
        <time>2015-10-23T09:03:59Z</time>
      </trkpt>
      <trkpt lat="46.34717" lon="6.00572">
        <ele>1589.68</ele>
        <time>2015-10-23T09:04:07Z</time>
      </trkpt>
      <trkpt lat="46.34715" lon="6.00575">
        <ele>1591.12</ele>
        <time>2015-10-23T09:04:10Z</time>
      </trkpt>
      <trkpt lat="46.34711" lon="6.0058">
        <ele>1592.08</ele>
        <time>2015-10-23T09:04:17Z</time>
      </trkpt>
      <trkpt lat="46.34708" lon="6.00581">
        <ele>1593.04</ele>
        <time>2015-10-23T09:04:20Z</time>
      </trkpt>
      <trkpt lat="46.34704" lon="6.0058">
        <ele>1594</ele>
        <time>2015-10-23T09:04:24Z</time>
      </trkpt>
      <trkpt lat="46.34701" lon="6.0058">
        <ele>1594.48</ele>
        <time>2015-10-23T09:04:27Z</time>
      </trkpt>
      <trkpt lat="46.34696" lon="6.00579">
        <ele>1595.45</ele>
        <time>2015-10-23T09:04:32Z</time>
      </trkpt>
      <trkpt lat="46.34694" lon="6.00576">
        <ele>1595.93</ele>
        <time>2015-10-23T09:04:35Z</time>
      </trkpt>
      <trkpt lat="46.34691" lon="6.00574">
        <ele>1596.89</ele>
        <time>2015-10-23T09:04:38Z</time>
      </trkpt>
      <trkpt lat="46.34686" lon="6.0057">
        <ele>1596.41</ele>
        <time>2015-10-23T09:04:45Z</time>
      </trkpt>
      <trkpt lat="46.34679" lon="6.00568">
        <ele>1595.93</ele>
        <time>2015-10-23T09:04:51Z</time>
      </trkpt>
      <trkpt lat="46.34669" lon="6.00563">
        <ele>1594.48</ele>
        <time>2015-10-23T09:05:00Z</time>
      </trkpt>
      <trkpt lat="46.34664" lon="6.00557">
        <ele>1594.96</ele>
        <time>2015-10-23T09:05:05Z</time>
      </trkpt>
      <trkpt lat="46.3465" lon="6.00545">
        <ele>1593.04</ele>
        <time>2015-10-23T09:05:17Z</time>
      </trkpt>
      <trkpt lat="46.34639" lon="6.00536">
        <ele>1591.6</ele>
        <time>2015-10-23T09:05:28Z</time>
      </trkpt>
      <trkpt lat="46.34632" lon="6.00523">
        <ele>1590.16</ele>
        <time>2015-10-23T09:05:39Z</time>
      </trkpt>
      <trkpt lat="46.34627" lon="6.00519">
        <ele>1589.2</ele>
        <time>2015-10-23T09:05:45Z</time>
      </trkpt>
      <trkpt lat="46.34618" lon="6.00507">
        <ele>1588.72</ele>
        <time>2015-10-23T09:05:54Z</time>
      </trkpt>
      <trkpt lat="46.34616" lon="6.00506">
        <ele>1589.68</ele>
        <time>2015-10-23T09:05:56Z</time>
      </trkpt>
      <trkpt lat="46.34613" lon="6.00504">
        <ele>1590.16</ele>
        <time>2015-10-23T09:05:59Z</time>
      </trkpt>
      <trkpt lat="46.34608" lon="6.00502">
        <ele>1591.12</ele>
        <time>2015-10-23T09:06:04Z</time>
      </trkpt>
      <trkpt lat="46.34602" lon="6.005">
        <ele>1591.6</ele>
        <time>2015-10-23T09:06:09Z</time>
      </trkpt>
      <trkpt lat="46.34597" lon="6.00498">
        <ele>1592.56</ele>
        <time>2015-10-23T09:06:14Z</time>
      </trkpt>
      <trkpt lat="46.34593" lon="6.00499">
        <ele>1593.52</ele>
        <time>2015-10-23T09:06:18Z</time>
      </trkpt>
      <trkpt lat="46.34579" lon="6.00498">
        <ele>1594.96</ele>
        <time>2015-10-23T09:06:29Z</time>
      </trkpt>
      <trkpt lat="46.34573" lon="6.00496">
        <ele>1594.48</ele>
        <time>2015-10-23T09:06:36Z</time>
      </trkpt>
      <trkpt lat="46.34567" lon="6.00495">
        <ele>1594</ele>
        <time>2015-10-23T09:06:40Z</time>
      </trkpt>
      <trkpt lat="46.3456" lon="6.00493">
        <ele>1594.48</ele>
        <time>2015-10-23T09:06:46Z</time>
      </trkpt>
      <trkpt lat="46.34557" lon="6.00492">
        <ele>1594</ele>
        <time>2015-10-23T09:06:49Z</time>
      </trkpt>
      <trkpt lat="46.3455" lon="6.00492">
        <ele>1594.48</ele>
        <time>2015-10-23T09:06:56Z</time>
      </trkpt>
      <trkpt lat="46.34542" lon="6.00493">
        <ele>1594.96</ele>
        <time>2015-10-23T09:07:04Z</time>
      </trkpt>
      <trkpt lat="46.34535" lon="6.00489">
        <ele>1595.45</ele>
        <time>2015-10-23T09:07:11Z</time>
      </trkpt>
      <trkpt lat="46.34532" lon="6.00487">
        <ele>1595.45</ele>
        <time>2015-10-23T09:07:14Z</time>
      </trkpt>
      <trkpt lat="46.34527" lon="6.00489">
        <ele>1596.41</ele>
        <time>2015-10-23T09:07:19Z</time>
      </trkpt>
      <trkpt lat="46.34518" lon="6.0049">
        <ele>1597.85</ele>
        <time>2015-10-23T09:07:28Z</time>
      </trkpt>
      <trkpt lat="46.34515" lon="6.0049">
        <ele>1598.81</ele>
        <time>2015-10-23T09:07:32Z</time>
      </trkpt>
      <trkpt lat="46.34512" lon="6.00495">
        <ele>1598.81</ele>
        <time>2015-10-23T09:07:37Z</time>
      </trkpt>
      <trkpt lat="46.345" lon="6.00501">
        <ele>1599.29</ele>
        <time>2015-10-23T09:07:48Z</time>
      </trkpt>
      <trkpt lat="46.34497" lon="6.00503">
        <ele>1600.25</ele>
        <time>2015-10-23T09:07:52Z</time>
      </trkpt>
      <trkpt lat="46.34496" lon="6.005">
        <ele>1600.73</ele>
        <time>2015-10-23T09:07:55Z</time>
      </trkpt>
      <trkpt lat="46.34492" lon="6.00495">
        <ele>1600.73</ele>
        <time>2015-10-23T09:08:01Z</time>
      </trkpt>
      <trkpt lat="46.34489" lon="6.00495">
        <ele>1601.21</ele>
        <time>2015-10-23T09:08:04Z</time>
      </trkpt>
      <trkpt lat="46.34484" lon="6.00491">
        <ele>1602.17</ele>
        <time>2015-10-23T09:08:12Z</time>
      </trkpt>
      <trkpt lat="46.34479" lon="6.0049">
        <ele>1603.14</ele>
        <time>2015-10-23T09:08:16Z</time>
      </trkpt>
      <trkpt lat="46.34474" lon="6.00488">
        <ele>1604.1</ele>
        <time>2015-10-23T09:08:21Z</time>
      </trkpt>
      <trkpt lat="46.34468" lon="6.0049">
        <ele>1605.06</ele>
        <time>2015-10-23T09:08:27Z</time>
      </trkpt>
      <trkpt lat="46.34464" lon="6.00491">
        <ele>1605.54</ele>
        <time>2015-10-23T09:08:31Z</time>
      </trkpt>
      <trkpt lat="46.3446" lon="6.00494">
        <ele>1607.46</ele>
        <time>2015-10-23T09:08:37Z</time>
      </trkpt>
      <trkpt lat="46.34454" lon="6.005">
        <ele>1608.42</ele>
        <time>2015-10-23T09:08:45Z</time>
      </trkpt>
      <trkpt lat="46.34449" lon="6.00505">
        <ele>1607.94</ele>
        <time>2015-10-23T09:08:50Z</time>
      </trkpt>
      <trkpt lat="46.34445" lon="6.00506">
        <ele>1608.9</ele>
        <time>2015-10-23T09:08:54Z</time>
      </trkpt>
      <trkpt lat="46.34436" lon="6.00504">
        <ele>1608.9</ele>
        <time>2015-10-23T09:09:02Z</time>
      </trkpt>
      <trkpt lat="46.34431" lon="6.00502">
        <ele>1608.9</ele>
        <time>2015-10-23T09:09:06Z</time>
      </trkpt>
      <trkpt lat="46.34428" lon="6.00501">
        <ele>1608.42</ele>
        <time>2015-10-23T09:09:09Z</time>
      </trkpt>
      <trkpt lat="46.34421" lon="6.00497">
        <ele>1608.9</ele>
        <time>2015-10-23T09:09:14Z</time>
      </trkpt>
      <trkpt lat="46.34419" lon="6.00497">
        <ele>1608.9</ele>
        <time>2015-10-23T09:09:16Z</time>
      </trkpt>
      <trkpt lat="46.34413" lon="6.00491">
        <ele>1608.9</ele>
        <time>2015-10-23T09:09:23Z</time>
      </trkpt>
      <trkpt lat="46.344" lon="6.0048">
        <ele>1609.38</ele>
        <time>2015-10-23T09:09:35Z</time>
      </trkpt>
      <trkpt lat="46.34395" lon="6.00476">
        <ele>1608.9</ele>
        <time>2015-10-23T09:09:39Z</time>
      </trkpt>
      <trkpt lat="46.3439" lon="6.00474">
        <ele>1608.9</ele>
        <time>2015-10-23T09:09:45Z</time>
      </trkpt>
      <trkpt lat="46.34385" lon="6.00472">
        <ele>1607.94</ele>
        <time>2015-10-23T09:09:52Z</time>
      </trkpt>
      <trkpt lat="46.34385" lon="6.00466">
        <ele>1606.5</ele>
        <time>2015-10-23T09:09:57Z</time>
      </trkpt>
      <trkpt lat="46.34381" lon="6.00462">
        <ele>1605.06</ele>
        <time>2015-10-23T09:10:03Z</time>
      </trkpt>
      <trkpt lat="46.34372" lon="6.00456">
        <ele>1602.66</ele>
        <time>2015-10-23T09:10:16Z</time>
      </trkpt>
      <trkpt lat="46.34365" lon="6.00445">
        <ele>1599.29</ele>
        <time>2015-10-23T09:10:28Z</time>
      </trkpt>
      <trkpt lat="46.34362" lon="6.00442">
        <ele>1598.33</ele>
        <time>2015-10-23T09:10:35Z</time>
      </trkpt>
      <trkpt lat="46.34357" lon="6.00438">
        <ele>1596.41</ele>
        <time>2015-10-23T09:10:41Z</time>
      </trkpt>
      <trkpt lat="46.34354" lon="6.00431">
        <ele>1594.48</ele>
        <time>2015-10-23T09:10:48Z</time>
      </trkpt>
      <trkpt lat="46.34353" lon="6.00425">
        <ele>1593.04</ele>
        <time>2015-10-23T09:10:54Z</time>
      </trkpt>
      <trkpt lat="46.34352" lon="6.00421">
        <ele>1591.6</ele>
        <time>2015-10-23T09:10:58Z</time>
      </trkpt>
      <trkpt lat="46.3435" lon="6.00414">
        <ele>1590.16</ele>
        <time>2015-10-23T09:11:04Z</time>
      </trkpt>
      <trkpt lat="46.34344" lon="6.00407">
        <ele>1588.24</ele>
        <time>2015-10-23T09:11:11Z</time>
      </trkpt>
      <trkpt lat="46.34341" lon="6.00404">
        <ele>1587.27</ele>
        <time>2015-10-23T09:11:16Z</time>
      </trkpt>
      <trkpt lat="46.34335" lon="6.00405">
        <ele>1586.31</ele>
        <time>2015-10-23T09:11:20Z</time>
      </trkpt>
      <trkpt lat="46.34331" lon="6.00409">
        <ele>1585.35</ele>
        <time>2015-10-23T09:11:25Z</time>
      </trkpt>
      <trkpt lat="46.34329" lon="6.00411">
        <ele>1584.87</ele>
        <time>2015-10-23T09:11:27Z</time>
      </trkpt>
      <trkpt lat="46.34322" lon="6.00413">
        <ele>1584.39</ele>
        <time>2015-10-23T09:11:34Z</time>
      </trkpt>
      <trkpt lat="46.34314" lon="6.00414">
        <ele>1583.91</ele>
        <time>2015-10-23T09:11:41Z</time>
      </trkpt>
      <trkpt lat="46.34305" lon="6.0041">
        <ele>1582.47</ele>
        <time>2015-10-23T09:11:49Z</time>
      </trkpt>
      <trkpt lat="46.34301" lon="6.00404">
        <ele>1581.99</ele>
        <time>2015-10-23T09:11:53Z</time>
      </trkpt>
      <trkpt lat="46.34293" lon="6.00401">
        <ele>1581.03</ele>
        <time>2015-10-23T09:12:03Z</time>
      </trkpt>
      <trkpt lat="46.34293" lon="6.00401">
        <ele>1581.03</ele>
        <time>2015-10-23T09:12:04Z</time>
      </trkpt>
      <trkpt lat="46.3428" lon="6.00402">
        <ele>1579.58</ele>
        <time>2015-10-23T09:12:16Z</time>
      </trkpt>
      <trkpt lat="46.34272" lon="6.00408">
        <ele>1579.1</ele>
        <time>2015-10-23T09:12:23Z</time>
      </trkpt>
      <trkpt lat="46.34269" lon="6.0041">
        <ele>1577.66</ele>
        <time>2015-10-23T09:12:27Z</time>
      </trkpt>
      <trkpt lat="46.34267" lon="6.00409">
        <ele>1576.7</ele>
        <time>2015-10-23T09:12:29Z</time>
      </trkpt>
      <trkpt lat="46.34262" lon="6.00409">
        <ele>1574.78</ele>
        <time>2015-10-23T09:12:36Z</time>
      </trkpt>
      <trkpt lat="46.34259" lon="6.00409">
        <ele>1574.3</ele>
        <time>2015-10-23T09:12:39Z</time>
      </trkpt>
      <trkpt lat="46.34252" lon="6.00407">
        <ele>1572.85</ele>
        <time>2015-10-23T09:12:45Z</time>
      </trkpt>
      <trkpt lat="46.34237" lon="6.004">
        <ele>1570.45</ele>
        <time>2015-10-23T09:12:59Z</time>
      </trkpt>
      <trkpt lat="46.34233" lon="6.00397">
        <ele>1569.49</ele>
        <time>2015-10-23T09:13:03Z</time>
      </trkpt>
      <trkpt lat="46.34225" lon="6.00398">
        <ele>1568.05</ele>
        <time>2015-10-23T09:13:11Z</time>
      </trkpt>
      <trkpt lat="46.34215" lon="6.00393">
        <ele>1567.57</ele>
        <time>2015-10-23T09:13:19Z</time>
      </trkpt>
      <trkpt lat="46.34208" lon="6.00386">
        <ele>1567.57</ele>
        <time>2015-10-23T09:13:26Z</time>
      </trkpt>
      <trkpt lat="46.34204" lon="6.00383">
        <ele>1567.09</ele>
        <time>2015-10-23T09:13:30Z</time>
      </trkpt>
      <trkpt lat="46.34202" lon="6.00381">
        <ele>1566.61</ele>
        <time>2015-10-23T09:13:32Z</time>
      </trkpt>
      <trkpt lat="46.34199" lon="6.00379">
        <ele>1566.12</ele>
        <time>2015-10-23T09:13:36Z</time>
      </trkpt>
      <trkpt lat="46.34191" lon="6.00375">
        <ele>1565.64</ele>
        <time>2015-10-23T09:13:43Z</time>
      </trkpt>
      <trkpt lat="46.34188" lon="6.00373">
        <ele>1565.16</ele>
        <time>2015-10-23T09:13:46Z</time>
      </trkpt>
      <trkpt lat="46.34183" lon="6.00369">
        <ele>1563.72</ele>
        <time>2015-10-23T09:13:51Z</time>
      </trkpt>
      <trkpt lat="46.3418" lon="6.00365">
        <ele>1564.2</ele>
        <time>2015-10-23T09:13:54Z</time>
      </trkpt>
      <trkpt lat="46.34173" lon="6.00354">
        <ele>1563.24</ele>
        <time>2015-10-23T09:14:03Z</time>
      </trkpt>
      <trkpt lat="46.34165" lon="6.00347">
        <ele>1562.76</ele>
        <time>2015-10-23T09:14:11Z</time>
      </trkpt>
      <trkpt lat="46.34157" lon="6.00341">
        <ele>1561.8</ele>
        <time>2015-10-23T09:14:19Z</time>
      </trkpt>
      <trkpt lat="46.34151" lon="6.00332">
        <ele>1561.32</ele>
        <time>2015-10-23T09:14:25Z</time>
      </trkpt>
      <trkpt lat="46.34142" lon="6.00313">
        <ele>1560.84</ele>
        <time>2015-10-23T09:14:37Z</time>
      </trkpt>
      <trkpt lat="46.34141" lon="6.0031">
        <ele>1560.84</ele>
        <time>2015-10-23T09:14:40Z</time>
      </trkpt>
      <trkpt lat="46.34135" lon="6.00305">
        <ele>1561.8</ele>
        <time>2015-10-23T09:14:46Z</time>
      </trkpt>
      <trkpt lat="46.34132" lon="6.00298">
        <ele>1562.76</ele>
        <time>2015-10-23T09:14:51Z</time>
      </trkpt>
      <trkpt lat="46.34128" lon="6.00294">
        <ele>1564.2</ele>
        <time>2015-10-23T09:14:57Z</time>
      </trkpt>
      <trkpt lat="46.34121" lon="6.00296">
        <ele>1565.64</ele>
        <time>2015-10-23T09:15:06Z</time>
      </trkpt>
      <trkpt lat="46.34116" lon="6.00295">
        <ele>1567.57</ele>
        <time>2015-10-23T09:15:12Z</time>
      </trkpt>
      <trkpt lat="46.34113" lon="6.00297">
        <ele>1568.05</ele>
        <time>2015-10-23T09:15:17Z</time>
      </trkpt>
      <trkpt lat="46.34112" lon="6.00296">
        <ele>1567.57</ele>
        <time>2015-10-23T09:15:19Z</time>
      </trkpt>
      <trkpt lat="46.34105" lon="6.00293">
        <ele>1571.41</ele>
        <time>2015-10-23T09:15:30Z</time>
      </trkpt>
      <trkpt lat="46.34103" lon="6.00292">
        <ele>1572.37</ele>
        <time>2015-10-23T09:15:33Z</time>
      </trkpt>
      <trkpt lat="46.34102" lon="6.00291">
        <ele>1572.85</ele>
        <time>2015-10-23T09:15:35Z</time>
      </trkpt>
      <trkpt lat="46.341" lon="6.00288">
        <ele>1573.33</ele>
        <time>2015-10-23T09:15:38Z</time>
      </trkpt>
      <trkpt lat="46.34094" lon="6.0029">
        <ele>1575.26</ele>
        <time>2015-10-23T09:15:48Z</time>
      </trkpt>
      <trkpt lat="46.34091" lon="6.00293">
        <ele>1577.18</ele>
        <time>2015-10-23T09:15:58Z</time>
      </trkpt>
      <trkpt lat="46.34085" lon="6.00296">
        <ele>1579.58</ele>
        <time>2015-10-23T09:16:07Z</time>
      </trkpt>
      <trkpt lat="46.34082" lon="6.00298">
        <ele>1580.06</ele>
        <time>2015-10-23T09:16:11Z</time>
      </trkpt>
      <trkpt lat="46.3408" lon="6.00298">
        <ele>1580.06</ele>
        <time>2015-10-23T09:16:15Z</time>
      </trkpt>
      <trkpt lat="46.34078" lon="6.00298">
        <ele>1582.95</ele>
        <time>2015-10-23T09:16:21Z</time>
      </trkpt>
      <trkpt lat="46.34069" lon="6.00301">
        <ele>1582.95</ele>
        <time>2015-10-23T09:16:30Z</time>
      </trkpt>
      <trkpt lat="46.34061" lon="6.00298">
        <ele>1584.87</ele>
        <time>2015-10-23T09:16:39Z</time>
      </trkpt>
      <trkpt lat="46.34058" lon="6.00298">
        <ele>1586.31</ele>
        <time>2015-10-23T09:16:43Z</time>
      </trkpt>
      <trkpt lat="46.34053" lon="6.00297">
        <ele>1586.31</ele>
        <time>2015-10-23T09:16:48Z</time>
      </trkpt>
      <trkpt lat="46.3405" lon="6.00297">
        <ele>1586.79</ele>
        <time>2015-10-23T09:16:50Z</time>
      </trkpt>
      <trkpt lat="46.34037" lon="6.0029">
        <ele>1587.75</ele>
        <time>2015-10-23T09:17:02Z</time>
      </trkpt>
      <trkpt lat="46.34032" lon="6.00288">
        <ele>1587.75</ele>
        <time>2015-10-23T09:17:06Z</time>
      </trkpt>
      <trkpt lat="46.34023" lon="6.00283">
        <ele>1587.27</ele>
        <time>2015-10-23T09:17:14Z</time>
      </trkpt>
      <trkpt lat="46.34008" lon="6.00281">
        <ele>1588.24</ele>
        <time>2015-10-23T09:17:27Z</time>
      </trkpt>
      <trkpt lat="46.33998" lon="6.0028">
        <ele>1589.68</ele>
        <time>2015-10-23T09:17:36Z</time>
      </trkpt>
      <trkpt lat="46.33994" lon="6.0028">
        <ele>1590.16</ele>
        <time>2015-10-23T09:17:39Z</time>
      </trkpt>
      <trkpt lat="46.33985" lon="6.0028">
        <ele>1592.08</ele>
        <time>2015-10-23T09:17:48Z</time>
      </trkpt>
      <trkpt lat="46.33977" lon="6.00282">
        <ele>1594</ele>
        <time>2015-10-23T09:17:56Z</time>
      </trkpt>
      <trkpt lat="46.33974" lon="6.00284">
        <ele>1594.48</ele>
        <time>2015-10-23T09:17:59Z</time>
      </trkpt>
      <trkpt lat="46.33972" lon="6.00283">
        <ele>1594.96</ele>
        <time>2015-10-23T09:18:04Z</time>
      </trkpt>
      <trkpt lat="46.3397" lon="6.00281">
        <ele>1597.85</ele>
        <time>2015-10-23T09:18:16Z</time>
      </trkpt>
      <trkpt lat="46.33961" lon="6.00284">
        <ele>1600.25</ele>
        <time>2015-10-23T09:18:26Z</time>
      </trkpt>
      <trkpt lat="46.33958" lon="6.00284">
        <ele>1600.73</ele>
        <time>2015-10-23T09:18:29Z</time>
      </trkpt>
      <trkpt lat="46.33955" lon="6.00286">
        <ele>1601.69</ele>
        <time>2015-10-23T09:18:32Z</time>
      </trkpt>
      <trkpt lat="46.33953" lon="6.00285">
        <ele>1601.69</ele>
        <time>2015-10-23T09:18:35Z</time>
      </trkpt>
      <trkpt lat="46.3395" lon="6.00283">
        <ele>1602.17</ele>
        <time>2015-10-23T09:18:38Z</time>
      </trkpt>
      <trkpt lat="46.33941" lon="6.00283">
        <ele>1604.1</ele>
        <time>2015-10-23T09:18:46Z</time>
      </trkpt>
      <trkpt lat="46.33925" lon="6.00282">
        <ele>1603.62</ele>
        <time>2015-10-23T09:18:58Z</time>
      </trkpt>
      <trkpt lat="46.33911" lon="6.00283">
        <ele>1604.1</ele>
        <time>2015-10-23T09:19:11Z</time>
      </trkpt>
      <trkpt lat="46.339" lon="6.00273">
        <ele>1601.21</ele>
        <time>2015-10-23T09:19:24Z</time>
      </trkpt>
      <trkpt lat="46.33898" lon="6.0027">
        <ele>1601.21</ele>
        <time>2015-10-23T09:19:27Z</time>
      </trkpt>
      <trkpt lat="46.33882" lon="6.00267">
        <ele>1601.21</ele>
        <time>2015-10-23T09:19:40Z</time>
      </trkpt>
      <trkpt lat="46.33879" lon="6.00262">
        <ele>1601.69</ele>
        <time>2015-10-23T09:19:44Z</time>
      </trkpt>
      <trkpt lat="46.33878" lon="6.0026">
        <ele>1603.14</ele>
        <time>2015-10-23T09:19:49Z</time>
      </trkpt>
      <trkpt lat="46.33875" lon="6.00258">
        <ele>1603.62</ele>
        <time>2015-10-23T09:19:52Z</time>
      </trkpt>
      <trkpt lat="46.33872" lon="6.00256">
        <ele>1604.1</ele>
        <time>2015-10-23T09:19:55Z</time>
      </trkpt>
      <trkpt lat="46.33865" lon="6.00254">
        <ele>1602.66</ele>
        <time>2015-10-23T09:20:02Z</time>
      </trkpt>
      <trkpt lat="46.33853" lon="6.00246">
        <ele>1600.73</ele>
        <time>2015-10-23T09:20:13Z</time>
      </trkpt>
      <trkpt lat="46.33847" lon="6.00241">
        <ele>1601.69</ele>
        <time>2015-10-23T09:20:20Z</time>
      </trkpt>
      <trkpt lat="46.33838" lon="6.00231">
        <ele>1601.21</ele>
        <time>2015-10-23T09:20:30Z</time>
      </trkpt>
      <trkpt lat="46.33829" lon="6.00227">
        <ele>1600.25</ele>
        <time>2015-10-23T09:20:39Z</time>
      </trkpt>
      <trkpt lat="46.33823" lon="6.00229">
        <ele>1598.81</ele>
        <time>2015-10-23T09:20:44Z</time>
      </trkpt>
      <trkpt lat="46.33816" lon="6.00226">
        <ele>1597.37</ele>
        <time>2015-10-23T09:20:49Z</time>
      </trkpt>
      <trkpt lat="46.33813" lon="6.00226">
        <ele>1597.85</ele>
        <time>2015-10-23T09:20:52Z</time>
      </trkpt>
      <trkpt lat="46.33801" lon="6.00225">
        <ele>1599.77</ele>
        <time>2015-10-23T09:21:02Z</time>
      </trkpt>
      <trkpt lat="46.33795" lon="6.00224">
        <ele>1600.73</ele>
        <time>2015-10-23T09:21:08Z</time>
      </trkpt>
      <trkpt lat="46.33786" lon="6.00223">
        <ele>1601.21</ele>
        <time>2015-10-23T09:21:16Z</time>
      </trkpt>
      <trkpt lat="46.33781" lon="6.00223">
        <ele>1601.21</ele>
        <time>2015-10-23T09:21:20Z</time>
      </trkpt>
      <trkpt lat="46.33776" lon="6.00221">
        <ele>1601.21</ele>
        <time>2015-10-23T09:21:24Z</time>
      </trkpt>
      <trkpt lat="46.33773" lon="6.0022">
        <ele>1601.21</ele>
        <time>2015-10-23T09:21:27Z</time>
      </trkpt>
      <trkpt lat="46.33767" lon="6.00218">
        <ele>1602.17</ele>
        <time>2015-10-23T09:21:32Z</time>
      </trkpt>
      <trkpt lat="46.33762" lon="6.00217">
        <ele>1601.69</ele>
        <time>2015-10-23T09:21:36Z</time>
      </trkpt>
      <trkpt lat="46.33757" lon="6.00216">
        <ele>1601.21</ele>
        <time>2015-10-23T09:21:41Z</time>
      </trkpt>
      <trkpt lat="46.33753" lon="6.00211">
        <ele>1600.73</ele>
        <time>2015-10-23T09:21:45Z</time>
      </trkpt>
      <trkpt lat="46.33748" lon="6.00207">
        <ele>1600.25</ele>
        <time>2015-10-23T09:21:50Z</time>
      </trkpt>
      <trkpt lat="46.33745" lon="6.00205">
        <ele>1599.77</ele>
        <time>2015-10-23T09:21:53Z</time>
      </trkpt>
      <trkpt lat="46.3373" lon="6.00199">
        <ele>1597.37</ele>
        <time>2015-10-23T09:22:06Z</time>
      </trkpt>
      <trkpt lat="46.33727" lon="6.00197">
        <ele>1597.37</ele>
        <time>2015-10-23T09:22:08Z</time>
      </trkpt>
      <trkpt lat="46.33723" lon="6.00196">
        <ele>1597.37</ele>
        <time>2015-10-23T09:22:12Z</time>
      </trkpt>
      <trkpt lat="46.33707" lon="6.00191">
        <ele>1595.93</ele>
        <time>2015-10-23T09:22:25Z</time>
      </trkpt>
      <trkpt lat="46.337" lon="6.00192">
        <ele>1596.89</ele>
        <time>2015-10-23T09:22:31Z</time>
      </trkpt>
      <trkpt lat="46.33697" lon="6.00192">
        <ele>1597.85</ele>
        <time>2015-10-23T09:22:33Z</time>
      </trkpt>
      <trkpt lat="46.33694" lon="6.00193">
        <ele>1598.33</ele>
        <time>2015-10-23T09:22:36Z</time>
      </trkpt>
      <trkpt lat="46.33682" lon="6.0019">
        <ele>1600.25</ele>
        <time>2015-10-23T09:22:47Z</time>
      </trkpt>
      <trkpt lat="46.33677" lon="6.0019">
        <ele>1600.73</ele>
        <time>2015-10-23T09:22:51Z</time>
      </trkpt>
      <trkpt lat="46.33665" lon="6.00188">
        <ele>1601.69</ele>
        <time>2015-10-23T09:23:02Z</time>
      </trkpt>
      <trkpt lat="46.33661" lon="6.00188">
        <ele>1602.17</ele>
        <time>2015-10-23T09:23:05Z</time>
      </trkpt>
      <trkpt lat="46.33658" lon="6.00188">
        <ele>1602.17</ele>
        <time>2015-10-23T09:23:08Z</time>
      </trkpt>
      <trkpt lat="46.33651" lon="6.00186">
        <ele>1602.66</ele>
        <time>2015-10-23T09:23:14Z</time>
      </trkpt>
      <trkpt lat="46.33643" lon="6.00184">
        <ele>1602.17</ele>
        <time>2015-10-23T09:23:21Z</time>
      </trkpt>
      <trkpt lat="46.3363" lon="6.0017">
        <ele>1601.69</ele>
        <time>2015-10-23T09:23:33Z</time>
      </trkpt>
      <trkpt lat="46.33621" lon="6.00163">
        <ele>1603.14</ele>
        <time>2015-10-23T09:23:42Z</time>
      </trkpt>
      <trkpt lat="46.33616" lon="6.00162">
        <ele>1604.1</ele>
        <time>2015-10-23T09:23:47Z</time>
      </trkpt>
      <trkpt lat="46.33609" lon="6.0016">
        <ele>1604.58</ele>
        <time>2015-10-23T09:23:53Z</time>
      </trkpt>
      <trkpt lat="46.33607" lon="6.00156">
        <ele>1604.58</ele>
        <time>2015-10-23T09:23:56Z</time>
      </trkpt>
      <trkpt lat="46.33598" lon="6.00144">
        <ele>1606.02</ele>
        <time>2015-10-23T09:24:06Z</time>
      </trkpt>
      <trkpt lat="46.33596" lon="6.00141">
        <ele>1606.5</ele>
        <time>2015-10-23T09:24:09Z</time>
      </trkpt>
      <trkpt lat="46.33581" lon="6.00129">
        <ele>1605.06</ele>
        <time>2015-10-23T09:24:23Z</time>
      </trkpt>
      <trkpt lat="46.33569" lon="6.00123">
        <ele>1605.54</ele>
        <time>2015-10-23T09:24:33Z</time>
      </trkpt>
      <trkpt lat="46.33567" lon="6.00124">
        <ele>1606.02</ele>
        <time>2015-10-23T09:24:36Z</time>
      </trkpt>
      <trkpt lat="46.33554" lon="6.00123">
        <ele>1606.02</ele>
        <time>2015-10-23T09:24:47Z</time>
      </trkpt>
      <trkpt lat="46.33553" lon="6.00124">
        <ele>1605.54</ele>
        <time>2015-10-23T09:24:49Z</time>
      </trkpt>
      <trkpt lat="46.33549" lon="6.00125">
        <ele>1605.54</ele>
        <time>2015-10-23T09:24:53Z</time>
      </trkpt>
      <trkpt lat="46.33543" lon="6.0012">
        <ele>1605.54</ele>
        <time>2015-10-23T09:24:59Z</time>
      </trkpt>
      <trkpt lat="46.33536" lon="6.00114">
        <ele>1606.02</ele>
        <time>2015-10-23T09:25:07Z</time>
      </trkpt>
      <trkpt lat="46.33528" lon="6.00111">
        <ele>1607.94</ele>
        <time>2015-10-23T09:25:16Z</time>
      </trkpt>
      <trkpt lat="46.33522" lon="6.0011">
        <ele>1609.38</ele>
        <time>2015-10-23T09:25:23Z</time>
      </trkpt>
      <trkpt lat="46.33519" lon="6.00109">
        <ele>1609.86</ele>
        <time>2015-10-23T09:25:26Z</time>
      </trkpt>
      <trkpt lat="46.33512" lon="6.00106">
        <ele>1610.83</ele>
        <time>2015-10-23T09:25:32Z</time>
      </trkpt>
      <trkpt lat="46.33508" lon="6.00103">
        <ele>1611.79</ele>
        <time>2015-10-23T09:25:37Z</time>
      </trkpt>
      <trkpt lat="46.33502" lon="6.001">
        <ele>1611.79</ele>
        <time>2015-10-23T09:25:42Z</time>
      </trkpt>
      <trkpt lat="46.33496" lon="6.00099">
        <ele>1612.27</ele>
        <time>2015-10-23T09:25:48Z</time>
      </trkpt>
      <trkpt lat="46.33481" lon="6.00089">
        <ele>1612.27</ele>
        <time>2015-10-23T09:26:01Z</time>
      </trkpt>
      <trkpt lat="46.33478" lon="6.00089">
        <ele>1611.79</ele>
        <time>2015-10-23T09:26:05Z</time>
      </trkpt>
      <trkpt lat="46.33471" lon="6.00088">
        <ele>1611.31</ele>
        <time>2015-10-23T09:26:12Z</time>
      </trkpt>
      <trkpt lat="46.33466" lon="6.00086">
        <ele>1610.35</ele>
        <time>2015-10-23T09:26:16Z</time>
      </trkpt>
      <trkpt lat="46.33463" lon="6.00083">
        <ele>1609.86</ele>
        <time>2015-10-23T09:26:19Z</time>
      </trkpt>
      <trkpt lat="46.33459" lon="6.00081">
        <ele>1608.42</ele>
        <time>2015-10-23T09:26:24Z</time>
      </trkpt>
      <trkpt lat="46.33454" lon="6.00079">
        <ele>1606.98</ele>
        <time>2015-10-23T09:26:30Z</time>
      </trkpt>
      <trkpt lat="46.33451" lon="6.00078">
        <ele>1606.5</ele>
        <time>2015-10-23T09:26:33Z</time>
      </trkpt>
      <trkpt lat="46.33444" lon="6.00073">
        <ele>1602.66</ele>
        <time>2015-10-23T09:26:42Z</time>
      </trkpt>
      <trkpt lat="46.33443" lon="6.00073">
        <ele>1602.17</ele>
        <time>2015-10-23T09:26:43Z</time>
      </trkpt>
      <trkpt lat="46.33438" lon="6.00071">
        <ele>1600.25</ele>
        <time>2015-10-23T09:26:50Z</time>
      </trkpt>
      <trkpt lat="46.33434" lon="6.00068">
        <ele>1598.81</ele>
        <time>2015-10-23T09:26:54Z</time>
      </trkpt>
      <trkpt lat="46.33428" lon="6.00066">
        <ele>1596.89</ele>
        <time>2015-10-23T09:27:01Z</time>
      </trkpt>
      <trkpt lat="46.33421" lon="6.00064">
        <ele>1594.96</ele>
        <time>2015-10-23T09:27:06Z</time>
      </trkpt>
      <trkpt lat="46.33418" lon="6.00065">
        <ele>1594.96</ele>
        <time>2015-10-23T09:27:08Z</time>
      </trkpt>
      <trkpt lat="46.33411" lon="6.00065">
        <ele>1594</ele>
        <time>2015-10-23T09:27:14Z</time>
      </trkpt>
      <trkpt lat="46.334" lon="6.00057">
        <ele>1592.08</ele>
        <time>2015-10-23T09:27:24Z</time>
      </trkpt>
      <trkpt lat="46.33384" lon="6.00054">
        <ele>1592.56</ele>
        <time>2015-10-23T09:27:36Z</time>
      </trkpt>
      <trkpt lat="46.33383" lon="6.00053">
        <ele>1592.56</ele>
        <time>2015-10-23T09:27:37Z</time>
      </trkpt>
      <trkpt lat="46.33381" lon="6.00054">
        <ele>1592.56</ele>
        <time>2015-10-23T09:27:40Z</time>
      </trkpt>
      <trkpt lat="46.33379" lon="6.00052">
        <ele>1593.04</ele>
        <time>2015-10-23T09:27:43Z</time>
      </trkpt>
      <trkpt lat="46.33373" lon="6.00046">
        <ele>1593.04</ele>
        <time>2015-10-23T09:27:49Z</time>
      </trkpt>
      <trkpt lat="46.33358" lon="6.0004">
        <ele>1593.52</ele>
        <time>2015-10-23T09:28:01Z</time>
      </trkpt>
      <trkpt lat="46.33356" lon="6.0004">
        <ele>1594</ele>
        <time>2015-10-23T09:28:04Z</time>
      </trkpt>
      <trkpt lat="46.33347" lon="6.00036">
        <ele>1594.48</ele>
        <time>2015-10-23T09:28:11Z</time>
      </trkpt>
      <trkpt lat="46.33339" lon="6.00029">
        <ele>1594.96</ele>
        <time>2015-10-23T09:28:18Z</time>
      </trkpt>
      <trkpt lat="46.33333" lon="6.00024">
        <ele>1595.93</ele>
        <time>2015-10-23T09:28:24Z</time>
      </trkpt>
      <trkpt lat="46.33326" lon="6.00021">
        <ele>1596.41</ele>
        <time>2015-10-23T09:28:30Z</time>
      </trkpt>
      <trkpt lat="46.33322" lon="6.00019">
        <ele>1596.41</ele>
        <time>2015-10-23T09:28:34Z</time>
      </trkpt>
      <trkpt lat="46.33319" lon="6.00016">
        <ele>1596.41</ele>
        <time>2015-10-23T09:28:38Z</time>
      </trkpt>
      <trkpt lat="46.33312" lon="6.00007">
        <ele>1596.89</ele>
        <time>2015-10-23T09:28:45Z</time>
      </trkpt>
      <trkpt lat="46.33308" lon="6.00007">
        <ele>1598.33</ele>
        <time>2015-10-23T09:28:49Z</time>
      </trkpt>
      <trkpt lat="46.33303" lon="6.00006">
        <ele>1598.81</ele>
        <time>2015-10-23T09:29:03Z</time>
      </trkpt>
      <trkpt lat="46.33303" lon="6.00005">
        <ele>1598.81</ele>
        <time>2015-10-23T09:29:14Z</time>
      </trkpt>
      <trkpt lat="46.33299" lon="6.00004">
        <ele>1597.85</ele>
        <time>2015-10-23T09:29:19Z</time>
      </trkpt>
      <trkpt lat="46.33289" lon="5.99997">
        <ele>1595.93</ele>
        <time>2015-10-23T09:29:30Z</time>
      </trkpt>
      <trkpt lat="46.33278" lon="5.99987">
        <ele>1593.04</ele>
        <time>2015-10-23T09:29:43Z</time>
      </trkpt>
      <trkpt lat="46.33271" lon="5.99983">
        <ele>1591.6</ele>
        <time>2015-10-23T09:29:49Z</time>
      </trkpt>
      <trkpt lat="46.33261" lon="5.99977">
        <ele>1587.75</ele>
        <time>2015-10-23T09:29:59Z</time>
      </trkpt>
      <trkpt lat="46.3326" lon="5.99975">
        <ele>1587.75</ele>
        <time>2015-10-23T09:30:00Z</time>
      </trkpt>
      <trkpt lat="46.33258" lon="5.99974">
        <ele>1587.27</ele>
        <time>2015-10-23T09:30:02Z</time>
      </trkpt>
      <trkpt lat="46.33248" lon="5.99979">
        <ele>1583.91</ele>
        <time>2015-10-23T09:30:13Z</time>
      </trkpt>
      <trkpt lat="46.33243" lon="5.9998">
        <ele>1580.54</ele>
        <time>2015-10-23T09:30:21Z</time>
      </trkpt>
      <trkpt lat="46.33239" lon="5.99979">
        <ele>1578.62</ele>
        <time>2015-10-23T09:30:25Z</time>
      </trkpt>
      <trkpt lat="46.33235" lon="5.99978">
        <ele>1577.18</ele>
        <time>2015-10-23T09:30:29Z</time>
      </trkpt>
      <trkpt lat="46.33229" lon="5.99977">
        <ele>1573.82</ele>
        <time>2015-10-23T09:30:36Z</time>
      </trkpt>
      <trkpt lat="46.33228" lon="5.99978">
        <ele>1573.33</ele>
        <time>2015-10-23T09:30:37Z</time>
      </trkpt>
      <trkpt lat="46.33222" lon="5.99977">
        <ele>1570.93</ele>
        <time>2015-10-23T09:30:43Z</time>
      </trkpt>
      <trkpt lat="46.33217" lon="5.99978">
        <ele>1569.49</ele>
        <time>2015-10-23T09:30:46Z</time>
      </trkpt>
      <trkpt lat="46.33213" lon="5.9998">
        <ele>1568.05</ele>
        <time>2015-10-23T09:30:50Z</time>
      </trkpt>
      <trkpt lat="46.33211" lon="5.9998">
        <ele>1567.09</ele>
        <time>2015-10-23T09:30:53Z</time>
      </trkpt>
      <trkpt lat="46.33203" lon="5.99982">
        <ele>1564.2</ele>
        <time>2015-10-23T09:31:01Z</time>
      </trkpt>
      <trkpt lat="46.33192" lon="5.99981">
        <ele>1560.36</ele>
        <time>2015-10-23T09:31:11Z</time>
      </trkpt>
      <trkpt lat="46.33188" lon="5.9998">
        <ele>1558.43</ele>
        <time>2015-10-23T09:31:17Z</time>
      </trkpt>
      <trkpt lat="46.3318" lon="5.99984">
        <ele>1556.03</ele>
        <time>2015-10-23T09:31:25Z</time>
      </trkpt>
      <trkpt lat="46.33175" lon="5.99993">
        <ele>1556.03</ele>
        <time>2015-10-23T09:31:31Z</time>
      </trkpt>
      <trkpt lat="46.33169" lon="5.99994">
        <ele>1556.99</ele>
        <time>2015-10-23T09:31:36Z</time>
      </trkpt>
      <trkpt lat="46.33154" lon="5.99996">
        <ele>1558.43</ele>
        <time>2015-10-23T09:31:49Z</time>
      </trkpt>
      <trkpt lat="46.33141" lon="5.99993">
        <ele>1559.4</ele>
        <time>2015-10-23T09:31:59Z</time>
      </trkpt>
      <trkpt lat="46.33127" lon="5.99992">
        <ele>1558.92</ele>
        <time>2015-10-23T09:32:11Z</time>
      </trkpt>
      <trkpt lat="46.33124" lon="5.99993">
        <ele>1558.92</ele>
        <time>2015-10-23T09:32:13Z</time>
      </trkpt>
      <trkpt lat="46.33121" lon="5.99992">
        <ele>1558.43</ele>
        <time>2015-10-23T09:32:16Z</time>
      </trkpt>
      <trkpt lat="46.33118" lon="5.99987">
        <ele>1557.95</ele>
        <time>2015-10-23T09:32:20Z</time>
      </trkpt>
      <trkpt lat="46.33115" lon="5.9998">
        <ele>1557.47</ele>
        <time>2015-10-23T09:32:25Z</time>
      </trkpt>
      <trkpt lat="46.331" lon="5.99968">
        <ele>1555.07</ele>
        <time>2015-10-23T09:32:39Z</time>
      </trkpt>
      <trkpt lat="46.3309" lon="5.99963">
        <ele>1553.15</ele>
        <time>2015-10-23T09:32:48Z</time>
      </trkpt>
      <trkpt lat="46.33082" lon="5.99957">
        <ele>1552.67</ele>
        <time>2015-10-23T09:32:54Z</time>
      </trkpt>
      <trkpt lat="46.33074" lon="5.99953">
        <ele>1552.19</ele>
        <time>2015-10-23T09:33:01Z</time>
      </trkpt>
      <trkpt lat="46.33059" lon="5.99946">
        <ele>1551.71</ele>
        <time>2015-10-23T09:33:12Z</time>
      </trkpt>
      <trkpt lat="46.3305" lon="5.99943">
        <ele>1552.67</ele>
        <time>2015-10-23T09:33:20Z</time>
      </trkpt>
      <trkpt lat="46.33047" lon="5.99941">
        <ele>1553.15</ele>
        <time>2015-10-23T09:33:22Z</time>
      </trkpt>
      <trkpt lat="46.33041" lon="5.99939">
        <ele>1553.63</ele>
        <time>2015-10-23T09:33:26Z</time>
      </trkpt>
      <trkpt lat="46.33034" lon="5.99939">
        <ele>1555.07</ele>
        <time>2015-10-23T09:33:33Z</time>
      </trkpt>
      <trkpt lat="46.33022" lon="5.99939">
        <ele>1556.99</ele>
        <time>2015-10-23T09:33:44Z</time>
      </trkpt>
      <trkpt lat="46.33014" lon="5.99946">
        <ele>1558.92</ele>
        <time>2015-10-23T09:33:54Z</time>
      </trkpt>
      <trkpt lat="46.33011" lon="5.99947">
        <ele>1559.88</ele>
        <time>2015-10-23T09:34:08Z</time>
      </trkpt>
      <trkpt lat="46.33006" lon="5.9995">
        <ele>1560.36</ele>
        <time>2015-10-23T09:34:13Z</time>
      </trkpt>
      <trkpt lat="46.32998" lon="5.99955">
        <ele>1561.8</ele>
        <time>2015-10-23T09:34:21Z</time>
      </trkpt>
      <trkpt lat="46.32993" lon="5.99956">
        <ele>1562.76</ele>
        <time>2015-10-23T09:34:26Z</time>
      </trkpt>
      <trkpt lat="46.32987" lon="5.99958">
        <ele>1563.24</ele>
        <time>2015-10-23T09:34:31Z</time>
      </trkpt>
      <trkpt lat="46.32983" lon="5.99962">
        <ele>1564.2</ele>
        <time>2015-10-23T09:34:36Z</time>
      </trkpt>
      <trkpt lat="46.32979" lon="5.99963">
        <ele>1564.68</ele>
        <time>2015-10-23T09:34:40Z</time>
      </trkpt>
      <trkpt lat="46.32967" lon="5.99964">
        <ele>1566.61</ele>
        <time>2015-10-23T09:34:50Z</time>
      </trkpt>
      <trkpt lat="46.32964" lon="5.99964">
        <ele>1566.12</ele>
        <time>2015-10-23T09:34:53Z</time>
      </trkpt>
      <trkpt lat="46.32953" lon="5.9997">
        <ele>1567.09</ele>
        <time>2015-10-23T09:35:03Z</time>
      </trkpt>
      <trkpt lat="46.32949" lon="5.99975">
        <ele>1568.05</ele>
        <time>2015-10-23T09:35:08Z</time>
      </trkpt>
      <trkpt lat="46.32944" lon="5.99992">
        <ele>1568.05</ele>
        <time>2015-10-23T09:35:19Z</time>
      </trkpt>
      <trkpt lat="46.32943" lon="5.99995">
        <ele>1567.09</ele>
        <time>2015-10-23T09:35:22Z</time>
      </trkpt>
      <trkpt lat="46.32941" lon="6.00001">
        <ele>1565.16</ele>
        <time>2015-10-23T09:35:26Z</time>
      </trkpt>
      <trkpt lat="46.32937" lon="6.00009">
        <ele>1566.12</ele>
        <time>2015-10-23T09:35:32Z</time>
      </trkpt>
      <trkpt lat="46.32932" lon="6.00011">
        <ele>1567.57</ele>
        <time>2015-10-23T09:35:37Z</time>
      </trkpt>
      <trkpt lat="46.32929" lon="6.00011">
        <ele>1568.53</ele>
        <time>2015-10-23T09:35:40Z</time>
      </trkpt>
      <trkpt lat="46.32924" lon="6.00013">
        <ele>1570.45</ele>
        <time>2015-10-23T09:35:48Z</time>
      </trkpt>
      <trkpt lat="46.32919" lon="6.00013">
        <ele>1571.89</ele>
        <time>2015-10-23T09:35:54Z</time>
      </trkpt>
      <trkpt lat="46.32916" lon="6.00012">
        <ele>1573.33</ele>
        <time>2015-10-23T09:35:58Z</time>
      </trkpt>
      <trkpt lat="46.32913" lon="6.00012">
        <ele>1574.3</ele>
        <time>2015-10-23T09:36:02Z</time>
      </trkpt>
      <trkpt lat="46.3291" lon="6.00012">
        <ele>1574.78</ele>
        <time>2015-10-23T09:36:05Z</time>
      </trkpt>
      <trkpt lat="46.32905" lon="6.00011">
        <ele>1575.26</ele>
        <time>2015-10-23T09:36:10Z</time>
      </trkpt>
      <trkpt lat="46.32902" lon="6.00012">
        <ele>1575.74</ele>
        <time>2015-10-23T09:36:16Z</time>
      </trkpt>
      <trkpt lat="46.32897" lon="6.00015">
        <ele>1578.14</ele>
        <time>2015-10-23T09:36:26Z</time>
      </trkpt>
      <trkpt lat="46.32897" lon="6.00015">
        <ele>1579.1</ele>
        <time>2015-10-23T09:36:27Z</time>
      </trkpt>
      <trkpt lat="46.32895" lon="6.00015">
        <ele>1579.58</ele>
        <time>2015-10-23T09:36:30Z</time>
      </trkpt>
      <trkpt lat="46.32891" lon="6.0002">
        <ele>1581.99</ele>
        <time>2015-10-23T09:36:40Z</time>
      </trkpt>
      <trkpt lat="46.3289" lon="6.0002">
        <ele>1581.99</ele>
        <time>2015-10-23T09:36:41Z</time>
      </trkpt>
      <trkpt lat="46.32888" lon="6.00021">
        <ele>1582.95</ele>
        <time>2015-10-23T09:36:44Z</time>
      </trkpt>
      <trkpt lat="46.32885" lon="6.00023">
        <ele>1585.35</ele>
        <time>2015-10-23T09:36:54Z</time>
      </trkpt>
      <trkpt lat="46.32884" lon="6.00024">
        <ele>1585.83</ele>
        <time>2015-10-23T09:36:57Z</time>
      </trkpt>
      <trkpt lat="46.32882" lon="6.00027">
        <ele>1586.79</ele>
        <time>2015-10-23T09:37:02Z</time>
      </trkpt>
      <trkpt lat="46.32879" lon="6.00033">
        <ele>1588.72</ele>
        <time>2015-10-23T09:37:11Z</time>
      </trkpt>
      <trkpt lat="46.32877" lon="6.00034">
        <ele>1589.68</ele>
        <time>2015-10-23T09:37:14Z</time>
      </trkpt>
      <trkpt lat="46.3287" lon="6.00038">
        <ele>1592.08</ele>
        <time>2015-10-23T09:37:25Z</time>
      </trkpt>
      <trkpt lat="46.32866" lon="6.0004">
        <ele>1593.52</ele>
        <time>2015-10-23T09:37:35Z</time>
      </trkpt>
      <trkpt lat="46.32858" lon="6.00051">
        <ele>1595.93</ele>
        <time>2015-10-23T09:37:45Z</time>
      </trkpt>
      <trkpt lat="46.32858" lon="6.00051">
        <ele>1595.93</ele>
        <time>2015-10-23T09:37:46Z</time>
      </trkpt>
      <trkpt lat="46.3285" lon="6.00058">
        <ele>1598.33</ele>
        <time>2015-10-23T09:37:57Z</time>
      </trkpt>
      <trkpt lat="46.32844" lon="6.0006">
        <ele>1598.81</ele>
        <time>2015-10-23T09:38:02Z</time>
      </trkpt>
      <trkpt lat="46.32842" lon="6.00061">
        <ele>1598.81</ele>
        <time>2015-10-23T09:38:05Z</time>
      </trkpt>
      <trkpt lat="46.32832" lon="6.00065">
        <ele>1598.33</ele>
        <time>2015-10-23T09:38:13Z</time>
      </trkpt>
      <trkpt lat="46.3282" lon="6.00068">
        <ele>1595.93</ele>
        <time>2015-10-23T09:38:23Z</time>
      </trkpt>
      <trkpt lat="46.32806" lon="6.00067">
        <ele>1595.45</ele>
        <time>2015-10-23T09:38:33Z</time>
      </trkpt>
      <trkpt lat="46.32799" lon="6.00066">
        <ele>1594.48</ele>
        <time>2015-10-23T09:38:39Z</time>
      </trkpt>
      <trkpt lat="46.32782" lon="6.00072">
        <ele>1594.96</ele>
        <time>2015-10-23T09:38:52Z</time>
      </trkpt>
      <trkpt lat="46.32781" lon="6.00073">
        <ele>1594.96</ele>
        <time>2015-10-23T09:38:54Z</time>
      </trkpt>
      <trkpt lat="46.32774" lon="6.00077">
        <ele>1596.41</ele>
        <time>2015-10-23T09:39:01Z</time>
      </trkpt>
      <trkpt lat="46.32766" lon="6.00081">
        <ele>1597.85</ele>
        <time>2015-10-23T09:39:09Z</time>
      </trkpt>
      <trkpt lat="46.3276" lon="6.00084">
        <ele>1599.29</ele>
        <time>2015-10-23T09:39:16Z</time>
      </trkpt>
      <trkpt lat="46.32749" lon="6.00093">
        <ele>1599.77</ele>
        <time>2015-10-23T09:39:27Z</time>
      </trkpt>
      <trkpt lat="46.32746" lon="6.00095">
        <ele>1600.25</ele>
        <time>2015-10-23T09:39:30Z</time>
      </trkpt>
      <trkpt lat="46.32741" lon="6.00101">
        <ele>1600.25</ele>
        <time>2015-10-23T09:39:35Z</time>
      </trkpt>
      <trkpt lat="46.32733" lon="6.00109">
        <ele>1603.14</ele>
        <time>2015-10-23T09:39:46Z</time>
      </trkpt>
      <trkpt lat="46.32726" lon="6.00117">
        <ele>1605.54</ele>
        <time>2015-10-23T09:39:55Z</time>
      </trkpt>
      <trkpt lat="46.3272" lon="6.00126">
        <ele>1604.1</ele>
        <time>2015-10-23T09:40:04Z</time>
      </trkpt>
      <trkpt lat="46.32717" lon="6.00128">
        <ele>1603.14</ele>
        <time>2015-10-23T09:40:07Z</time>
      </trkpt>
      <trkpt lat="46.3271" lon="6.00138">
        <ele>1599.77</ele>
        <time>2015-10-23T09:40:19Z</time>
      </trkpt>
      <trkpt lat="46.32703" lon="6.00141">
        <ele>1597.85</ele>
        <time>2015-10-23T09:40:26Z</time>
      </trkpt>
      <trkpt lat="46.327" lon="6.00143">
        <ele>1597.37</ele>
        <time>2015-10-23T09:40:29Z</time>
      </trkpt>
      <trkpt lat="46.32698" lon="6.00144">
        <ele>1596.41</ele>
        <time>2015-10-23T09:40:31Z</time>
      </trkpt>
      <trkpt lat="46.32696" lon="6.00145">
        <ele>1595.45</ele>
        <time>2015-10-23T09:40:34Z</time>
      </trkpt>
      <trkpt lat="46.32695" lon="6.0014">
        <ele>1595.45</ele>
        <time>2015-10-23T09:40:37Z</time>
      </trkpt>
      <trkpt lat="46.32691" lon="6.00137">
        <ele>1594.48</ele>
        <time>2015-10-23T09:40:42Z</time>
      </trkpt>
      <trkpt lat="46.32684" lon="6.00133">
        <ele>1592.08</ele>
        <time>2015-10-23T09:40:48Z</time>
      </trkpt>
      <trkpt lat="46.32679" lon="6.00134">
        <ele>1591.6</ele>
        <time>2015-10-23T09:40:52Z</time>
      </trkpt>
      <trkpt lat="46.32674" lon="6.00133">
        <ele>1591.6</ele>
        <time>2015-10-23T09:40:56Z</time>
      </trkpt>
      <trkpt lat="46.32661" lon="6.00133">
        <ele>1589.2</ele>
        <time>2015-10-23T09:41:10Z</time>
      </trkpt>
      <trkpt lat="46.32658" lon="6.00133">
        <ele>1588.72</ele>
        <time>2015-10-23T09:41:14Z</time>
      </trkpt>
      <trkpt lat="46.32655" lon="6.00137">
        <ele>1588.24</ele>
        <time>2015-10-23T09:41:17Z</time>
      </trkpt>
      <trkpt lat="46.32652" lon="6.00138">
        <ele>1587.27</ele>
        <time>2015-10-23T09:41:21Z</time>
      </trkpt>
      <trkpt lat="46.32646" lon="6.0014">
        <ele>1586.31</ele>
        <time>2015-10-23T09:41:28Z</time>
      </trkpt>
      <trkpt lat="46.32642" lon="6.00145">
        <ele>1585.35</ele>
        <time>2015-10-23T09:41:33Z</time>
      </trkpt>
      <trkpt lat="46.32638" lon="6.00148">
        <ele>1584.39</ele>
        <time>2015-10-23T09:41:38Z</time>
      </trkpt>
      <trkpt lat="46.32623" lon="6.00154">
        <ele>1582.95</ele>
        <time>2015-10-23T09:41:50Z</time>
      </trkpt>
      <trkpt lat="46.32605" lon="6.00153">
        <ele>1581.99</ele>
        <time>2015-10-23T09:42:04Z</time>
      </trkpt>
      <trkpt lat="46.3259" lon="6.00149">
        <ele>1581.99</ele>
        <time>2015-10-23T09:42:16Z</time>
      </trkpt>
      <trkpt lat="46.32579" lon="6.00141">
        <ele>1584.39</ele>
        <time>2015-10-23T09:42:29Z</time>
      </trkpt>
      <trkpt lat="46.32577" lon="6.00139">
        <ele>1584.87</ele>
        <time>2015-10-23T09:42:32Z</time>
      </trkpt>
      <trkpt lat="46.32572" lon="6.00138">
        <ele>1586.31</ele>
        <time>2015-10-23T09:42:37Z</time>
      </trkpt>
      <trkpt lat="46.32564" lon="6.00129">
        <ele>1588.24</ele>
        <time>2015-10-23T09:42:48Z</time>
      </trkpt>
      <trkpt lat="46.32563" lon="6.00129">
        <ele>1588.24</ele>
        <time>2015-10-23T09:42:49Z</time>
      </trkpt>
      <trkpt lat="46.32554" lon="6.00126">
        <ele>1590.64</ele>
        <time>2015-10-23T09:43:00Z</time>
      </trkpt>
      <trkpt lat="46.32553" lon="6.00127">
        <ele>1591.12</ele>
        <time>2015-10-23T09:43:02Z</time>
      </trkpt>
      <trkpt lat="46.3255" lon="6.00127">
        <ele>1591.6</ele>
        <time>2015-10-23T09:43:06Z</time>
      </trkpt>
      <trkpt lat="46.32542" lon="6.00125">
        <ele>1594</ele>
        <time>2015-10-23T09:43:17Z</time>
      </trkpt>
      <trkpt lat="46.32541" lon="6.00125">
        <ele>1595.45</ele>
        <time>2015-10-23T09:43:24Z</time>
      </trkpt>
      <trkpt lat="46.32535" lon="6.00125">
        <ele>1597.85</ele>
        <time>2015-10-23T09:43:34Z</time>
      </trkpt>
      <trkpt lat="46.32525" lon="6.00123">
        <ele>1600.25</ele>
        <time>2015-10-23T09:43:45Z</time>
      </trkpt>
      <trkpt lat="46.3252" lon="6.00121">
        <ele>1600.25</ele>
        <time>2015-10-23T09:43:49Z</time>
      </trkpt>
      <trkpt lat="46.32513" lon="6.00121">
        <ele>1601.21</ele>
        <time>2015-10-23T09:43:56Z</time>
      </trkpt>
      <trkpt lat="46.32505" lon="6.00115">
        <ele>1601.21</ele>
        <time>2015-10-23T09:44:03Z</time>
      </trkpt>
      <trkpt lat="46.325" lon="6.00109">
        <ele>1601.69</ele>
        <time>2015-10-23T09:44:08Z</time>
      </trkpt>
      <trkpt lat="46.32495" lon="6.00103">
        <ele>1602.17</ele>
        <time>2015-10-23T09:44:14Z</time>
      </trkpt>
      <trkpt lat="46.32493" lon="6.00101">
        <ele>1602.66</ele>
        <time>2015-10-23T09:44:16Z</time>
      </trkpt>
      <trkpt lat="46.3249" lon="6.00099">
        <ele>1603.14</ele>
        <time>2015-10-23T09:44:20Z</time>
      </trkpt>
      <trkpt lat="46.32481" lon="6.0009">
        <ele>1606.02</ele>
        <time>2015-10-23T09:44:32Z</time>
      </trkpt>
      <trkpt lat="46.32476" lon="6.00086">
        <ele>1606.5</ele>
        <time>2015-10-23T09:44:37Z</time>
      </trkpt>
      <trkpt lat="46.32473" lon="6.00079">
        <ele>1607.94</ele>
        <time>2015-10-23T09:44:43Z</time>
      </trkpt>
      <trkpt lat="46.32473" lon="6.00075">
        <ele>1608.42</ele>
        <time>2015-10-23T09:44:46Z</time>
      </trkpt>
      <trkpt lat="46.32472" lon="6.00072">
        <ele>1608.9</ele>
        <time>2015-10-23T09:44:48Z</time>
      </trkpt>
      <trkpt lat="46.32472" lon="6.00068">
        <ele>1609.86</ele>
        <time>2015-10-23T09:44:51Z</time>
      </trkpt>
      <trkpt lat="46.3247" lon="6.00058">
        <ele>1609.86</ele>
        <time>2015-10-23T09:44:57Z</time>
      </trkpt>
      <trkpt lat="46.32467" lon="6.00039">
        <ele>1611.79</ele>
        <time>2015-10-23T09:45:08Z</time>
      </trkpt>
      <trkpt lat="46.32466" lon="6.00025">
        <ele>1611.79</ele>
        <time>2015-10-23T09:45:16Z</time>
      </trkpt>
      <trkpt lat="46.32463" lon="6.00006">
        <ele>1614.19</ele>
        <time>2015-10-23T09:45:28Z</time>
      </trkpt>
      <trkpt lat="46.32463" lon="5.99999">
        <ele>1613.71</ele>
        <time>2015-10-23T09:45:32Z</time>
      </trkpt>
      <trkpt lat="46.32459" lon="5.99985">
        <ele>1612.75</ele>
        <time>2015-10-23T09:45:40Z</time>
      </trkpt>
      <trkpt lat="46.32459" lon="5.99978">
        <ele>1612.75</ele>
        <time>2015-10-23T09:45:44Z</time>
      </trkpt>
      <trkpt lat="46.32454" lon="5.99962">
        <ele>1611.79</ele>
        <time>2015-10-23T09:45:53Z</time>
      </trkpt>
      <trkpt lat="46.32452" lon="5.99952">
        <ele>1611.31</ele>
        <time>2015-10-23T09:45:58Z</time>
      </trkpt>
      <trkpt lat="46.32449" lon="5.99939">
        <ele>1611.79</ele>
        <time>2015-10-23T09:46:05Z</time>
      </trkpt>
      <trkpt lat="46.32449" lon="5.99929">
        <ele>1613.23</ele>
        <time>2015-10-23T09:46:19Z</time>
      </trkpt>
      <trkpt lat="46.3245" lon="5.99929">
        <ele>1613.23</ele>
        <time>2015-10-23T09:46:52Z</time>
      </trkpt>
      <trkpt lat="46.32449" lon="5.99917">
        <ele>1613.23</ele>
        <time>2015-10-23T09:46:58Z</time>
      </trkpt>
      <trkpt lat="46.32445" lon="5.99898">
        <ele>1613.71</ele>
        <time>2015-10-23T09:47:08Z</time>
      </trkpt>
      <trkpt lat="46.32441" lon="5.99869">
        <ele>1613.71</ele>
        <time>2015-10-23T09:47:21Z</time>
      </trkpt>
      <trkpt lat="46.32438" lon="5.99852">
        <ele>1614.19</ele>
        <time>2015-10-23T09:47:32Z</time>
      </trkpt>
      <trkpt lat="46.32434" lon="5.99835">
        <ele>1613.71</ele>
        <time>2015-10-23T09:47:41Z</time>
      </trkpt>
      <trkpt lat="46.32429" lon="5.99827">
        <ele>1613.23</ele>
        <time>2015-10-23T09:47:50Z</time>
      </trkpt>
      <trkpt lat="46.32427" lon="5.99824">
        <ele>1612.75</ele>
        <time>2015-10-23T09:47:53Z</time>
      </trkpt>
      <trkpt lat="46.32422" lon="5.99816">
        <ele>1613.23</ele>
        <time>2015-10-23T09:47:57Z</time>
      </trkpt>
      <trkpt lat="46.32419" lon="5.99809">
        <ele>1613.23</ele>
        <time>2015-10-23T09:48:00Z</time>
      </trkpt>
      <trkpt lat="46.32416" lon="5.99807">
        <ele>1613.71</ele>
        <time>2015-10-23T09:48:02Z</time>
      </trkpt>
      <trkpt lat="46.32404" lon="5.99793">
        <ele>1615.15</ele>
        <time>2015-10-23T09:48:15Z</time>
      </trkpt>
      <trkpt lat="46.32404" lon="5.99794">
        <ele>1615.15</ele>
        <time>2015-10-23T09:48:30Z</time>
      </trkpt>
      <trkpt lat="46.32404" lon="5.99793">
        <ele>1615.15</ele>
        <time>2015-10-23T09:48:32Z</time>
      </trkpt>
      <trkpt lat="46.32396" lon="5.99779">
        <ele>1614.67</ele>
        <time>2015-10-23T09:48:41Z</time>
      </trkpt>
      <trkpt lat="46.32394" lon="5.99765">
        <ele>1616.11</ele>
        <time>2015-10-23T09:48:51Z</time>
      </trkpt>
      <trkpt lat="46.32392" lon="5.99762">
        <ele>1617.07</ele>
        <time>2015-10-23T09:48:54Z</time>
      </trkpt>
      <trkpt lat="46.32389" lon="5.99751">
        <ele>1619</ele>
        <time>2015-10-23T09:49:04Z</time>
      </trkpt>
      <trkpt lat="46.32387" lon="5.99744">
        <ele>1620.44</ele>
        <time>2015-10-23T09:49:11Z</time>
      </trkpt>
      <trkpt lat="46.32386" lon="5.9974">
        <ele>1621.4</ele>
        <time>2015-10-23T09:49:14Z</time>
      </trkpt>
      <trkpt lat="46.32384" lon="5.99738">
        <ele>1621.88</ele>
        <time>2015-10-23T09:49:17Z</time>
      </trkpt>
      <trkpt lat="46.32383" lon="5.99734">
        <ele>1623.32</ele>
        <time>2015-10-23T09:49:21Z</time>
      </trkpt>
      <trkpt lat="46.32379" lon="5.99727">
        <ele>1624.77</ele>
        <time>2015-10-23T09:49:34Z</time>
      </trkpt>
      <trkpt lat="46.32379" lon="5.99727">
        <ele>1625.73</ele>
        <time>2015-10-23T09:49:35Z</time>
      </trkpt>
      <trkpt lat="46.32377" lon="5.99728">
        <ele>1626.69</ele>
        <time>2015-10-23T09:49:37Z</time>
      </trkpt>
      <trkpt lat="46.32373" lon="5.99732">
        <ele>1626.69</ele>
        <time>2015-10-23T09:49:41Z</time>
      </trkpt>
      <trkpt lat="46.32369" lon="5.99736">
        <ele>1628.13</ele>
        <time>2015-10-23T09:49:45Z</time>
      </trkpt>
      <trkpt lat="46.32367" lon="5.99738">
        <ele>1629.09</ele>
        <time>2015-10-23T09:49:56Z</time>
      </trkpt>
      <trkpt lat="46.32367" lon="5.99738">
        <ele>1628.61</ele>
        <time>2015-10-23T09:50:23Z</time>
      </trkpt>
      <trkpt lat="46.32367" lon="5.99738">
        <ele>1628.61</ele>
        <time>2015-10-23T09:50:52Z</time>
      </trkpt>
      <trkpt lat="46.32367" lon="5.99738">
        <ele>1628.61</ele>
        <time>2015-10-23T09:50:58Z</time>
      </trkpt>
      <trkpt lat="46.32365" lon="5.99733">
        <ele>1629.57</ele>
        <time>2015-10-23T09:51:03Z</time>
      </trkpt>
      <trkpt lat="46.32361" lon="5.99728">
        <ele>1631.49</ele>
        <time>2015-10-23T09:51:08Z</time>
      </trkpt>
      <trkpt lat="46.3236" lon="5.99727">
        <ele>1632.46</ele>
        <time>2015-10-23T09:51:10Z</time>
      </trkpt>
      <trkpt lat="46.32356" lon="5.99718">
        <ele>1634.86</ele>
        <time>2015-10-23T09:51:17Z</time>
      </trkpt>
      <trkpt lat="46.3235" lon="5.99713">
        <ele>1637.26</ele>
        <time>2015-10-23T09:51:24Z</time>
      </trkpt>
      <trkpt lat="46.32345" lon="5.99702">
        <ele>1639.67</ele>
        <time>2015-10-23T09:51:35Z</time>
      </trkpt>
      <trkpt lat="46.3234" lon="5.99697">
        <ele>1642.07</ele>
        <time>2015-10-23T09:51:42Z</time>
      </trkpt>
      <trkpt lat="46.32338" lon="5.99694">
        <ele>1643.03</ele>
        <time>2015-10-23T09:51:45Z</time>
      </trkpt>
      <trkpt lat="46.32335" lon="5.9969">
        <ele>1643.99</ele>
        <time>2015-10-23T09:51:50Z</time>
      </trkpt>
      <trkpt lat="46.32333" lon="5.99687">
        <ele>1644.95</ele>
        <time>2015-10-23T09:51:53Z</time>
      </trkpt>
      <trkpt lat="46.3233" lon="5.99683">
        <ele>1646.88</ele>
        <time>2015-10-23T09:51:58Z</time>
      </trkpt>
      <trkpt lat="46.32328" lon="5.99679">
        <ele>1647.84</ele>
        <time>2015-10-23T09:52:02Z</time>
      </trkpt>
      <trkpt lat="46.32323" lon="5.99673">
        <ele>1650.24</ele>
        <time>2015-10-23T09:52:11Z</time>
      </trkpt>
      <trkpt lat="46.3232" lon="5.99668">
        <ele>1651.68</ele>
        <time>2015-10-23T09:52:16Z</time>
      </trkpt>
      <trkpt lat="46.32316" lon="5.99663">
        <ele>1652.64</ele>
        <time>2015-10-23T09:52:21Z</time>
      </trkpt>
      <trkpt lat="46.32314" lon="5.99656">
        <ele>1654.09</ele>
        <time>2015-10-23T09:52:26Z</time>
      </trkpt>
      <trkpt lat="46.32312" lon="5.99652">
        <ele>1655.05</ele>
        <time>2015-10-23T09:52:30Z</time>
      </trkpt>
      <trkpt lat="46.32309" lon="5.99647">
        <ele>1656.01</ele>
        <time>2015-10-23T09:52:34Z</time>
      </trkpt>
      <trkpt lat="46.32307" lon="5.99644">
        <ele>1656.49</ele>
        <time>2015-10-23T09:52:48Z</time>
      </trkpt>
      <trkpt lat="46.32308" lon="5.99644">
        <ele>1656.49</ele>
        <time>2015-10-23T09:53:10Z</time>
      </trkpt>
      <trkpt lat="46.32308" lon="5.99644">
        <ele>1656.49</ele>
        <time>2015-10-23T09:53:14Z</time>
      </trkpt>
      <trkpt lat="46.32306" lon="5.9964">
        <ele>1656.97</ele>
        <time>2015-10-23T09:53:17Z</time>
      </trkpt>
      <trkpt lat="46.32304" lon="5.99635">
        <ele>1657.93</ele>
        <time>2015-10-23T09:53:20Z</time>
      </trkpt>
      <trkpt lat="46.32298" lon="5.99628">
        <ele>1658.89</ele>
        <time>2015-10-23T09:53:26Z</time>
      </trkpt>
      <trkpt lat="46.32295" lon="5.99621">
        <ele>1659.85</ele>
        <time>2015-10-23T09:53:30Z</time>
      </trkpt>
      <trkpt lat="46.32287" lon="5.99611">
        <ele>1662.74</ele>
        <time>2015-10-23T09:53:41Z</time>
      </trkpt>
      <trkpt lat="46.32286" lon="5.99607">
        <ele>1663.7</ele>
        <time>2015-10-23T09:53:43Z</time>
      </trkpt>
      <trkpt lat="46.32285" lon="5.99605">
        <ele>1664.18</ele>
        <time>2015-10-23T09:53:45Z</time>
      </trkpt>
      <trkpt lat="46.32284" lon="5.99602">
        <ele>1665.14</ele>
        <time>2015-10-23T09:53:47Z</time>
      </trkpt>
      <trkpt lat="46.32283" lon="5.99601">
        <ele>1665.62</ele>
        <time>2015-10-23T09:53:49Z</time>
      </trkpt>
      <trkpt lat="46.32279" lon="5.99595">
        <ele>1667.06</ele>
        <time>2015-10-23T09:53:54Z</time>
      </trkpt>
      <trkpt lat="46.32274" lon="5.99589">
        <ele>1668.99</ele>
        <time>2015-10-23T09:54:00Z</time>
      </trkpt>
      <trkpt lat="46.32269" lon="5.99583">
        <ele>1671.39</ele>
        <time>2015-10-23T09:54:08Z</time>
      </trkpt>
      <trkpt lat="46.32262" lon="5.99574">
        <ele>1674.75</ele>
        <time>2015-10-23T09:54:18Z</time>
      </trkpt>
      <trkpt lat="46.32259" lon="5.9957">
        <ele>1675.72</ele>
        <time>2015-10-23T09:54:22Z</time>
      </trkpt>
      <trkpt lat="46.32258" lon="5.99569">
        <ele>1676.2</ele>
        <time>2015-10-23T09:54:24Z</time>
      </trkpt>
      <trkpt lat="46.32256" lon="5.99566">
        <ele>1677.16</ele>
        <time>2015-10-23T09:54:27Z</time>
      </trkpt>
      <trkpt lat="46.32254" lon="5.9956">
        <ele>1678.6</ele>
        <time>2015-10-23T09:54:32Z</time>
      </trkpt>
      <trkpt lat="46.32249" lon="5.99556">
        <ele>1680.52</ele>
        <time>2015-10-23T09:54:37Z</time>
      </trkpt>
      <trkpt lat="46.32247" lon="5.99551">
        <ele>1681.48</ele>
        <time>2015-10-23T09:54:41Z</time>
      </trkpt>
      <trkpt lat="46.32236" lon="5.99544">
        <ele>1683.89</ele>
        <time>2015-10-23T09:54:51Z</time>
      </trkpt>
      <trkpt lat="46.32233" lon="5.99538">
        <ele>1684.85</ele>
        <time>2015-10-23T09:54:56Z</time>
      </trkpt>
      <trkpt lat="46.32225" lon="5.99534">
        <ele>1685.33</ele>
        <time>2015-10-23T09:55:05Z</time>
      </trkpt>
      <trkpt lat="46.32226" lon="5.99534">
        <ele>1685.33</ele>
        <time>2015-10-23T09:55:26Z</time>
      </trkpt>
      <trkpt lat="46.32227" lon="5.99469">
        <ele>1683.89</ele>
        <time>2015-10-23T10:35:25Z</time>
      </trkpt>
      <trkpt lat="46.32236" lon="5.99464">
        <ele>1683.89</ele>
        <time>2015-10-23T10:35:26Z</time>
      </trkpt>
      <trkpt lat="46.32227" lon="5.99518">
        <ele>1683.41</ele>
        <time>2015-10-23T10:35:32Z</time>
      </trkpt>
      <trkpt lat="46.3223" lon="5.99525">
        <ele>1687.25</ele>
        <time>2015-10-23T10:35:34Z</time>
      </trkpt>
      <trkpt lat="46.32239" lon="5.99536">
        <ele>1689.17</ele>
        <time>2015-10-23T10:35:44Z</time>
      </trkpt>
      <trkpt lat="46.32241" lon="5.99536">
        <ele>1689.17</ele>
        <time>2015-10-23T10:35:46Z</time>
      </trkpt>
      <trkpt lat="46.32246" lon="5.99534">
        <ele>1687.25</ele>
        <time>2015-10-23T10:35:52Z</time>
      </trkpt>
      <trkpt lat="46.32251" lon="5.99531">
        <ele>1686.77</ele>
        <time>2015-10-23T10:35:57Z</time>
      </trkpt>
      <trkpt lat="46.32264" lon="5.99527">
        <ele>1685.81</ele>
        <time>2015-10-23T10:36:08Z</time>
      </trkpt>
      <trkpt lat="46.32268" lon="5.99525">
        <ele>1685.33</ele>
        <time>2015-10-23T10:36:12Z</time>
      </trkpt>
      <trkpt lat="46.32271" lon="5.99525">
        <ele>1684.85</ele>
        <time>2015-10-23T10:36:16Z</time>
      </trkpt>
      <trkpt lat="46.3228" lon="5.99523">
        <ele>1682.93</ele>
        <time>2015-10-23T10:36:25Z</time>
      </trkpt>
      <trkpt lat="46.32287" lon="5.99524">
        <ele>1680.04</ele>
        <time>2015-10-23T10:36:35Z</time>
      </trkpt>
      <trkpt lat="46.32288" lon="5.99522">
        <ele>1680.04</ele>
        <time>2015-10-23T10:36:37Z</time>
      </trkpt>
      <trkpt lat="46.3229" lon="5.99521">
        <ele>1679.08</ele>
        <time>2015-10-23T10:36:40Z</time>
      </trkpt>
      <trkpt lat="46.32293" lon="5.99524">
        <ele>1678.12</ele>
        <time>2015-10-23T10:36:45Z</time>
      </trkpt>
      <trkpt lat="46.32301" lon="5.9951">
        <ele>1676.2</ele>
        <time>2015-10-23T10:36:57Z</time>
      </trkpt>
      <trkpt lat="46.32307" lon="5.99503">
        <ele>1674.27</ele>
        <time>2015-10-23T10:37:05Z</time>
      </trkpt>
      <trkpt lat="46.32309" lon="5.99496">
        <ele>1672.83</ele>
        <time>2015-10-23T10:37:10Z</time>
      </trkpt>
      <trkpt lat="46.32319" lon="5.99486">
        <ele>1671.39</ele>
        <time>2015-10-23T10:37:22Z</time>
      </trkpt>
      <trkpt lat="46.32326" lon="5.99485">
        <ele>1669.47</ele>
        <time>2015-10-23T10:37:30Z</time>
      </trkpt>
      <trkpt lat="46.32337" lon="5.99477">
        <ele>1667.54</ele>
        <time>2015-10-23T10:37:42Z</time>
      </trkpt>
      <trkpt lat="46.32349" lon="5.99472">
        <ele>1665.62</ele>
        <time>2015-10-23T10:37:55Z</time>
      </trkpt>
      <trkpt lat="46.32352" lon="5.99474">
        <ele>1664.66</ele>
        <time>2015-10-23T10:37:58Z</time>
      </trkpt>
      <trkpt lat="46.32353" lon="5.99476">
        <ele>1664.18</ele>
        <time>2015-10-23T10:38:00Z</time>
      </trkpt>
      <trkpt lat="46.32357" lon="5.99479">
        <ele>1663.22</ele>
        <time>2015-10-23T10:38:05Z</time>
      </trkpt>
      <trkpt lat="46.32361" lon="5.9948">
        <ele>1661.78</ele>
        <time>2015-10-23T10:38:08Z</time>
      </trkpt>
      <trkpt lat="46.32361" lon="5.9948">
        <ele>1661.78</ele>
        <time>2015-10-23T10:38:09Z</time>
      </trkpt>
      <trkpt lat="46.32365" lon="5.99481">
        <ele>1660.81</ele>
        <time>2015-10-23T10:38:12Z</time>
      </trkpt>
      <trkpt lat="46.32369" lon="5.99482">
        <ele>1659.37</ele>
        <time>2015-10-23T10:38:17Z</time>
      </trkpt>
      <trkpt lat="46.32377" lon="5.99488">
        <ele>1656.49</ele>
        <time>2015-10-23T10:38:29Z</time>
      </trkpt>
      <trkpt lat="46.32378" lon="5.9949">
        <ele>1655.53</ele>
        <time>2015-10-23T10:38:31Z</time>
      </trkpt>
      <trkpt lat="46.32384" lon="5.99491">
        <ele>1653.6</ele>
        <time>2015-10-23T10:38:38Z</time>
      </trkpt>
      <trkpt lat="46.32386" lon="5.99491">
        <ele>1652.64</ele>
        <time>2015-10-23T10:38:41Z</time>
      </trkpt>
      <trkpt lat="46.32389" lon="5.9949">
        <ele>1651.2</ele>
        <time>2015-10-23T10:38:45Z</time>
      </trkpt>
      <trkpt lat="46.32391" lon="5.99492">
        <ele>1650.72</ele>
        <time>2015-10-23T10:38:47Z</time>
      </trkpt>
      <trkpt lat="46.32395" lon="5.99497">
        <ele>1648.8</ele>
        <time>2015-10-23T10:38:53Z</time>
      </trkpt>
      <trkpt lat="46.32397" lon="5.99498">
        <ele>1647.84</ele>
        <time>2015-10-23T10:38:57Z</time>
      </trkpt>
      <trkpt lat="46.32402" lon="5.995">
        <ele>1645.43</ele>
        <time>2015-10-23T10:39:03Z</time>
      </trkpt>
      <trkpt lat="46.32408" lon="5.99502">
        <ele>1642.07</ele>
        <time>2015-10-23T10:39:14Z</time>
      </trkpt>
      <trkpt lat="46.32411" lon="5.99508">
        <ele>1641.59</ele>
        <time>2015-10-23T10:39:18Z</time>
      </trkpt>
      <trkpt lat="46.32412" lon="5.99512">
        <ele>1641.11</ele>
        <time>2015-10-23T10:39:21Z</time>
      </trkpt>
      <trkpt lat="46.32414" lon="5.99514">
        <ele>1640.15</ele>
        <time>2015-10-23T10:39:23Z</time>
      </trkpt>
      <trkpt lat="46.32417" lon="5.99518">
        <ele>1638.22</ele>
        <time>2015-10-23T10:39:29Z</time>
      </trkpt>
      <trkpt lat="46.32425" lon="5.99515">
        <ele>1635.34</ele>
        <time>2015-10-23T10:39:40Z</time>
      </trkpt>
      <trkpt lat="46.32431" lon="5.99522">
        <ele>1631.98</ele>
        <time>2015-10-23T10:39:51Z</time>
      </trkpt>
      <trkpt lat="46.32431" lon="5.99522">
        <ele>1631.49</ele>
        <time>2015-10-23T10:39:53Z</time>
      </trkpt>
      <trkpt lat="46.32436" lon="5.99525">
        <ele>1629.09</ele>
        <time>2015-10-23T10:40:01Z</time>
      </trkpt>
      <trkpt lat="46.32441" lon="5.99528">
        <ele>1627.17</ele>
        <time>2015-10-23T10:40:06Z</time>
      </trkpt>
      <trkpt lat="46.32444" lon="5.99528">
        <ele>1626.21</ele>
        <time>2015-10-23T10:40:09Z</time>
      </trkpt>
      <trkpt lat="46.3245" lon="5.99524">
        <ele>1624.28</ele>
        <time>2015-10-23T10:40:16Z</time>
      </trkpt>
      <trkpt lat="46.32455" lon="5.99523">
        <ele>1622.84</ele>
        <time>2015-10-23T10:40:20Z</time>
      </trkpt>
      <trkpt lat="46.32459" lon="5.99528">
        <ele>1621.4</ele>
        <time>2015-10-23T10:40:26Z</time>
      </trkpt>
      <trkpt lat="46.32461" lon="5.99532">
        <ele>1620.44</ele>
        <time>2015-10-23T10:40:29Z</time>
      </trkpt>
      <trkpt lat="46.32462" lon="5.9954">
        <ele>1619.48</ele>
        <time>2015-10-23T10:40:35Z</time>
      </trkpt>
      <trkpt lat="46.32463" lon="5.99543">
        <ele>1618.52</ele>
        <time>2015-10-23T10:40:38Z</time>
      </trkpt>
      <trkpt lat="46.32465" lon="5.99545">
        <ele>1618.04</ele>
        <time>2015-10-23T10:40:41Z</time>
      </trkpt>
      <trkpt lat="46.32468" lon="5.99546">
        <ele>1616.59</ele>
        <time>2015-10-23T10:40:44Z</time>
      </trkpt>
      <trkpt lat="46.32472" lon="5.99541">
        <ele>1616.11</ele>
        <time>2015-10-23T10:40:49Z</time>
      </trkpt>
      <trkpt lat="46.32474" lon="5.99541">
        <ele>1615.63</ele>
        <time>2015-10-23T10:40:51Z</time>
      </trkpt>
      <trkpt lat="46.32478" lon="5.99538">
        <ele>1614.67</ele>
        <time>2015-10-23T10:40:55Z</time>
      </trkpt>
      <trkpt lat="46.32484" lon="5.99534">
        <ele>1613.23</ele>
        <time>2015-10-23T10:41:02Z</time>
      </trkpt>
      <trkpt lat="46.32488" lon="5.99534">
        <ele>1611.79</ele>
        <time>2015-10-23T10:41:06Z</time>
      </trkpt>
      <trkpt lat="46.32489" lon="5.99536">
        <ele>1611.31</ele>
        <time>2015-10-23T10:41:09Z</time>
      </trkpt>
      <trkpt lat="46.32497" lon="5.99538">
        <ele>1609.38</ele>
        <time>2015-10-23T10:41:17Z</time>
      </trkpt>
      <trkpt lat="46.325" lon="5.99547">
        <ele>1607.94</ele>
        <time>2015-10-23T10:41:24Z</time>
      </trkpt>
      <trkpt lat="46.32503" lon="5.99553">
        <ele>1606.98</ele>
        <time>2015-10-23T10:41:29Z</time>
      </trkpt>
      <trkpt lat="46.32504" lon="5.99557">
        <ele>1606.5</ele>
        <time>2015-10-23T10:41:32Z</time>
      </trkpt>
      <trkpt lat="46.32507" lon="5.99562">
        <ele>1605.54</ele>
        <time>2015-10-23T10:41:36Z</time>
      </trkpt>
      <trkpt lat="46.32511" lon="5.99563">
        <ele>1605.06</ele>
        <time>2015-10-23T10:41:41Z</time>
      </trkpt>
      <trkpt lat="46.32513" lon="5.99564">
        <ele>1604.1</ele>
        <time>2015-10-23T10:41:43Z</time>
      </trkpt>
      <trkpt lat="46.32518" lon="5.99568">
        <ele>1602.66</ele>
        <time>2015-10-23T10:41:48Z</time>
      </trkpt>
      <trkpt lat="46.32522" lon="5.99573">
        <ele>1601.69</ele>
        <time>2015-10-23T10:41:53Z</time>
      </trkpt>
      <trkpt lat="46.32533" lon="5.99581">
        <ele>1599.29</ele>
        <time>2015-10-23T10:42:06Z</time>
      </trkpt>
      <trkpt lat="46.32538" lon="5.99583">
        <ele>1599.29</ele>
        <time>2015-10-23T10:42:12Z</time>
      </trkpt>
      <trkpt lat="46.32542" lon="5.99588">
        <ele>1598.81</ele>
        <time>2015-10-23T10:42:17Z</time>
      </trkpt>
      <trkpt lat="46.32557" lon="5.99592">
        <ele>1596.89</ele>
        <time>2015-10-23T10:42:29Z</time>
      </trkpt>
      <trkpt lat="46.32567" lon="5.99595">
        <ele>1598.33</ele>
        <time>2015-10-23T10:42:38Z</time>
      </trkpt>
      <trkpt lat="46.32571" lon="5.99595">
        <ele>1597.85</ele>
        <time>2015-10-23T10:42:41Z</time>
      </trkpt>
      <trkpt lat="46.32573" lon="5.99596">
        <ele>1597.85</ele>
        <time>2015-10-23T10:42:45Z</time>
      </trkpt>
      <trkpt lat="46.32579" lon="5.99599">
        <ele>1597.37</ele>
        <time>2015-10-23T10:42:51Z</time>
      </trkpt>
      <trkpt lat="46.32589" lon="5.99611">
        <ele>1595.93</ele>
        <time>2015-10-23T10:43:02Z</time>
      </trkpt>
      <trkpt lat="46.32595" lon="5.99615">
        <ele>1595.45</ele>
        <time>2015-10-23T10:43:07Z</time>
      </trkpt>
      <trkpt lat="46.32598" lon="5.99616">
        <ele>1594.48</ele>
        <time>2015-10-23T10:43:10Z</time>
      </trkpt>
      <trkpt lat="46.32613" lon="5.99615">
        <ele>1593.52</ele>
        <time>2015-10-23T10:43:22Z</time>
      </trkpt>
      <trkpt lat="46.3262" lon="5.99616">
        <ele>1592.56</ele>
        <time>2015-10-23T10:43:30Z</time>
      </trkpt>
      <trkpt lat="46.32623" lon="5.99617">
        <ele>1592.08</ele>
        <time>2015-10-23T10:43:32Z</time>
      </trkpt>
      <trkpt lat="46.32626" lon="5.99617">
        <ele>1591.6</ele>
        <time>2015-10-23T10:43:35Z</time>
      </trkpt>
      <trkpt lat="46.3263" lon="5.99619">
        <ele>1591.12</ele>
        <time>2015-10-23T10:43:39Z</time>
      </trkpt>
      <trkpt lat="46.32637" lon="5.99623">
        <ele>1589.68</ele>
        <time>2015-10-23T10:43:46Z</time>
      </trkpt>
      <trkpt lat="46.32642" lon="5.99624">
        <ele>1589.2</ele>
        <time>2015-10-23T10:43:50Z</time>
      </trkpt>
      <trkpt lat="46.32649" lon="5.9963">
        <ele>1588.72</ele>
        <time>2015-10-23T10:43:56Z</time>
      </trkpt>
      <trkpt lat="46.32652" lon="5.99634">
        <ele>1588.72</ele>
        <time>2015-10-23T10:43:59Z</time>
      </trkpt>
      <trkpt lat="46.32656" lon="5.99644">
        <ele>1587.75</ele>
        <time>2015-10-23T10:44:06Z</time>
      </trkpt>
      <trkpt lat="46.32672" lon="5.99659">
        <ele>1586.31</ele>
        <time>2015-10-23T10:44:20Z</time>
      </trkpt>
      <trkpt lat="46.32686" lon="5.99669">
        <ele>1585.35</ele>
        <time>2015-10-23T10:44:31Z</time>
      </trkpt>
      <trkpt lat="46.32689" lon="5.99673">
        <ele>1584.87</ele>
        <time>2015-10-23T10:44:35Z</time>
      </trkpt>
      <trkpt lat="46.32697" lon="5.9968">
        <ele>1583.91</ele>
        <time>2015-10-23T10:44:43Z</time>
      </trkpt>
      <trkpt lat="46.32702" lon="5.99687">
        <ele>1583.43</ele>
        <time>2015-10-23T10:44:48Z</time>
      </trkpt>
      <trkpt lat="46.32707" lon="5.9969">
        <ele>1582.95</ele>
        <time>2015-10-23T10:44:52Z</time>
      </trkpt>
      <trkpt lat="46.32719" lon="5.99697">
        <ele>1581.51</ele>
        <time>2015-10-23T10:45:02Z</time>
      </trkpt>
      <trkpt lat="46.32732" lon="5.99703">
        <ele>1579.1</ele>
        <time>2015-10-23T10:45:14Z</time>
      </trkpt>
      <trkpt lat="46.32734" lon="5.99704">
        <ele>1579.1</ele>
        <time>2015-10-23T10:45:16Z</time>
      </trkpt>
      <trkpt lat="46.3274" lon="5.99709">
        <ele>1578.14</ele>
        <time>2015-10-23T10:45:22Z</time>
      </trkpt>
      <trkpt lat="46.32746" lon="5.99712">
        <ele>1577.66</ele>
        <time>2015-10-23T10:45:26Z</time>
      </trkpt>
      <trkpt lat="46.32763" lon="5.99713">
        <ele>1575.74</ele>
        <time>2015-10-23T10:45:39Z</time>
      </trkpt>
      <trkpt lat="46.32765" lon="5.99714">
        <ele>1575.26</ele>
        <time>2015-10-23T10:45:41Z</time>
      </trkpt>
      <trkpt lat="46.32771" lon="5.99713">
        <ele>1574.78</ele>
        <time>2015-10-23T10:45:46Z</time>
      </trkpt>
      <trkpt lat="46.32786" lon="5.99712">
        <ele>1572.85</ele>
        <time>2015-10-23T10:45:58Z</time>
      </trkpt>
      <trkpt lat="46.32799" lon="5.99711">
        <ele>1571.89</ele>
        <time>2015-10-23T10:46:09Z</time>
      </trkpt>
      <trkpt lat="46.32812" lon="5.99717">
        <ele>1570.93</ele>
        <time>2015-10-23T10:46:19Z</time>
      </trkpt>
      <trkpt lat="46.32826" lon="5.99728">
        <ele>1570.45</ele>
        <time>2015-10-23T10:46:31Z</time>
      </trkpt>
      <trkpt lat="46.32831" lon="5.9973">
        <ele>1570.45</ele>
        <time>2015-10-23T10:46:35Z</time>
      </trkpt>
      <trkpt lat="46.32835" lon="5.99732">
        <ele>1570.93</ele>
        <time>2015-10-23T10:46:39Z</time>
      </trkpt>
      <trkpt lat="46.32845" lon="5.99741">
        <ele>1571.41</ele>
        <time>2015-10-23T10:46:48Z</time>
      </trkpt>
      <trkpt lat="46.32859" lon="5.9974">
        <ele>1570.93</ele>
        <time>2015-10-23T10:46:59Z</time>
      </trkpt>
      <trkpt lat="46.32861" lon="5.9974">
        <ele>1570.93</ele>
        <time>2015-10-23T10:47:01Z</time>
      </trkpt>
      <trkpt lat="46.32864" lon="5.9974">
        <ele>1571.89</ele>
        <time>2015-10-23T10:47:04Z</time>
      </trkpt>
      <trkpt lat="46.32866" lon="5.99741">
        <ele>1571.89</ele>
        <time>2015-10-23T10:47:06Z</time>
      </trkpt>
      <trkpt lat="46.32869" lon="5.99741">
        <ele>1571.89</ele>
        <time>2015-10-23T10:47:09Z</time>
      </trkpt>
      <trkpt lat="46.32882" lon="5.9974">
        <ele>1570.45</ele>
        <time>2015-10-23T10:47:21Z</time>
      </trkpt>
      <trkpt lat="46.32883" lon="5.99739">
        <ele>1569.97</ele>
        <time>2015-10-23T10:47:39Z</time>
      </trkpt>
      <trkpt lat="46.32884" lon="5.99739">
        <ele>1570.45</ele>
        <time>2015-10-23T10:47:56Z</time>
      </trkpt>
      <trkpt lat="46.32886" lon="5.9974">
        <ele>1569.97</ele>
        <time>2015-10-23T10:47:59Z</time>
      </trkpt>
      <trkpt lat="46.329" lon="5.99742">
        <ele>1568.05</ele>
        <time>2015-10-23T10:48:12Z</time>
      </trkpt>
      <trkpt lat="46.32906" lon="5.99743">
        <ele>1568.05</ele>
        <time>2015-10-23T10:48:17Z</time>
      </trkpt>
      <trkpt lat="46.3291" lon="5.99745">
        <ele>1567.09</ele>
        <time>2015-10-23T10:48:21Z</time>
      </trkpt>
      <trkpt lat="46.32924" lon="5.99743">
        <ele>1566.12</ele>
        <time>2015-10-23T10:48:32Z</time>
      </trkpt>
      <trkpt lat="46.32933" lon="5.99741">
        <ele>1565.64</ele>
        <time>2015-10-23T10:48:41Z</time>
      </trkpt>
      <trkpt lat="46.32947" lon="5.99739">
        <ele>1567.09</ele>
        <time>2015-10-23T10:48:54Z</time>
      </trkpt>
      <trkpt lat="46.32947" lon="5.99739">
        <ele>1566.61</ele>
        <time>2015-10-23T10:48:55Z</time>
      </trkpt>
      <trkpt lat="46.32951" lon="5.99738">
        <ele>1566.61</ele>
        <time>2015-10-23T10:48:58Z</time>
      </trkpt>
      <trkpt lat="46.32957" lon="5.99739">
        <ele>1566.12</ele>
        <time>2015-10-23T10:49:04Z</time>
      </trkpt>
      <trkpt lat="46.32961" lon="5.99742">
        <ele>1565.64</ele>
        <time>2015-10-23T10:49:17Z</time>
      </trkpt>
      <trkpt lat="46.32961" lon="5.99742">
        <ele>1565.64</ele>
        <time>2015-10-23T10:49:56Z</time>
      </trkpt>
      <trkpt lat="46.32961" lon="5.99742">
        <ele>1565.16</ele>
        <time>2015-10-23T10:50:02Z</time>
      </trkpt>
      <trkpt lat="46.32965" lon="5.9975">
        <ele>1564.2</ele>
        <time>2015-10-23T10:50:09Z</time>
      </trkpt>
      <trkpt lat="46.32971" lon="5.99758">
        <ele>1560.84</ele>
        <time>2015-10-23T10:50:19Z</time>
      </trkpt>
      <trkpt lat="46.32972" lon="5.99769">
        <ele>1559.4</ele>
        <time>2015-10-23T10:50:26Z</time>
      </trkpt>
      <trkpt lat="46.32974" lon="5.99776">
        <ele>1558.43</ele>
        <time>2015-10-23T10:50:30Z</time>
      </trkpt>
      <trkpt lat="46.32983" lon="5.99795">
        <ele>1556.99</ele>
        <time>2015-10-23T10:50:43Z</time>
      </trkpt>
      <trkpt lat="46.32984" lon="5.99797">
        <ele>1556.99</ele>
        <time>2015-10-23T10:50:45Z</time>
      </trkpt>
      <trkpt lat="46.32986" lon="5.99802">
        <ele>1556.99</ele>
        <time>2015-10-23T10:50:48Z</time>
      </trkpt>
      <trkpt lat="46.32989" lon="5.99807">
        <ele>1556.51</ele>
        <time>2015-10-23T10:50:52Z</time>
      </trkpt>
      <trkpt lat="46.32992" lon="5.99807">
        <ele>1555.07</ele>
        <time>2015-10-23T10:51:02Z</time>
      </trkpt>
      <trkpt lat="46.32993" lon="5.99808">
        <ele>1553.63</ele>
        <time>2015-10-23T10:51:05Z</time>
      </trkpt>
      <trkpt lat="46.32995" lon="5.99808">
        <ele>1552.67</ele>
        <time>2015-10-23T10:51:07Z</time>
      </trkpt>
      <trkpt lat="46.33005" lon="5.99815">
        <ele>1550.26</ele>
        <time>2015-10-23T10:51:18Z</time>
      </trkpt>
      <trkpt lat="46.33016" lon="5.99822">
        <ele>1549.78</ele>
        <time>2015-10-23T10:51:27Z</time>
      </trkpt>
      <trkpt lat="46.33017" lon="5.99823">
        <ele>1550.26</ele>
        <time>2015-10-23T10:51:28Z</time>
      </trkpt>
      <trkpt lat="46.33024" lon="5.99823">
        <ele>1549.3</ele>
        <time>2015-10-23T10:51:34Z</time>
      </trkpt>
      <trkpt lat="46.33027" lon="5.99824">
        <ele>1549.78</ele>
        <time>2015-10-23T10:51:36Z</time>
      </trkpt>
      <trkpt lat="46.33029" lon="5.99825">
        <ele>1550.26</ele>
        <time>2015-10-23T10:51:38Z</time>
      </trkpt>
      <trkpt lat="46.33037" lon="5.99829">
        <ele>1549.3</ele>
        <time>2015-10-23T10:51:46Z</time>
      </trkpt>
      <trkpt lat="46.33047" lon="5.9983">
        <ele>1549.78</ele>
        <time>2015-10-23T10:51:56Z</time>
      </trkpt>
      <trkpt lat="46.3305" lon="5.99831">
        <ele>1550.26</ele>
        <time>2015-10-23T10:51:59Z</time>
      </trkpt>
      <trkpt lat="46.33054" lon="5.99835">
        <ele>1550.74</ele>
        <time>2015-10-23T10:52:03Z</time>
      </trkpt>
      <trkpt lat="46.33057" lon="5.9984">
        <ele>1550.74</ele>
        <time>2015-10-23T10:52:07Z</time>
      </trkpt>
      <trkpt lat="46.3306" lon="5.99844">
        <ele>1551.22</ele>
        <time>2015-10-23T10:52:11Z</time>
      </trkpt>
      <trkpt lat="46.33064" lon="5.99848">
        <ele>1551.71</ele>
        <time>2015-10-23T10:52:16Z</time>
      </trkpt>
      <trkpt lat="46.33066" lon="5.99851">
        <ele>1551.22</ele>
        <time>2015-10-23T10:52:19Z</time>
      </trkpt>
      <trkpt lat="46.3307" lon="5.99855">
        <ele>1551.71</ele>
        <time>2015-10-23T10:52:23Z</time>
      </trkpt>
      <trkpt lat="46.33073" lon="5.99858">
        <ele>1551.71</ele>
        <time>2015-10-23T10:52:26Z</time>
      </trkpt>
      <trkpt lat="46.33077" lon="5.9986">
        <ele>1552.19</ele>
        <time>2015-10-23T10:52:31Z</time>
      </trkpt>
      <trkpt lat="46.33079" lon="5.99862">
        <ele>1552.67</ele>
        <time>2015-10-23T10:52:33Z</time>
      </trkpt>
      <trkpt lat="46.33087" lon="5.99867">
        <ele>1553.15</ele>
        <time>2015-10-23T10:52:41Z</time>
      </trkpt>
      <trkpt lat="46.3309" lon="5.9987">
        <ele>1553.63</ele>
        <time>2015-10-23T10:52:45Z</time>
      </trkpt>
      <trkpt lat="46.33093" lon="5.99872">
        <ele>1554.11</ele>
        <time>2015-10-23T10:52:49Z</time>
      </trkpt>
      <trkpt lat="46.33096" lon="5.99875">
        <ele>1554.59</ele>
        <time>2015-10-23T10:52:52Z</time>
      </trkpt>
      <trkpt lat="46.33099" lon="5.99878">
        <ele>1555.07</ele>
        <time>2015-10-23T10:52:56Z</time>
      </trkpt>
      <trkpt lat="46.33102" lon="5.9988">
        <ele>1555.55</ele>
        <time>2015-10-23T10:53:00Z</time>
      </trkpt>
      <trkpt lat="46.33104" lon="5.99882">
        <ele>1555.55</ele>
        <time>2015-10-23T10:53:02Z</time>
      </trkpt>
      <trkpt lat="46.33109" lon="5.99886">
        <ele>1556.03</ele>
        <time>2015-10-23T10:53:07Z</time>
      </trkpt>
      <trkpt lat="46.33116" lon="5.99892">
        <ele>1556.51</ele>
        <time>2015-10-23T10:53:15Z</time>
      </trkpt>
      <trkpt lat="46.33118" lon="5.99894">
        <ele>1556.51</ele>
        <time>2015-10-23T10:53:17Z</time>
      </trkpt>
      <trkpt lat="46.33124" lon="5.99899">
        <ele>1557.47</ele>
        <time>2015-10-23T10:53:24Z</time>
      </trkpt>
      <trkpt lat="46.33126" lon="5.99901">
        <ele>1557.47</ele>
        <time>2015-10-23T10:53:27Z</time>
      </trkpt>
      <trkpt lat="46.33131" lon="5.99907">
        <ele>1558.43</ele>
        <time>2015-10-23T10:53:34Z</time>
      </trkpt>
      <trkpt lat="46.33132" lon="5.99911">
        <ele>1557.95</ele>
        <time>2015-10-23T10:53:37Z</time>
      </trkpt>
      <trkpt lat="46.33135" lon="5.99913">
        <ele>1558.43</ele>
        <time>2015-10-23T10:53:41Z</time>
      </trkpt>
      <trkpt lat="46.33139" lon="5.99915">
        <ele>1558.43</ele>
        <time>2015-10-23T10:53:45Z</time>
      </trkpt>
      <trkpt lat="46.33141" lon="5.99917">
        <ele>1558.92</ele>
        <time>2015-10-23T10:53:48Z</time>
      </trkpt>
      <trkpt lat="46.33146" lon="5.99919">
        <ele>1559.4</ele>
        <time>2015-10-23T10:53:53Z</time>
      </trkpt>
      <trkpt lat="46.33151" lon="5.99923">
        <ele>1558.92</ele>
        <time>2015-10-23T10:53:59Z</time>
      </trkpt>
      <trkpt lat="46.33161" lon="5.99927">
        <ele>1559.4</ele>
        <time>2015-10-23T10:54:08Z</time>
      </trkpt>
      <trkpt lat="46.33172" lon="5.99929">
        <ele>1558.43</ele>
        <time>2015-10-23T10:54:17Z</time>
      </trkpt>
      <trkpt lat="46.33177" lon="5.9993">
        <ele>1559.4</ele>
        <time>2015-10-23T10:54:22Z</time>
      </trkpt>
      <trkpt lat="46.33179" lon="5.99929">
        <ele>1558.92</ele>
        <time>2015-10-23T10:54:24Z</time>
      </trkpt>
      <trkpt lat="46.33183" lon="5.99928">
        <ele>1559.88</ele>
        <time>2015-10-23T10:54:29Z</time>
      </trkpt>
      <trkpt lat="46.33186" lon="5.99927">
        <ele>1560.84</ele>
        <time>2015-10-23T10:54:32Z</time>
      </trkpt>
      <trkpt lat="46.33189" lon="5.99925">
        <ele>1561.8</ele>
        <time>2015-10-23T10:54:35Z</time>
      </trkpt>
      <trkpt lat="46.3319" lon="5.99921">
        <ele>1561.8</ele>
        <time>2015-10-23T10:54:38Z</time>
      </trkpt>
      <trkpt lat="46.33191" lon="5.99915">
        <ele>1562.28</ele>
        <time>2015-10-23T10:54:42Z</time>
      </trkpt>
      <trkpt lat="46.33192" lon="5.99906">
        <ele>1563.24</ele>
        <time>2015-10-23T10:54:48Z</time>
      </trkpt>
      <trkpt lat="46.33193" lon="5.99902">
        <ele>1563.72</ele>
        <time>2015-10-23T10:54:51Z</time>
      </trkpt>
      <trkpt lat="46.33195" lon="5.99898">
        <ele>1564.68</ele>
        <time>2015-10-23T10:54:55Z</time>
      </trkpt>
      <trkpt lat="46.332" lon="5.99887">
        <ele>1564.2</ele>
        <time>2015-10-23T10:55:03Z</time>
      </trkpt>
      <trkpt lat="46.33203" lon="5.99879">
        <ele>1564.68</ele>
        <time>2015-10-23T10:55:09Z</time>
      </trkpt>
      <trkpt lat="46.33211" lon="5.9987">
        <ele>1566.12</ele>
        <time>2015-10-23T10:55:19Z</time>
      </trkpt>
      <trkpt lat="46.33213" lon="5.99868">
        <ele>1566.12</ele>
        <time>2015-10-23T10:55:21Z</time>
      </trkpt>
      <trkpt lat="46.33219" lon="5.99868">
        <ele>1565.64</ele>
        <time>2015-10-23T10:55:27Z</time>
      </trkpt>
      <trkpt lat="46.33229" lon="5.99865">
        <ele>1564.2</ele>
        <time>2015-10-23T10:55:36Z</time>
      </trkpt>
      <trkpt lat="46.33238" lon="5.99861">
        <ele>1563.72</ele>
        <time>2015-10-23T10:55:44Z</time>
      </trkpt>
      <trkpt lat="46.33247" lon="5.99858">
        <ele>1563.24</ele>
        <time>2015-10-23T10:55:51Z</time>
      </trkpt>
      <trkpt lat="46.33251" lon="5.99857">
        <ele>1564.2</ele>
        <time>2015-10-23T10:55:54Z</time>
      </trkpt>
      <trkpt lat="46.33261" lon="5.99851">
        <ele>1564.2</ele>
        <time>2015-10-23T10:56:04Z</time>
      </trkpt>
      <trkpt lat="46.33271" lon="5.99846">
        <ele>1564.2</ele>
        <time>2015-10-23T10:56:11Z</time>
      </trkpt>
      <trkpt lat="46.33278" lon="5.99845">
        <ele>1565.16</ele>
        <time>2015-10-23T10:56:20Z</time>
      </trkpt>
      <trkpt lat="46.33281" lon="5.99845">
        <ele>1564.68</ele>
        <time>2015-10-23T10:56:23Z</time>
      </trkpt>
      <trkpt lat="46.33284" lon="5.99844">
        <ele>1563.72</ele>
        <time>2015-10-23T10:56:40Z</time>
      </trkpt>
      <trkpt lat="46.33284" lon="5.99844">
        <ele>1564.2</ele>
        <time>2015-10-23T10:57:06Z</time>
      </trkpt>
      <trkpt lat="46.33285" lon="5.99844">
        <ele>1563.72</ele>
        <time>2015-10-23T10:57:10Z</time>
      </trkpt>
      <trkpt lat="46.33289" lon="5.99845">
        <ele>1563.72</ele>
        <time>2015-10-23T10:57:14Z</time>
      </trkpt>
      <trkpt lat="46.33299" lon="5.99841">
        <ele>1562.28</ele>
        <time>2015-10-23T10:57:24Z</time>
      </trkpt>
      <trkpt lat="46.33306" lon="5.99833">
        <ele>1560.36</ele>
        <time>2015-10-23T10:57:35Z</time>
      </trkpt>
      <trkpt lat="46.33313" lon="5.99825">
        <ele>1557.95</ele>
        <time>2015-10-23T10:57:45Z</time>
      </trkpt>
      <trkpt lat="46.33319" lon="5.9982">
        <ele>1556.51</ele>
        <time>2015-10-23T10:57:51Z</time>
      </trkpt>
      <trkpt lat="46.33325" lon="5.99811">
        <ele>1555.07</ele>
        <time>2015-10-23T10:57:58Z</time>
      </trkpt>
      <trkpt lat="46.33326" lon="5.99804">
        <ele>1554.11</ele>
        <time>2015-10-23T10:58:05Z</time>
      </trkpt>
      <trkpt lat="46.33322" lon="5.99797">
        <ele>1553.15</ele>
        <time>2015-10-23T10:58:10Z</time>
      </trkpt>
      <trkpt lat="46.3332" lon="5.99791">
        <ele>1551.71</ele>
        <time>2015-10-23T10:58:14Z</time>
      </trkpt>
      <trkpt lat="46.33315" lon="5.9978">
        <ele>1548.82</ele>
        <time>2015-10-23T10:58:24Z</time>
      </trkpt>
      <trkpt lat="46.33314" lon="5.9977">
        <ele>1546.9</ele>
        <time>2015-10-23T10:58:31Z</time>
      </trkpt>
      <trkpt lat="46.33311" lon="5.99762">
        <ele>1545.46</ele>
        <time>2015-10-23T10:58:38Z</time>
      </trkpt>
      <trkpt lat="46.33311" lon="5.99755">
        <ele>1544.01</ele>
        <time>2015-10-23T10:58:43Z</time>
      </trkpt>
      <trkpt lat="46.33306" lon="5.99739">
        <ele>1542.57</ele>
        <time>2015-10-23T10:58:54Z</time>
      </trkpt>
      <trkpt lat="46.33306" lon="5.99738">
        <ele>1542.09</ele>
        <time>2015-10-23T10:58:55Z</time>
      </trkpt>
      <trkpt lat="46.33303" lon="5.99726">
        <ele>1540.17</ele>
        <time>2015-10-23T10:59:03Z</time>
      </trkpt>
      <trkpt lat="46.33302" lon="5.99723">
        <ele>1540.17</ele>
        <time>2015-10-23T10:59:05Z</time>
      </trkpt>
      <trkpt lat="46.33299" lon="5.99706">
        <ele>1538.25</ele>
        <time>2015-10-23T10:59:17Z</time>
      </trkpt>
      <trkpt lat="46.33297" lon="5.99702">
        <ele>1537.77</ele>
        <time>2015-10-23T10:59:20Z</time>
      </trkpt>
      <trkpt lat="46.33296" lon="5.99699">
        <ele>1537.77</ele>
        <time>2015-10-23T10:59:22Z</time>
      </trkpt>
      <trkpt lat="46.33294" lon="5.99682">
        <ele>1535.84</ele>
        <time>2015-10-23T10:59:33Z</time>
      </trkpt>
      <trkpt lat="46.33295" lon="5.99678">
        <ele>1534.88</ele>
        <time>2015-10-23T10:59:37Z</time>
      </trkpt>
      <trkpt lat="46.33296" lon="5.99673">
        <ele>1534.4</ele>
        <time>2015-10-23T10:59:41Z</time>
      </trkpt>
      <trkpt lat="46.33297" lon="5.99668">
        <ele>1533.92</ele>
        <time>2015-10-23T10:59:44Z</time>
      </trkpt>
      <trkpt lat="46.33297" lon="5.99664">
        <ele>1534.4</ele>
        <time>2015-10-23T10:59:47Z</time>
      </trkpt>
      <trkpt lat="46.33297" lon="5.9966">
        <ele>1533.92</ele>
        <time>2015-10-23T10:59:50Z</time>
      </trkpt>
      <trkpt lat="46.33298" lon="5.99656">
        <ele>1533.92</ele>
        <time>2015-10-23T10:59:53Z</time>
      </trkpt>
      <trkpt lat="46.33299" lon="5.9965">
        <ele>1533.44</ele>
        <time>2015-10-23T10:59:57Z</time>
      </trkpt>
      <trkpt lat="46.33296" lon="5.99644">
        <ele>1532</ele>
        <time>2015-10-23T11:00:03Z</time>
      </trkpt>
      <trkpt lat="46.33295" lon="5.99641">
        <ele>1531.52</ele>
        <time>2015-10-23T11:00:05Z</time>
      </trkpt>
      <trkpt lat="46.33286" lon="5.99631">
        <ele>1531.52</ele>
        <time>2015-10-23T11:00:14Z</time>
      </trkpt>
      <trkpt lat="46.33284" lon="5.99625">
        <ele>1531.04</ele>
        <time>2015-10-23T11:00:20Z</time>
      </trkpt>
      <trkpt lat="46.33282" lon="5.99618">
        <ele>1530.56</ele>
        <time>2015-10-23T11:00:25Z</time>
      </trkpt>
      <trkpt lat="46.33279" lon="5.99606">
        <ele>1528.15</ele>
        <time>2015-10-23T11:00:38Z</time>
      </trkpt>
      <trkpt lat="46.33275" lon="5.996">
        <ele>1526.23</ele>
        <time>2015-10-23T11:00:51Z</time>
      </trkpt>
      <trkpt lat="46.33276" lon="5.99596">
        <ele>1526.71</ele>
        <time>2015-10-23T11:00:55Z</time>
      </trkpt>
      <trkpt lat="46.33279" lon="5.99589">
        <ele>1526.71</ele>
        <time>2015-10-23T11:01:09Z</time>
      </trkpt>
      <trkpt lat="46.33279" lon="5.99591">
        <ele>1527.19</ele>
        <time>2015-10-23T11:01:10Z</time>
      </trkpt>
      <trkpt lat="46.33281" lon="5.9961">
        <ele>1529.59</ele>
        <time>2015-10-23T11:01:20Z</time>
      </trkpt>
      <trkpt lat="46.33281" lon="5.99612">
        <ele>1530.08</ele>
        <time>2015-10-23T11:01:22Z</time>
      </trkpt>
      <trkpt lat="46.33278" lon="5.99615">
        <ele>1530.56</ele>
        <time>2015-10-23T11:01:31Z</time>
      </trkpt>
      <trkpt lat="46.33278" lon="5.99615">
        <ele>1530.56</ele>
        <time>2015-10-23T11:01:55Z</time>
      </trkpt>
      <trkpt lat="46.33277" lon="5.99614">
        <ele>1531.04</ele>
        <time>2015-10-23T11:02:10Z</time>
      </trkpt>
      <trkpt lat="46.33277" lon="5.99614">
        <ele>1531.04</ele>
        <time>2015-10-23T11:02:46Z</time>
      </trkpt>
      <trkpt lat="46.33278" lon="5.99615">
        <ele>1530.56</ele>
        <time>2015-10-23T11:02:59Z</time>
      </trkpt>
      <trkpt lat="46.33281" lon="5.99618">
        <ele>1530.08</ele>
        <time>2015-10-23T11:03:03Z</time>
      </trkpt>
      <trkpt lat="46.33284" lon="5.99619">
        <ele>1531.04</ele>
        <time>2015-10-23T11:03:07Z</time>
      </trkpt>
      <trkpt lat="46.33282" lon="5.99631">
        <ele>1531.52</ele>
        <time>2015-10-23T11:03:14Z</time>
      </trkpt>
      <trkpt lat="46.33279" lon="5.99635">
        <ele>1531.04</ele>
        <time>2015-10-23T11:03:18Z</time>
      </trkpt>
      <trkpt lat="46.33276" lon="5.99644">
        <ele>1531.52</ele>
        <time>2015-10-23T11:03:25Z</time>
      </trkpt>
      <trkpt lat="46.33276" lon="5.99655">
        <ele>1532.96</ele>
        <time>2015-10-23T11:03:33Z</time>
      </trkpt>
      <trkpt lat="46.33276" lon="5.9966">
        <ele>1533.44</ele>
        <time>2015-10-23T11:03:37Z</time>
      </trkpt>
      <trkpt lat="46.33277" lon="5.99666">
        <ele>1533.92</ele>
        <time>2015-10-23T11:03:41Z</time>
      </trkpt>
      <trkpt lat="46.33277" lon="5.9967">
        <ele>1533.92</ele>
        <time>2015-10-23T11:03:43Z</time>
      </trkpt>
      <trkpt lat="46.33279" lon="5.99674">
        <ele>1533.44</ele>
        <time>2015-10-23T11:03:47Z</time>
      </trkpt>
      <trkpt lat="46.33281" lon="5.99677">
        <ele>1533.44</ele>
        <time>2015-10-23T11:03:50Z</time>
      </trkpt>
      <trkpt lat="46.33283" lon="5.9969">
        <ele>1535.84</ele>
        <time>2015-10-23T11:04:01Z</time>
      </trkpt>
      <trkpt lat="46.33286" lon="5.99698">
        <ele>1536.8</ele>
        <time>2015-10-23T11:04:10Z</time>
      </trkpt>
      <trkpt lat="46.33286" lon="5.99706">
        <ele>1536.8</ele>
        <time>2015-10-23T11:04:16Z</time>
      </trkpt>
      <trkpt lat="46.33286" lon="5.99716">
        <ele>1538.73</ele>
        <time>2015-10-23T11:04:28Z</time>
      </trkpt>
      <trkpt lat="46.33287" lon="5.99724">
        <ele>1540.17</ele>
        <time>2015-10-23T11:04:38Z</time>
      </trkpt>
      <trkpt lat="46.33289" lon="5.9973">
        <ele>1540.65</ele>
        <time>2015-10-23T11:04:44Z</time>
      </trkpt>
      <trkpt lat="46.33289" lon="5.9974">
        <ele>1541.61</ele>
        <time>2015-10-23T11:04:52Z</time>
      </trkpt>
      <trkpt lat="46.33289" lon="5.99743">
        <ele>1541.61</ele>
        <time>2015-10-23T11:04:54Z</time>
      </trkpt>
      <trkpt lat="46.33291" lon="5.99751">
        <ele>1542.57</ele>
        <time>2015-10-23T11:05:02Z</time>
      </trkpt>
      <trkpt lat="46.33293" lon="5.99755">
        <ele>1543.05</ele>
        <time>2015-10-23T11:05:05Z</time>
      </trkpt>
      <trkpt lat="46.33296" lon="5.99764">
        <ele>1544.98</ele>
        <time>2015-10-23T11:05:14Z</time>
      </trkpt>
      <trkpt lat="46.333" lon="5.9977">
        <ele>1545.46</ele>
        <time>2015-10-23T11:05:20Z</time>
      </trkpt>
      <trkpt lat="46.33304" lon="5.99779">
        <ele>1547.86</ele>
        <time>2015-10-23T11:05:31Z</time>
      </trkpt>
      <trkpt lat="46.33305" lon="5.99782">
        <ele>1549.3</ele>
        <time>2015-10-23T11:05:40Z</time>
      </trkpt>
      <trkpt lat="46.33307" lon="5.99789">
        <ele>1551.22</ele>
        <time>2015-10-23T11:05:48Z</time>
      </trkpt>
      <trkpt lat="46.33312" lon="5.99796">
        <ele>1552.67</ele>
        <time>2015-10-23T11:05:57Z</time>
      </trkpt>
      <trkpt lat="46.33316" lon="5.99799">
        <ele>1552.67</ele>
        <time>2015-10-23T11:06:02Z</time>
      </trkpt>
      <trkpt lat="46.33319" lon="5.998">
        <ele>1552.67</ele>
        <time>2015-10-23T11:06:05Z</time>
      </trkpt>
      <trkpt lat="46.33322" lon="5.99805">
        <ele>1554.11</ele>
        <time>2015-10-23T11:06:11Z</time>
      </trkpt>
      <trkpt lat="46.33325" lon="5.99819">
        <ele>1555.55</ele>
        <time>2015-10-23T11:06:22Z</time>
      </trkpt>
      <trkpt lat="46.33325" lon="5.9982">
        <ele>1555.55</ele>
        <time>2015-10-23T11:06:23Z</time>
      </trkpt>
      <trkpt lat="46.33327" lon="5.99824">
        <ele>1556.51</ele>
        <time>2015-10-23T11:06:28Z</time>
      </trkpt>
      <trkpt lat="46.3333" lon="5.9983">
        <ele>1557.47</ele>
        <time>2015-10-23T11:06:34Z</time>
      </trkpt>
      <trkpt lat="46.33332" lon="5.99831">
        <ele>1557.47</ele>
        <time>2015-10-23T11:06:37Z</time>
      </trkpt>
      <trkpt lat="46.33336" lon="5.9984">
        <ele>1558.43</ele>
        <time>2015-10-23T11:06:47Z</time>
      </trkpt>
      <trkpt lat="46.33339" lon="5.99847">
        <ele>1559.88</ele>
        <time>2015-10-23T11:06:54Z</time>
      </trkpt>
      <trkpt lat="46.33339" lon="5.99857">
        <ele>1562.76</ele>
        <time>2015-10-23T11:07:06Z</time>
      </trkpt>
      <trkpt lat="46.33341" lon="5.9986">
        <ele>1563.72</ele>
        <time>2015-10-23T11:07:12Z</time>
      </trkpt>
      <trkpt lat="46.33341" lon="5.99861">
        <ele>1565.16</ele>
        <time>2015-10-23T11:07:24Z</time>
      </trkpt>
      <trkpt lat="46.33342" lon="5.99866">
        <ele>1566.61</ele>
        <time>2015-10-23T11:07:37Z</time>
      </trkpt>
      <trkpt lat="46.33343" lon="5.99872">
        <ele>1569.01</ele>
        <time>2015-10-23T11:07:48Z</time>
      </trkpt>
      <trkpt lat="46.33349" lon="5.99882">
        <ele>1570.45</ele>
        <time>2015-10-23T11:07:59Z</time>
      </trkpt>
      <trkpt lat="46.33354" lon="5.9989">
        <ele>1572.37</ele>
        <time>2015-10-23T11:08:09Z</time>
      </trkpt>
      <trkpt lat="46.33357" lon="5.99898">
        <ele>1574.78</ele>
        <time>2015-10-23T11:08:20Z</time>
      </trkpt>
      <trkpt lat="46.33358" lon="5.99904">
        <ele>1577.18</ele>
        <time>2015-10-23T11:08:31Z</time>
      </trkpt>
      <trkpt lat="46.33359" lon="5.99912">
        <ele>1578.62</ele>
        <time>2015-10-23T11:08:40Z</time>
      </trkpt>
      <trkpt lat="46.33363" lon="5.99922">
        <ele>1580.06</ele>
        <time>2015-10-23T11:08:51Z</time>
      </trkpt>
      <trkpt lat="46.33363" lon="5.99925">
        <ele>1581.51</ele>
        <time>2015-10-23T11:08:56Z</time>
      </trkpt>
      <trkpt lat="46.33363" lon="5.99928">
        <ele>1581.99</ele>
        <time>2015-10-23T11:08:59Z</time>
      </trkpt>
      <trkpt lat="46.33368" lon="5.99943">
        <ele>1582.47</ele>
        <time>2015-10-23T11:09:10Z</time>
      </trkpt>
      <trkpt lat="46.33369" lon="5.99945">
        <ele>1581.99</ele>
        <time>2015-10-23T11:09:25Z</time>
      </trkpt>
      <trkpt lat="46.33369" lon="5.99947">
        <ele>1583.43</ele>
        <time>2015-10-23T11:09:28Z</time>
      </trkpt>
      <trkpt lat="46.33369" lon="5.99959">
        <ele>1583.91</ele>
        <time>2015-10-23T11:09:36Z</time>
      </trkpt>
      <trkpt lat="46.33369" lon="5.99962">
        <ele>1583.91</ele>
        <time>2015-10-23T11:09:38Z</time>
      </trkpt>
      <trkpt lat="46.33369" lon="5.99971">
        <ele>1585.83</ele>
        <time>2015-10-23T11:09:48Z</time>
      </trkpt>
      <trkpt lat="46.33367" lon="5.99978">
        <ele>1586.79</ele>
        <time>2015-10-23T11:09:54Z</time>
      </trkpt>
      <trkpt lat="46.33366" lon="5.99983">
        <ele>1587.27</ele>
        <time>2015-10-23T11:09:58Z</time>
      </trkpt>
      <trkpt lat="46.33368" lon="5.99992">
        <ele>1588.72</ele>
        <time>2015-10-23T11:10:09Z</time>
      </trkpt>
      <trkpt lat="46.33369" lon="5.99996">
        <ele>1590.64</ele>
        <time>2015-10-23T11:10:17Z</time>
      </trkpt>
      <trkpt lat="46.3337" lon="6.00003">
        <ele>1591.6</ele>
        <time>2015-10-23T11:10:24Z</time>
      </trkpt>
      <trkpt lat="46.33371" lon="6.00012">
        <ele>1592.08</ele>
        <time>2015-10-23T11:10:30Z</time>
      </trkpt>
      <trkpt lat="46.33375" lon="6.00029">
        <ele>1594</ele>
        <time>2015-10-23T11:10:42Z</time>
      </trkpt>
      <trkpt lat="46.33376" lon="6.00033">
        <ele>1594.96</ele>
        <time>2015-10-23T11:10:46Z</time>
      </trkpt>
      <trkpt lat="46.33376" lon="6.00042">
        <ele>1595.93</ele>
        <time>2015-10-23T11:10:53Z</time>
      </trkpt>
      <trkpt lat="46.33376" lon="6.00046">
        <ele>1595.93</ele>
        <time>2015-10-23T11:11:00Z</time>
      </trkpt>
      <trkpt lat="46.3338" lon="6.0005">
        <ele>1595.45</ele>
        <time>2015-10-23T11:11:06Z</time>
      </trkpt>
      <trkpt lat="46.33382" lon="6.00051">
        <ele>1595.93</ele>
        <time>2015-10-23T11:11:09Z</time>
      </trkpt>
      <trkpt lat="46.33395" lon="6.00054">
        <ele>1594.96</ele>
        <time>2015-10-23T11:11:21Z</time>
      </trkpt>
      <trkpt lat="46.33401" lon="6.00058">
        <ele>1595.93</ele>
        <time>2015-10-23T11:11:27Z</time>
      </trkpt>
      <trkpt lat="46.33405" lon="6.0006">
        <ele>1595.93</ele>
        <time>2015-10-23T11:11:31Z</time>
      </trkpt>
      <trkpt lat="46.33417" lon="6.00065">
        <ele>1597.37</ele>
        <time>2015-10-23T11:11:44Z</time>
      </trkpt>
      <trkpt lat="46.3342" lon="6.00065">
        <ele>1597.85</ele>
        <time>2015-10-23T11:11:47Z</time>
      </trkpt>
      <trkpt lat="46.33424" lon="6.00066">
        <ele>1598.33</ele>
        <time>2015-10-23T11:11:51Z</time>
      </trkpt>
      <trkpt lat="46.33431" lon="6.00069">
        <ele>1600.73</ele>
        <time>2015-10-23T11:12:01Z</time>
      </trkpt>
      <trkpt lat="46.3344" lon="6.0007">
        <ele>1603.14</ele>
        <time>2015-10-23T11:12:12Z</time>
      </trkpt>
      <trkpt lat="46.33443" lon="6.00072">
        <ele>1605.54</ele>
        <time>2015-10-23T11:12:25Z</time>
      </trkpt>
      <trkpt lat="46.33449" lon="6.00075">
        <ele>1608.9</ele>
        <time>2015-10-23T11:12:37Z</time>
      </trkpt>
      <trkpt lat="46.33459" lon="6.00078">
        <ele>1610.83</ele>
        <time>2015-10-23T11:12:48Z</time>
      </trkpt>
      <trkpt lat="46.33465" lon="6.0008">
        <ele>1612.27</ele>
        <time>2015-10-23T11:12:53Z</time>
      </trkpt>
      <trkpt lat="46.33468" lon="6.00081">
        <ele>1612.75</ele>
        <time>2015-10-23T11:12:56Z</time>
      </trkpt>
      <trkpt lat="46.33472" lon="6.00083">
        <ele>1612.75</ele>
        <time>2015-10-23T11:13:00Z</time>
      </trkpt>
      <trkpt lat="46.33482" lon="6.00086">
        <ele>1613.23</ele>
        <time>2015-10-23T11:13:08Z</time>
      </trkpt>
      <trkpt lat="46.33484" lon="6.0009">
        <ele>1614.19</ele>
        <time>2015-10-23T11:13:12Z</time>
      </trkpt>
      <trkpt lat="46.3349" lon="6.00093">
        <ele>1614.19</ele>
        <time>2015-10-23T11:13:17Z</time>
      </trkpt>
      <trkpt lat="46.33496" lon="6.00099">
        <ele>1614.67</ele>
        <time>2015-10-23T11:13:25Z</time>
      </trkpt>
      <trkpt lat="46.33498" lon="6.00102">
        <ele>1614.67</ele>
        <time>2015-10-23T11:13:41Z</time>
      </trkpt>
      <trkpt lat="46.33497" lon="6.00101">
        <ele>1614.67</ele>
        <time>2015-10-23T11:14:18Z</time>
      </trkpt>
      <trkpt lat="46.33497" lon="6.00101">
        <ele>1614.67</ele>
        <time>2015-10-23T11:14:34Z</time>
      </trkpt>
      <trkpt lat="46.33499" lon="6.00103">
        <ele>1614.67</ele>
        <time>2015-10-23T11:14:37Z</time>
      </trkpt>
      <trkpt lat="46.33502" lon="6.00105">
        <ele>1615.15</ele>
        <time>2015-10-23T11:14:40Z</time>
      </trkpt>
      <trkpt lat="46.33504" lon="6.00107">
        <ele>1615.15</ele>
        <time>2015-10-23T11:14:43Z</time>
      </trkpt>
      <trkpt lat="46.33508" lon="6.00109">
        <ele>1614.67</ele>
        <time>2015-10-23T11:15:00Z</time>
      </trkpt>
      <trkpt lat="46.33508" lon="6.00109">
        <ele>1614.19</ele>
        <time>2015-10-23T11:15:23Z</time>
      </trkpt>
      <trkpt lat="46.33508" lon="6.00109">
        <ele>1614.19</ele>
        <time>2015-10-23T11:15:47Z</time>
      </trkpt>
      <trkpt lat="46.33514" lon="6.00112">
        <ele>1613.23</ele>
        <time>2015-10-23T11:16:01Z</time>
      </trkpt>
      <trkpt lat="46.33516" lon="6.00112">
        <ele>1612.75</ele>
        <time>2015-10-23T11:16:03Z</time>
      </trkpt>
      <trkpt lat="46.33527" lon="6.00116">
        <ele>1610.83</ele>
        <time>2015-10-23T11:16:12Z</time>
      </trkpt>
      <trkpt lat="46.33532" lon="6.00118">
        <ele>1609.86</ele>
        <time>2015-10-23T11:16:25Z</time>
      </trkpt>
      <trkpt lat="46.33532" lon="6.00118">
        <ele>1609.86</ele>
        <time>2015-10-23T11:16:41Z</time>
      </trkpt>
      <trkpt lat="46.33541" lon="6.00117">
        <ele>1607.46</ele>
        <time>2015-10-23T11:16:51Z</time>
      </trkpt>
      <trkpt lat="46.33544" lon="6.00118">
        <ele>1606.98</ele>
        <time>2015-10-23T11:16:54Z</time>
      </trkpt>
      <trkpt lat="46.33548" lon="6.00121">
        <ele>1607.46</ele>
        <time>2015-10-23T11:16:59Z</time>
      </trkpt>
      <trkpt lat="46.33558" lon="6.00123">
        <ele>1607.94</ele>
        <time>2015-10-23T11:17:07Z</time>
      </trkpt>
      <trkpt lat="46.33564" lon="6.00124">
        <ele>1607.46</ele>
        <time>2015-10-23T11:17:12Z</time>
      </trkpt>
      <trkpt lat="46.33569" lon="6.00126">
        <ele>1608.42</ele>
        <time>2015-10-23T11:17:16Z</time>
      </trkpt>
      <trkpt lat="46.33578" lon="6.00128">
        <ele>1607.46</ele>
        <time>2015-10-23T11:17:22Z</time>
      </trkpt>
      <trkpt lat="46.33585" lon="6.00132">
        <ele>1606.98</ele>
        <time>2015-10-23T11:17:34Z</time>
      </trkpt>
      <trkpt lat="46.33585" lon="6.00132">
        <ele>1606.98</ele>
        <time>2015-10-23T11:17:44Z</time>
      </trkpt>
      <trkpt lat="46.33595" lon="6.00141">
        <ele>1607.94</ele>
        <time>2015-10-23T11:17:54Z</time>
      </trkpt>
      <trkpt lat="46.33607" lon="6.00158">
        <ele>1606.5</ele>
        <time>2015-10-23T11:18:08Z</time>
      </trkpt>
      <trkpt lat="46.33607" lon="6.00159">
        <ele>1606.5</ele>
        <time>2015-10-23T11:18:09Z</time>
      </trkpt>
      <trkpt lat="46.33611" lon="6.00163">
        <ele>1606.02</ele>
        <time>2015-10-23T11:18:22Z</time>
      </trkpt>
      <trkpt lat="46.33611" lon="6.00163">
        <ele>1606.02</ele>
        <time>2015-10-23T11:18:51Z</time>
      </trkpt>
      <trkpt lat="46.33611" lon="6.00163">
        <ele>1605.54</ele>
        <time>2015-10-23T11:19:01Z</time>
      </trkpt>
      <trkpt lat="46.33613" lon="6.00162">
        <ele>1605.54</ele>
        <time>2015-10-23T11:19:05Z</time>
      </trkpt>
      <trkpt lat="46.3362" lon="6.00164">
        <ele>1604.58</ele>
        <time>2015-10-23T11:19:11Z</time>
      </trkpt>
      <trkpt lat="46.33623" lon="6.00167">
        <ele>1604.1</ele>
        <time>2015-10-23T11:19:16Z</time>
      </trkpt>
      <trkpt lat="46.33628" lon="6.00171">
        <ele>1603.14</ele>
        <time>2015-10-23T11:19:24Z</time>
      </trkpt>
      <trkpt lat="46.33631" lon="6.00175">
        <ele>1603.62</ele>
        <time>2015-10-23T11:19:28Z</time>
      </trkpt>
      <trkpt lat="46.3364" lon="6.00182">
        <ele>1605.06</ele>
        <time>2015-10-23T11:19:36Z</time>
      </trkpt>
      <trkpt lat="46.33641" lon="6.00184">
        <ele>1604.1</ele>
        <time>2015-10-23T11:19:51Z</time>
      </trkpt>
      <trkpt lat="46.33641" lon="6.00185">
        <ele>1604.1</ele>
        <time>2015-10-23T11:20:20Z</time>
      </trkpt>
      <trkpt lat="46.33641" lon="6.00185">
        <ele>1603.14</ele>
        <time>2015-10-23T11:20:36Z</time>
      </trkpt>
      <trkpt lat="46.33641" lon="6.00185">
        <ele>1603.14</ele>
        <time>2015-10-23T11:21:18Z</time>
      </trkpt>
      <trkpt lat="46.33641" lon="6.00185">
        <ele>1603.62</ele>
        <time>2015-10-23T11:21:55Z</time>
      </trkpt>
      <trkpt lat="46.33641" lon="6.00185">
        <ele>1603.62</ele>
        <time>2015-10-23T11:22:35Z</time>
      </trkpt>
      <trkpt lat="46.33641" lon="6.00185">
        <ele>1600.25</ele>
        <time>2015-10-23T11:22:51Z</time>
      </trkpt>
      <trkpt lat="46.33641" lon="6.00185">
        <ele>1603.14</ele>
        <time>2015-10-23T11:22:52Z</time>
      </trkpt>
      <trkpt lat="46.33643" lon="6.00184">
        <ele>1604.58</ele>
        <time>2015-10-23T11:27:02Z</time>
      </trkpt>
      <trkpt lat="46.33644" lon="6.00184">
        <ele>1604.58</ele>
        <time>2015-10-23T11:27:03Z</time>
      </trkpt>
      <trkpt lat="46.33647" lon="6.00186">
        <ele>1604.1</ele>
        <time>2015-10-23T11:27:11Z</time>
      </trkpt>
      <trkpt lat="46.33661" lon="6.00189">
        <ele>1603.62</ele>
        <time>2015-10-23T11:27:23Z</time>
      </trkpt>
      <trkpt lat="46.33678" lon="6.00191">
        <ele>1602.17</ele>
        <time>2015-10-23T11:27:36Z</time>
      </trkpt>
      <trkpt lat="46.33685" lon="6.00192">
        <ele>1601.21</ele>
        <time>2015-10-23T11:27:41Z</time>
      </trkpt>
      <trkpt lat="46.33697" lon="6.00193">
        <ele>1598.81</ele>
        <time>2015-10-23T11:27:51Z</time>
      </trkpt>
      <trkpt lat="46.33711" lon="6.00195">
        <ele>1597.85</ele>
        <time>2015-10-23T11:28:02Z</time>
      </trkpt>
      <trkpt lat="46.33726" lon="6.00199">
        <ele>1598.81</ele>
        <time>2015-10-23T11:28:12Z</time>
      </trkpt>
      <trkpt lat="46.33736" lon="6.00203">
        <ele>1600.25</ele>
        <time>2015-10-23T11:28:20Z</time>
      </trkpt>
      <trkpt lat="46.33742" lon="6.00207">
        <ele>1601.21</ele>
        <time>2015-10-23T11:28:25Z</time>
      </trkpt>
      <trkpt lat="46.33753" lon="6.0021">
        <ele>1602.17</ele>
        <time>2015-10-23T11:28:33Z</time>
      </trkpt>
      <trkpt lat="46.33757" lon="6.00216">
        <ele>1602.66</ele>
        <time>2015-10-23T11:28:38Z</time>
      </trkpt>
      <trkpt lat="46.33762" lon="6.00219">
        <ele>1603.62</ele>
        <time>2015-10-23T11:28:42Z</time>
      </trkpt>
      <trkpt lat="46.33766" lon="6.00219">
        <ele>1603.62</ele>
        <time>2015-10-23T11:28:47Z</time>
      </trkpt>
      <trkpt lat="46.33784" lon="6.00224">
        <ele>1603.14</ele>
        <time>2015-10-23T11:29:00Z</time>
      </trkpt>
      <trkpt lat="46.33789" lon="6.00223">
        <ele>1602.66</ele>
        <time>2015-10-23T11:29:04Z</time>
      </trkpt>
      <trkpt lat="46.33796" lon="6.00223">
        <ele>1602.17</ele>
        <time>2015-10-23T11:29:09Z</time>
      </trkpt>
      <trkpt lat="46.33802" lon="6.00228">
        <ele>1601.21</ele>
        <time>2015-10-23T11:29:15Z</time>
      </trkpt>
      <trkpt lat="46.33803" lon="6.00232">
        <ele>1600.25</ele>
        <time>2015-10-23T11:29:18Z</time>
      </trkpt>
      <trkpt lat="46.33814" lon="6.00242">
        <ele>1596.89</ele>
        <time>2015-10-23T11:29:31Z</time>
      </trkpt>
      <trkpt lat="46.33825" lon="6.00253">
        <ele>1597.85</ele>
        <time>2015-10-23T11:29:41Z</time>
      </trkpt>
      <trkpt lat="46.33833" lon="6.0026">
        <ele>1598.81</ele>
        <time>2015-10-23T11:29:49Z</time>
      </trkpt>
      <trkpt lat="46.33838" lon="6.00268">
        <ele>1600.25</ele>
        <time>2015-10-23T11:29:57Z</time>
      </trkpt>
      <trkpt lat="46.33844" lon="6.00268">
        <ele>1599.29</ele>
        <time>2015-10-23T11:30:02Z</time>
      </trkpt>
      <trkpt lat="46.33848" lon="6.0027">
        <ele>1598.33</ele>
        <time>2015-10-23T11:30:06Z</time>
      </trkpt>
      <trkpt lat="46.33852" lon="6.00275">
        <ele>1597.85</ele>
        <time>2015-10-23T11:30:10Z</time>
      </trkpt>
      <trkpt lat="46.33858" lon="6.0028">
        <ele>1597.37</ele>
        <time>2015-10-23T11:30:16Z</time>
      </trkpt>
      <trkpt lat="46.33865" lon="6.00281">
        <ele>1596.41</ele>
        <time>2015-10-23T11:30:21Z</time>
      </trkpt>
      <trkpt lat="46.33868" lon="6.00282">
        <ele>1595.93</ele>
        <time>2015-10-23T11:30:24Z</time>
      </trkpt>
      <trkpt lat="46.33875" lon="6.00291">
        <ele>1594.48</ele>
        <time>2015-10-23T11:30:32Z</time>
      </trkpt>
      <trkpt lat="46.33882" lon="6.00298">
        <ele>1594.96</ele>
        <time>2015-10-23T11:30:39Z</time>
      </trkpt>
      <trkpt lat="46.33886" lon="6.00299">
        <ele>1596.41</ele>
        <time>2015-10-23T11:30:43Z</time>
      </trkpt>
      <trkpt lat="46.3389" lon="6.00296">
        <ele>1597.85</ele>
        <time>2015-10-23T11:30:50Z</time>
      </trkpt>
      <trkpt lat="46.33894" lon="6.003">
        <ele>1599.29</ele>
        <time>2015-10-23T11:30:56Z</time>
      </trkpt>
      <trkpt lat="46.33897" lon="6.00303">
        <ele>1600.73</ele>
        <time>2015-10-23T11:31:05Z</time>
      </trkpt>
      <trkpt lat="46.339" lon="6.00306">
        <ele>1600.73</ele>
        <time>2015-10-23T11:31:09Z</time>
      </trkpt>
      <trkpt lat="46.33904" lon="6.0031">
        <ele>1601.21</ele>
        <time>2015-10-23T11:31:13Z</time>
      </trkpt>
      <trkpt lat="46.33907" lon="6.00312">
        <ele>1601.21</ele>
        <time>2015-10-23T11:31:16Z</time>
      </trkpt>
      <trkpt lat="46.33911" lon="6.00314">
        <ele>1602.17</ele>
        <time>2015-10-23T11:31:20Z</time>
      </trkpt>
      <trkpt lat="46.33914" lon="6.00314">
        <ele>1601.69</ele>
        <time>2015-10-23T11:31:24Z</time>
      </trkpt>
      <trkpt lat="46.33918" lon="6.00313">
        <ele>1601.21</ele>
        <time>2015-10-23T11:31:28Z</time>
      </trkpt>
      <trkpt lat="46.33921" lon="6.00312">
        <ele>1602.17</ele>
        <time>2015-10-23T11:31:32Z</time>
      </trkpt>
      <trkpt lat="46.33924" lon="6.0031">
        <ele>1601.69</ele>
        <time>2015-10-23T11:31:36Z</time>
      </trkpt>
      <trkpt lat="46.33932" lon="6.0031">
        <ele>1602.17</ele>
        <time>2015-10-23T11:31:44Z</time>
      </trkpt>
      <trkpt lat="46.33935" lon="6.0031">
        <ele>1602.17</ele>
        <time>2015-10-23T11:31:47Z</time>
      </trkpt>
      <trkpt lat="46.33943" lon="6.00312">
        <ele>1600.25</ele>
        <time>2015-10-23T11:31:57Z</time>
      </trkpt>
      <trkpt lat="46.33946" lon="6.0031">
        <ele>1600.25</ele>
        <time>2015-10-23T11:32:00Z</time>
      </trkpt>
      <trkpt lat="46.33948" lon="6.00309">
        <ele>1599.29</ele>
        <time>2015-10-23T11:32:03Z</time>
      </trkpt>
      <trkpt lat="46.33952" lon="6.00308">
        <ele>1598.81</ele>
        <time>2015-10-23T11:32:08Z</time>
      </trkpt>
      <trkpt lat="46.33954" lon="6.00308">
        <ele>1598.33</ele>
        <time>2015-10-23T11:32:12Z</time>
      </trkpt>
      <trkpt lat="46.33952" lon="6.00313">
        <ele>1596.89</ele>
        <time>2015-10-23T11:32:16Z</time>
      </trkpt>
      <trkpt lat="46.33951" lon="6.00316">
        <ele>1595.45</ele>
        <time>2015-10-23T11:32:19Z</time>
      </trkpt>
      <trkpt lat="46.3395" lon="6.00327">
        <ele>1592.56</ele>
        <time>2015-10-23T11:32:28Z</time>
      </trkpt>
      <trkpt lat="46.33952" lon="6.00332">
        <ele>1591.6</ele>
        <time>2015-10-23T11:32:32Z</time>
      </trkpt>
      <trkpt lat="46.33956" lon="6.00334">
        <ele>1591.6</ele>
        <time>2015-10-23T11:32:36Z</time>
      </trkpt>
      <trkpt lat="46.33965" lon="6.00335">
        <ele>1589.2</ele>
        <time>2015-10-23T11:32:43Z</time>
      </trkpt>
      <trkpt lat="46.33965" lon="6.00338">
        <ele>1588.72</ele>
        <time>2015-10-23T11:32:45Z</time>
      </trkpt>
      <trkpt lat="46.3397" lon="6.00341">
        <ele>1587.27</ele>
        <time>2015-10-23T11:32:51Z</time>
      </trkpt>
      <trkpt lat="46.33972" lon="6.00342">
        <ele>1586.31</ele>
        <time>2015-10-23T11:32:54Z</time>
      </trkpt>
      <trkpt lat="46.33979" lon="6.00342">
        <ele>1585.35</ele>
        <time>2015-10-23T11:33:00Z</time>
      </trkpt>
      <trkpt lat="46.33987" lon="6.00342">
        <ele>1584.39</ele>
        <time>2015-10-23T11:33:08Z</time>
      </trkpt>
      <trkpt lat="46.33991" lon="6.00343">
        <ele>1583.43</ele>
        <time>2015-10-23T11:33:12Z</time>
      </trkpt>
      <trkpt lat="46.33994" lon="6.00343">
        <ele>1583.43</ele>
        <time>2015-10-23T11:33:15Z</time>
      </trkpt>
      <trkpt lat="46.33999" lon="6.00343">
        <ele>1582.95</ele>
        <time>2015-10-23T11:33:20Z</time>
      </trkpt>
      <trkpt lat="46.34015" lon="6.00343">
        <ele>1580.54</ele>
        <time>2015-10-23T11:33:33Z</time>
      </trkpt>
      <trkpt lat="46.34024" lon="6.0035">
        <ele>1578.62</ele>
        <time>2015-10-23T11:33:42Z</time>
      </trkpt>
      <trkpt lat="46.34036" lon="6.00353">
        <ele>1577.66</ele>
        <time>2015-10-23T11:33:50Z</time>
      </trkpt>
      <trkpt lat="46.34038" lon="6.00358">
        <ele>1575.26</ele>
        <time>2015-10-23T11:34:01Z</time>
      </trkpt>
      <trkpt lat="46.34043" lon="6.00359">
        <ele>1574.3</ele>
        <time>2015-10-23T11:34:07Z</time>
      </trkpt>
      <trkpt lat="46.34046" lon="6.00359">
        <ele>1573.33</ele>
        <time>2015-10-23T11:34:10Z</time>
      </trkpt>
      <trkpt lat="46.34052" lon="6.0036">
        <ele>1571.89</ele>
        <time>2015-10-23T11:34:17Z</time>
      </trkpt>
      <trkpt lat="46.34055" lon="6.00362">
        <ele>1570.93</ele>
        <time>2015-10-23T11:34:21Z</time>
      </trkpt>
      <trkpt lat="46.34064" lon="6.00362">
        <ele>1568.53</ele>
        <time>2015-10-23T11:34:34Z</time>
      </trkpt>
      <trkpt lat="46.34071" lon="6.00362">
        <ele>1567.09</ele>
        <time>2015-10-23T11:34:41Z</time>
      </trkpt>
      <trkpt lat="46.34076" lon="6.00363">
        <ele>1566.61</ele>
        <time>2015-10-23T11:34:46Z</time>
      </trkpt>
      <trkpt lat="46.3408" lon="6.00364">
        <ele>1565.64</ele>
        <time>2015-10-23T11:34:49Z</time>
      </trkpt>
      <trkpt lat="46.34084" lon="6.00365">
        <ele>1565.64</ele>
        <time>2015-10-23T11:34:53Z</time>
      </trkpt>
      <trkpt lat="46.34091" lon="6.00369">
        <ele>1564.2</ele>
        <time>2015-10-23T11:35:01Z</time>
      </trkpt>
      <trkpt lat="46.34095" lon="6.00372">
        <ele>1562.76</ele>
        <time>2015-10-23T11:35:06Z</time>
      </trkpt>
      <trkpt lat="46.34098" lon="6.00372">
        <ele>1561.32</ele>
        <time>2015-10-23T11:35:10Z</time>
      </trkpt>
      <trkpt lat="46.34111" lon="6.00375">
        <ele>1559.88</ele>
        <time>2015-10-23T11:35:23Z</time>
      </trkpt>
      <trkpt lat="46.34112" lon="6.00375">
        <ele>1559.88</ele>
        <time>2015-10-23T11:35:24Z</time>
      </trkpt>
      <trkpt lat="46.34118" lon="6.00374">
        <ele>1558.92</ele>
        <time>2015-10-23T11:35:30Z</time>
      </trkpt>
      <trkpt lat="46.34124" lon="6.00373">
        <ele>1557.47</ele>
        <time>2015-10-23T11:35:36Z</time>
      </trkpt>
      <trkpt lat="46.34126" lon="6.00372">
        <ele>1556.99</ele>
        <time>2015-10-23T11:35:38Z</time>
      </trkpt>
      <trkpt lat="46.34133" lon="6.00371">
        <ele>1558.43</ele>
        <time>2015-10-23T11:35:44Z</time>
      </trkpt>
      <trkpt lat="46.34139" lon="6.00368">
        <ele>1560.36</ele>
        <time>2015-10-23T11:35:54Z</time>
      </trkpt>
      <trkpt lat="46.3414" lon="6.00364">
        <ele>1562.28</ele>
        <time>2015-10-23T11:36:00Z</time>
      </trkpt>
      <trkpt lat="46.34143" lon="6.0037">
        <ele>1563.72</ele>
        <time>2015-10-23T11:36:05Z</time>
      </trkpt>
      <trkpt lat="46.34146" lon="6.00374">
        <ele>1564.2</ele>
        <time>2015-10-23T11:36:09Z</time>
      </trkpt>
      <trkpt lat="46.3415" lon="6.00375">
        <ele>1563.72</ele>
        <time>2015-10-23T11:36:12Z</time>
      </trkpt>
      <trkpt lat="46.3416" lon="6.00384">
        <ele>1565.16</ele>
        <time>2015-10-23T11:36:24Z</time>
      </trkpt>
      <trkpt lat="46.3417" lon="6.0039">
        <ele>1567.57</ele>
        <time>2015-10-23T11:36:35Z</time>
      </trkpt>
      <trkpt lat="46.34172" lon="6.00392">
        <ele>1568.05</ele>
        <time>2015-10-23T11:36:39Z</time>
      </trkpt>
      <trkpt lat="46.34174" lon="6.00394">
        <ele>1568.53</ele>
        <time>2015-10-23T11:36:41Z</time>
      </trkpt>
      <trkpt lat="46.34185" lon="6.00403">
        <ele>1569.49</ele>
        <time>2015-10-23T11:36:54Z</time>
      </trkpt>
      <trkpt lat="46.34188" lon="6.00405">
        <ele>1570.45</ele>
        <time>2015-10-23T11:36:58Z</time>
      </trkpt>
      <trkpt lat="46.34191" lon="6.00408">
        <ele>1571.89</ele>
        <time>2015-10-23T11:37:01Z</time>
      </trkpt>
      <trkpt lat="46.34193" lon="6.00409">
        <ele>1571.89</ele>
        <time>2015-10-23T11:37:06Z</time>
      </trkpt>
      <trkpt lat="46.34198" lon="6.00411">
        <ele>1572.37</ele>
        <time>2015-10-23T11:37:11Z</time>
      </trkpt>
      <trkpt lat="46.34213" lon="6.00421">
        <ele>1570.45</ele>
        <time>2015-10-23T11:37:23Z</time>
      </trkpt>
      <trkpt lat="46.34222" lon="6.00425">
        <ele>1572.85</ele>
        <time>2015-10-23T11:37:33Z</time>
      </trkpt>
      <trkpt lat="46.34227" lon="6.0043">
        <ele>1574.78</ele>
        <time>2015-10-23T11:37:41Z</time>
      </trkpt>
      <trkpt lat="46.34231" lon="6.00433">
        <ele>1575.74</ele>
        <time>2015-10-23T11:37:45Z</time>
      </trkpt>
      <trkpt lat="46.34236" lon="6.00437">
        <ele>1576.22</ele>
        <time>2015-10-23T11:37:50Z</time>
      </trkpt>
      <trkpt lat="46.34247" lon="6.00436">
        <ele>1577.18</ele>
        <time>2015-10-23T11:37:59Z</time>
      </trkpt>
      <trkpt lat="46.34258" lon="6.00439">
        <ele>1578.14</ele>
        <time>2015-10-23T11:38:09Z</time>
      </trkpt>
      <trkpt lat="46.3426" lon="6.0044">
        <ele>1578.14</ele>
        <time>2015-10-23T11:38:11Z</time>
      </trkpt>
      <trkpt lat="46.34266" lon="6.00438">
        <ele>1578.62</ele>
        <time>2015-10-23T11:38:16Z</time>
      </trkpt>
      <trkpt lat="46.34269" lon="6.00427">
        <ele>1577.66</ele>
        <time>2015-10-23T11:38:24Z</time>
      </trkpt>
      <trkpt lat="46.34273" lon="6.00416">
        <ele>1578.62</ele>
        <time>2015-10-23T11:38:31Z</time>
      </trkpt>
      <trkpt lat="46.34274" lon="6.00414">
        <ele>1578.62</ele>
        <time>2015-10-23T11:38:36Z</time>
      </trkpt>
      <trkpt lat="46.34279" lon="6.0041">
        <ele>1579.58</ele>
        <time>2015-10-23T11:38:41Z</time>
      </trkpt>
      <trkpt lat="46.34288" lon="6.00409">
        <ele>1581.03</ele>
        <time>2015-10-23T11:38:50Z</time>
      </trkpt>
      <trkpt lat="46.34296" lon="6.00409">
        <ele>1582.47</ele>
        <time>2015-10-23T11:38:59Z</time>
      </trkpt>
      <trkpt lat="46.343" lon="6.00409">
        <ele>1582.47</ele>
        <time>2015-10-23T11:39:04Z</time>
      </trkpt>
      <trkpt lat="46.34306" lon="6.00413">
        <ele>1582.95</ele>
        <time>2015-10-23T11:39:09Z</time>
      </trkpt>
      <trkpt lat="46.34311" lon="6.00416">
        <ele>1583.43</ele>
        <time>2015-10-23T11:39:14Z</time>
      </trkpt>
      <trkpt lat="46.34318" lon="6.00418">
        <ele>1585.35</ele>
        <time>2015-10-23T11:39:22Z</time>
      </trkpt>
      <trkpt lat="46.34323" lon="6.00419">
        <ele>1585.35</ele>
        <time>2015-10-23T11:39:27Z</time>
      </trkpt>
      <trkpt lat="46.3433" lon="6.00417">
        <ele>1585.35</ele>
        <time>2015-10-23T11:39:32Z</time>
      </trkpt>
      <trkpt lat="46.34335" lon="6.00415">
        <ele>1586.31</ele>
        <time>2015-10-23T11:39:36Z</time>
      </trkpt>
      <trkpt lat="46.34336" lon="6.00414">
        <ele>1586.31</ele>
        <time>2015-10-23T11:39:38Z</time>
      </trkpt>
      <trkpt lat="46.34338" lon="6.0041">
        <ele>1586.79</ele>
        <time>2015-10-23T11:39:42Z</time>
      </trkpt>
      <trkpt lat="46.34345" lon="6.00413">
        <ele>1589.68</ele>
        <time>2015-10-23T11:39:52Z</time>
      </trkpt>
      <trkpt lat="46.34348" lon="6.00417">
        <ele>1590.16</ele>
        <time>2015-10-23T11:39:56Z</time>
      </trkpt>
      <trkpt lat="46.34352" lon="6.00424">
        <ele>1592.08</ele>
        <time>2015-10-23T11:40:05Z</time>
      </trkpt>
      <trkpt lat="46.34353" lon="6.00427">
        <ele>1594</ele>
        <time>2015-10-23T11:40:11Z</time>
      </trkpt>
      <trkpt lat="46.34356" lon="6.00441">
        <ele>1595.93</ele>
        <time>2015-10-23T11:40:22Z</time>
      </trkpt>
      <trkpt lat="46.34357" lon="6.00444">
        <ele>1597.37</ele>
        <time>2015-10-23T11:40:26Z</time>
      </trkpt>
      <trkpt lat="46.34365" lon="6.00449">
        <ele>1599.77</ele>
        <time>2015-10-23T11:40:37Z</time>
      </trkpt>
      <trkpt lat="46.34368" lon="6.00451">
        <ele>1602.66</ele>
        <time>2015-10-23T11:40:48Z</time>
      </trkpt>
      <trkpt lat="46.34372" lon="6.00456">
        <ele>1604.58</ele>
        <time>2015-10-23T11:40:56Z</time>
      </trkpt>
      <trkpt lat="46.34376" lon="6.00459">
        <ele>1605.06</ele>
        <time>2015-10-23T11:41:01Z</time>
      </trkpt>
      <trkpt lat="46.34386" lon="6.00464">
        <ele>1607.46</ele>
        <time>2015-10-23T11:41:12Z</time>
      </trkpt>
      <trkpt lat="46.34392" lon="6.00471">
        <ele>1608.42</ele>
        <time>2015-10-23T11:41:20Z</time>
      </trkpt>
      <trkpt lat="46.34394" lon="6.00475">
        <ele>1609.38</ele>
        <time>2015-10-23T11:41:33Z</time>
      </trkpt>
      <trkpt lat="46.34394" lon="6.00475">
        <ele>1609.38</ele>
        <time>2015-10-23T11:41:42Z</time>
      </trkpt>
      <trkpt lat="46.34399" lon="6.00479">
        <ele>1609.38</ele>
        <time>2015-10-23T11:41:47Z</time>
      </trkpt>
      <trkpt lat="46.34401" lon="6.00482">
        <ele>1609.86</ele>
        <time>2015-10-23T11:41:50Z</time>
      </trkpt>
      <trkpt lat="46.34415" lon="6.00494">
        <ele>1609.86</ele>
        <time>2015-10-23T11:42:02Z</time>
      </trkpt>
      <trkpt lat="46.34417" lon="6.00497">
        <ele>1609.86</ele>
        <time>2015-10-23T11:42:04Z</time>
      </trkpt>
      <trkpt lat="46.34419" lon="6.00499">
        <ele>1609.38</ele>
        <time>2015-10-23T11:42:07Z</time>
      </trkpt>
      <trkpt lat="46.34432" lon="6.00504">
        <ele>1609.38</ele>
        <time>2015-10-23T11:42:18Z</time>
      </trkpt>
      <trkpt lat="46.34445" lon="6.00506">
        <ele>1610.35</ele>
        <time>2015-10-23T11:42:28Z</time>
      </trkpt>
      <trkpt lat="46.34449" lon="6.00506">
        <ele>1609.38</ele>
        <time>2015-10-23T11:42:32Z</time>
      </trkpt>
      <trkpt lat="46.34457" lon="6.00499">
        <ele>1608.9</ele>
        <time>2015-10-23T11:42:40Z</time>
      </trkpt>
      <trkpt lat="46.34461" lon="6.00495">
        <ele>1607.94</ele>
        <time>2015-10-23T11:42:45Z</time>
      </trkpt>
      <trkpt lat="46.34467" lon="6.00493">
        <ele>1606.02</ele>
        <time>2015-10-23T11:42:51Z</time>
      </trkpt>
      <trkpt lat="46.3447" lon="6.00492">
        <ele>1605.54</ele>
        <time>2015-10-23T11:42:53Z</time>
      </trkpt>
      <trkpt lat="46.34473" lon="6.0049">
        <ele>1605.54</ele>
        <time>2015-10-23T11:42:55Z</time>
      </trkpt>
      <trkpt lat="46.34478" lon="6.0049">
        <ele>1605.06</ele>
        <time>2015-10-23T11:43:00Z</time>
      </trkpt>
      <trkpt lat="46.34489" lon="6.0049">
        <ele>1603.14</ele>
        <time>2015-10-23T11:43:12Z</time>
      </trkpt>
      <trkpt lat="46.34489" lon="6.0049">
        <ele>1603.14</ele>
        <time>2015-10-23T11:43:27Z</time>
      </trkpt>
      <trkpt lat="46.34503" lon="6.00491">
        <ele>1601.69</ele>
        <time>2015-10-23T11:43:37Z</time>
      </trkpt>
      <trkpt lat="46.34515" lon="6.00492">
        <ele>1599.77</ele>
        <time>2015-10-23T11:43:49Z</time>
      </trkpt>
      <trkpt lat="46.34517" lon="6.00493">
        <ele>1599.29</ele>
        <time>2015-10-23T11:43:53Z</time>
      </trkpt>
      <trkpt lat="46.34519" lon="6.00493">
        <ele>1599.77</ele>
        <time>2015-10-23T11:43:55Z</time>
      </trkpt>
      <trkpt lat="46.34524" lon="6.00494">
        <ele>1598.33</ele>
        <time>2015-10-23T11:43:58Z</time>
      </trkpt>
      <trkpt lat="46.34529" lon="6.00491">
        <ele>1597.37</ele>
        <time>2015-10-23T11:44:02Z</time>
      </trkpt>
      <trkpt lat="46.34535" lon="6.00493">
        <ele>1596.89</ele>
        <time>2015-10-23T11:44:08Z</time>
      </trkpt>
      <trkpt lat="46.34547" lon="6.00498">
        <ele>1595.93</ele>
        <time>2015-10-23T11:44:20Z</time>
      </trkpt>
      <trkpt lat="46.3455" lon="6.00499">
        <ele>1595.45</ele>
        <time>2015-10-23T11:44:23Z</time>
      </trkpt>
      <trkpt lat="46.34558" lon="6.00496">
        <ele>1595.45</ele>
        <time>2015-10-23T11:44:30Z</time>
      </trkpt>
      <trkpt lat="46.34563" lon="6.00497">
        <ele>1594.96</ele>
        <time>2015-10-23T11:44:34Z</time>
      </trkpt>
      <trkpt lat="46.34576" lon="6.00499">
        <ele>1594.96</ele>
        <time>2015-10-23T11:44:44Z</time>
      </trkpt>
      <trkpt lat="46.34577" lon="6.00499">
        <ele>1595.93</ele>
        <time>2015-10-23T11:44:45Z</time>
      </trkpt>
      <trkpt lat="46.34586" lon="6.00501">
        <ele>1595.45</ele>
        <time>2015-10-23T11:44:53Z</time>
      </trkpt>
      <trkpt lat="46.34593" lon="6.00501">
        <ele>1594.96</ele>
        <time>2015-10-23T11:44:58Z</time>
      </trkpt>
      <trkpt lat="46.34597" lon="6.00502">
        <ele>1594</ele>
        <time>2015-10-23T11:45:01Z</time>
      </trkpt>
      <trkpt lat="46.34601" lon="6.00502">
        <ele>1593.52</ele>
        <time>2015-10-23T11:45:05Z</time>
      </trkpt>
      <trkpt lat="46.34606" lon="6.00503">
        <ele>1592.56</ele>
        <time>2015-10-23T11:45:10Z</time>
      </trkpt>
      <trkpt lat="46.3461" lon="6.00505">
        <ele>1592.08</ele>
        <time>2015-10-23T11:45:13Z</time>
      </trkpt>
      <trkpt lat="46.34615" lon="6.00508">
        <ele>1591.12</ele>
        <time>2015-10-23T11:45:19Z</time>
      </trkpt>
      <trkpt lat="46.3462" lon="6.00514">
        <ele>1589.68</ele>
        <time>2015-10-23T11:45:25Z</time>
      </trkpt>
      <trkpt lat="46.34627" lon="6.00521">
        <ele>1591.12</ele>
        <time>2015-10-23T11:45:36Z</time>
      </trkpt>
      <trkpt lat="46.34633" lon="6.00526">
        <ele>1591.12</ele>
        <time>2015-10-23T11:45:42Z</time>
      </trkpt>
      <trkpt lat="46.34635" lon="6.00534">
        <ele>1591.12</ele>
        <time>2015-10-23T11:45:47Z</time>
      </trkpt>
      <trkpt lat="46.34642" lon="6.00544">
        <ele>1593.04</ele>
        <time>2015-10-23T11:45:55Z</time>
      </trkpt>
      <trkpt lat="46.34649" lon="6.00546">
        <ele>1594</ele>
        <time>2015-10-23T11:46:02Z</time>
      </trkpt>
      <trkpt lat="46.3466" lon="6.00554">
        <ele>1595.45</ele>
        <time>2015-10-23T11:46:12Z</time>
      </trkpt>
      <trkpt lat="46.34661" lon="6.00555">
        <ele>1595.93</ele>
        <time>2015-10-23T11:46:14Z</time>
      </trkpt>
      <trkpt lat="46.34667" lon="6.0056">
        <ele>1595.45</ele>
        <time>2015-10-23T11:46:21Z</time>
      </trkpt>
      <trkpt lat="46.3468" lon="6.00568">
        <ele>1596.41</ele>
        <time>2015-10-23T11:46:32Z</time>
      </trkpt>
      <trkpt lat="46.34681" lon="6.00568">
        <ele>1596.41</ele>
        <time>2015-10-23T11:46:33Z</time>
      </trkpt>
      <trkpt lat="46.34683" lon="6.00568">
        <ele>1596.41</ele>
        <time>2015-10-23T11:46:35Z</time>
      </trkpt>
      <trkpt lat="46.34687" lon="6.00569">
        <ele>1596.41</ele>
        <time>2015-10-23T11:46:39Z</time>
      </trkpt>
      <trkpt lat="46.34695" lon="6.00575">
        <ele>1596.41</ele>
        <time>2015-10-23T11:46:48Z</time>
      </trkpt>
      <trkpt lat="46.347" lon="6.00579">
        <ele>1595.93</ele>
        <time>2015-10-23T11:46:54Z</time>
      </trkpt>
      <trkpt lat="46.34706" lon="6.00578">
        <ele>1594.96</ele>
        <time>2015-10-23T11:47:00Z</time>
      </trkpt>
      <trkpt lat="46.34708" lon="6.00574">
        <ele>1594.48</ele>
        <time>2015-10-23T11:47:04Z</time>
      </trkpt>
      <trkpt lat="46.34711" lon="6.00572">
        <ele>1593.04</ele>
        <time>2015-10-23T11:47:07Z</time>
      </trkpt>
      <trkpt lat="46.34717" lon="6.00571">
        <ele>1590.64</ele>
        <time>2015-10-23T11:47:14Z</time>
      </trkpt>
      <trkpt lat="46.3472" lon="6.00575">
        <ele>1588.72</ele>
        <time>2015-10-23T11:47:18Z</time>
      </trkpt>
      <trkpt lat="46.34723" lon="6.0058">
        <ele>1588.24</ele>
        <time>2015-10-23T11:47:21Z</time>
      </trkpt>
      <trkpt lat="46.34727" lon="6.00585">
        <ele>1588.24</ele>
        <time>2015-10-23T11:47:27Z</time>
      </trkpt>
      <trkpt lat="46.34733" lon="6.00585">
        <ele>1588.72</ele>
        <time>2015-10-23T11:47:32Z</time>
      </trkpt>
      <trkpt lat="46.34741" lon="6.0059">
        <ele>1589.2</ele>
        <time>2015-10-23T11:47:39Z</time>
      </trkpt>
      <trkpt lat="46.34748" lon="6.00592">
        <ele>1589.68</ele>
        <time>2015-10-23T11:47:46Z</time>
      </trkpt>
      <trkpt lat="46.34756" lon="6.00591">
        <ele>1590.64</ele>
        <time>2015-10-23T11:47:55Z</time>
      </trkpt>
      <trkpt lat="46.34761" lon="6.00591">
        <ele>1591.6</ele>
        <time>2015-10-23T11:47:59Z</time>
      </trkpt>
      <trkpt lat="46.34766" lon="6.00591">
        <ele>1592.08</ele>
        <time>2015-10-23T11:48:03Z</time>
      </trkpt>
      <trkpt lat="46.34774" lon="6.00594">
        <ele>1594.48</ele>
        <time>2015-10-23T11:48:12Z</time>
      </trkpt>
      <trkpt lat="46.3478" lon="6.006">
        <ele>1595.45</ele>
        <time>2015-10-23T11:48:17Z</time>
      </trkpt>
      <trkpt lat="46.34785" lon="6.00607">
        <ele>1594.96</ele>
        <time>2015-10-23T11:48:23Z</time>
      </trkpt>
      <trkpt lat="46.34796" lon="6.00618">
        <ele>1594.96</ele>
        <time>2015-10-23T11:48:34Z</time>
      </trkpt>
      <trkpt lat="46.34799" lon="6.0062">
        <ele>1595.93</ele>
        <time>2015-10-23T11:48:37Z</time>
      </trkpt>
      <trkpt lat="46.34801" lon="6.00625">
        <ele>1595.93</ele>
        <time>2015-10-23T11:48:41Z</time>
      </trkpt>
      <trkpt lat="46.34804" lon="6.00629">
        <ele>1596.89</ele>
        <time>2015-10-23T11:48:45Z</time>
      </trkpt>
      <trkpt lat="46.34802" lon="6.00637">
        <ele>1596.89</ele>
        <time>2015-10-23T11:48:59Z</time>
      </trkpt>
      <trkpt lat="46.34801" lon="6.00637">
        <ele>1597.37</ele>
        <time>2015-10-23T11:49:11Z</time>
      </trkpt>
      <trkpt lat="46.34801" lon="6.00637">
        <ele>1596.89</ele>
        <time>2015-10-23T11:49:25Z</time>
      </trkpt>
      <trkpt lat="46.34802" lon="6.00632">
        <ele>1597.37</ele>
        <time>2015-10-23T11:49:56Z</time>
      </trkpt>
      <trkpt lat="46.34805" lon="6.00625">
        <ele>1595.93</ele>
        <time>2015-10-23T11:50:02Z</time>
      </trkpt>
      <trkpt lat="46.34807" lon="6.00621">
        <ele>1595.45</ele>
        <time>2015-10-23T11:50:05Z</time>
      </trkpt>
      <trkpt lat="46.34811" lon="6.00619">
        <ele>1594</ele>
        <time>2015-10-23T11:50:09Z</time>
      </trkpt>
      <trkpt lat="46.34814" lon="6.00616">
        <ele>1593.52</ele>
        <time>2015-10-23T11:50:12Z</time>
      </trkpt>
      <trkpt lat="46.34819" lon="6.00618">
        <ele>1591.6</ele>
        <time>2015-10-23T11:50:18Z</time>
      </trkpt>
      <trkpt lat="46.34823" lon="6.00609">
        <ele>1590.16</ele>
        <time>2015-10-23T11:50:24Z</time>
      </trkpt>
      <trkpt lat="46.34829" lon="6.00592">
        <ele>1586.31</ele>
        <time>2015-10-23T11:50:34Z</time>
      </trkpt>
      <trkpt lat="46.34831" lon="6.00589">
        <ele>1586.31</ele>
        <time>2015-10-23T11:50:38Z</time>
      </trkpt>
      <trkpt lat="46.34835" lon="6.00583">
        <ele>1585.35</ele>
        <time>2015-10-23T11:50:42Z</time>
      </trkpt>
      <trkpt lat="46.34837" lon="6.00577">
        <ele>1583.91</ele>
        <time>2015-10-23T11:50:55Z</time>
      </trkpt>
      <trkpt lat="46.34837" lon="6.00577">
        <ele>1584.39</ele>
        <time>2015-10-23T11:51:02Z</time>
      </trkpt>
      <trkpt lat="46.34832" lon="6.00567">
        <ele>1583.91</ele>
        <time>2015-10-23T11:51:08Z</time>
      </trkpt>
      <trkpt lat="46.34832" lon="6.00565">
        <ele>1583.91</ele>
        <time>2015-10-23T11:51:10Z</time>
      </trkpt>
      <trkpt lat="46.34834" lon="6.00559">
        <ele>1582.95</ele>
        <time>2015-10-23T11:51:14Z</time>
      </trkpt>
      <trkpt lat="46.34835" lon="6.00556">
        <ele>1582.47</ele>
        <time>2015-10-23T11:51:16Z</time>
      </trkpt>
      <trkpt lat="46.34844" lon="6.00551">
        <ele>1578.62</ele>
        <time>2015-10-23T11:51:24Z</time>
      </trkpt>
      <trkpt lat="46.34846" lon="6.0055">
        <ele>1577.66</ele>
        <time>2015-10-23T11:51:26Z</time>
      </trkpt>
      <trkpt lat="46.3485" lon="6.00541">
        <ele>1574.78</ele>
        <time>2015-10-23T11:51:35Z</time>
      </trkpt>
      <trkpt lat="46.34849" lon="6.00539">
        <ele>1574.78</ele>
        <time>2015-10-23T11:51:36Z</time>
      </trkpt>
      <trkpt lat="46.34851" lon="6.0053">
        <ele>1573.33</ele>
        <time>2015-10-23T11:51:41Z</time>
      </trkpt>
      <trkpt lat="46.34852" lon="6.00523">
        <ele>1570.93</ele>
        <time>2015-10-23T11:51:46Z</time>
      </trkpt>
      <trkpt lat="46.34853" lon="6.00518">
        <ele>1569.49</ele>
        <time>2015-10-23T11:51:50Z</time>
      </trkpt>
      <trkpt lat="46.34856" lon="6.0051">
        <ele>1567.09</ele>
        <time>2015-10-23T11:51:55Z</time>
      </trkpt>
      <trkpt lat="46.34857" lon="6.00503">
        <ele>1565.64</ele>
        <time>2015-10-23T11:52:01Z</time>
      </trkpt>
      <trkpt lat="46.34859" lon="6.00496">
        <ele>1563.72</ele>
        <time>2015-10-23T11:52:06Z</time>
      </trkpt>
      <trkpt lat="46.34858" lon="6.00492">
        <ele>1562.76</ele>
        <time>2015-10-23T11:52:09Z</time>
      </trkpt>
      <trkpt lat="46.34856" lon="6.00488">
        <ele>1562.76</ele>
        <time>2015-10-23T11:52:12Z</time>
      </trkpt>
      <trkpt lat="46.34853" lon="6.00469">
        <ele>1559.88</ele>
        <time>2015-10-23T11:52:22Z</time>
      </trkpt>
      <trkpt lat="46.34851" lon="6.00461">
        <ele>1558.92</ele>
        <time>2015-10-23T11:52:26Z</time>
      </trkpt>
      <trkpt lat="46.34853" lon="6.00455">
        <ele>1557.95</ele>
        <time>2015-10-23T11:52:31Z</time>
      </trkpt>
      <trkpt lat="46.34858" lon="6.00443">
        <ele>1556.99</ele>
        <time>2015-10-23T11:52:38Z</time>
      </trkpt>
      <trkpt lat="46.34865" lon="6.00432">
        <ele>1553.63</ele>
        <time>2015-10-23T11:52:49Z</time>
      </trkpt>
      <trkpt lat="46.34875" lon="6.00415">
        <ele>1550.74</ele>
        <time>2015-10-23T11:53:00Z</time>
      </trkpt>
      <trkpt lat="46.34876" lon="6.0041">
        <ele>1549.3</ele>
        <time>2015-10-23T11:53:04Z</time>
      </trkpt>
      <trkpt lat="46.34879" lon="6.00406">
        <ele>1548.34</ele>
        <time>2015-10-23T11:53:07Z</time>
      </trkpt>
      <trkpt lat="46.34881" lon="6.00402">
        <ele>1546.9</ele>
        <time>2015-10-23T11:53:10Z</time>
      </trkpt>
      <trkpt lat="46.34887" lon="6.00392">
        <ele>1545.46</ele>
        <time>2015-10-23T11:53:19Z</time>
      </trkpt>
      <trkpt lat="46.34889" lon="6.0039">
        <ele>1544.98</ele>
        <time>2015-10-23T11:53:21Z</time>
      </trkpt>
      <trkpt lat="46.34895" lon="6.00385">
        <ele>1543.05</ele>
        <time>2015-10-23T11:53:27Z</time>
      </trkpt>
      <trkpt lat="46.3491" lon="6.00386">
        <ele>1540.17</ele>
        <time>2015-10-23T11:53:40Z</time>
      </trkpt>
      <trkpt lat="46.34917" lon="6.00385">
        <ele>1540.17</ele>
        <time>2015-10-23T11:53:46Z</time>
      </trkpt>
      <trkpt lat="46.34924" lon="6.00388">
        <ele>1539.69</ele>
        <time>2015-10-23T11:53:55Z</time>
      </trkpt>
      <trkpt lat="46.34928" lon="6.00392">
        <ele>1538.25</ele>
        <time>2015-10-23T11:54:00Z</time>
      </trkpt>
      <trkpt lat="46.34938" lon="6.00397">
        <ele>1534.88</ele>
        <time>2015-10-23T11:54:12Z</time>
      </trkpt>
      <trkpt lat="46.3494" lon="6.00397">
        <ele>1533.92</ele>
        <time>2015-10-23T11:54:17Z</time>
      </trkpt>
      <trkpt lat="46.34945" lon="6.00402">
        <ele>1531.04</ele>
        <time>2015-10-23T11:54:28Z</time>
      </trkpt>
      <trkpt lat="46.34946" lon="6.00402">
        <ele>1530.56</ele>
        <time>2015-10-23T11:54:30Z</time>
      </trkpt>
      <trkpt lat="46.3495" lon="6.00401">
        <ele>1529.11</ele>
        <time>2015-10-23T11:54:36Z</time>
      </trkpt>
      <trkpt lat="46.34956" lon="6.00412">
        <ele>1526.23</ele>
        <time>2015-10-23T11:54:47Z</time>
      </trkpt>
      <trkpt lat="46.34957" lon="6.00412">
        <ele>1526.23</ele>
        <time>2015-10-23T11:54:48Z</time>
      </trkpt>
      <trkpt lat="46.34961" lon="6.00412">
        <ele>1525.75</ele>
        <time>2015-10-23T11:54:52Z</time>
      </trkpt>
      <trkpt lat="46.34971" lon="6.00418">
        <ele>1524.31</ele>
        <time>2015-10-23T11:55:04Z</time>
      </trkpt>
      <trkpt lat="46.34977" lon="6.0042">
        <ele>1522.87</ele>
        <time>2015-10-23T11:55:11Z</time>
      </trkpt>
      <trkpt lat="46.34979" lon="6.00427">
        <ele>1523.35</ele>
        <time>2015-10-23T11:55:23Z</time>
      </trkpt>
      <trkpt lat="46.34979" lon="6.00427">
        <ele>1522.87</ele>
        <time>2015-10-23T11:55:53Z</time>
      </trkpt>
      <trkpt lat="46.34982" lon="6.00425">
        <ele>1522.39</ele>
        <time>2015-10-23T11:56:11Z</time>
      </trkpt>
      <trkpt lat="46.34986" lon="6.00423">
        <ele>1520.94</ele>
        <time>2015-10-23T11:56:14Z</time>
      </trkpt>
      <trkpt lat="46.34991" lon="6.00428">
        <ele>1520.46</ele>
        <time>2015-10-23T11:56:19Z</time>
      </trkpt>
      <trkpt lat="46.34993" lon="6.00429">
        <ele>1519.5</ele>
        <time>2015-10-23T11:56:21Z</time>
      </trkpt>
      <trkpt lat="46.34997" lon="6.00429">
        <ele>1517.58</ele>
        <time>2015-10-23T11:56:26Z</time>
      </trkpt>
      <trkpt lat="46.34998" lon="6.00432">
        <ele>1517.1</ele>
        <time>2015-10-23T11:56:29Z</time>
      </trkpt>
      <trkpt lat="46.35" lon="6.00433">
        <ele>1517.1</ele>
        <time>2015-10-23T11:56:32Z</time>
      </trkpt>
      <trkpt lat="46.35003" lon="6.00439">
        <ele>1515.66</ele>
        <time>2015-10-23T11:56:38Z</time>
      </trkpt>
      <trkpt lat="46.35003" lon="6.00442">
        <ele>1515.18</ele>
        <time>2015-10-23T11:56:40Z</time>
      </trkpt>
      <trkpt lat="46.35008" lon="6.00451">
        <ele>1512.77</ele>
        <time>2015-10-23T11:56:49Z</time>
      </trkpt>
      <trkpt lat="46.35021" lon="6.00456">
        <ele>1510.85</ele>
        <time>2015-10-23T11:57:01Z</time>
      </trkpt>
      <trkpt lat="46.35033" lon="6.00458">
        <ele>1508.45</ele>
        <time>2015-10-23T11:57:13Z</time>
      </trkpt>
      <trkpt lat="46.35033" lon="6.00458">
        <ele>1507.97</ele>
        <time>2015-10-23T11:57:44Z</time>
      </trkpt>
      <trkpt lat="46.35033" lon="6.00459">
        <ele>1508.45</ele>
        <time>2015-10-23T11:58:17Z</time>
      </trkpt>
      <trkpt lat="46.35037" lon="6.00471">
        <ele>1507.48</ele>
        <time>2015-10-23T11:58:27Z</time>
      </trkpt>
      <trkpt lat="46.35041" lon="6.00475">
        <ele>1505.08</ele>
        <time>2015-10-23T11:58:32Z</time>
      </trkpt>
      <trkpt lat="46.35041" lon="6.00475">
        <ele>1505.08</ele>
        <time>2015-10-23T11:58:33Z</time>
      </trkpt>
      <trkpt lat="46.35049" lon="6.00475">
        <ele>1502.2</ele>
        <time>2015-10-23T11:58:41Z</time>
      </trkpt>
      <trkpt lat="46.35053" lon="6.00475">
        <ele>1501.72</ele>
        <time>2015-10-23T11:58:45Z</time>
      </trkpt>
      <trkpt lat="46.35062" lon="6.00476">
        <ele>1498.83</ele>
        <time>2015-10-23T11:58:52Z</time>
      </trkpt>
      <trkpt lat="46.35063" lon="6.00476">
        <ele>1498.83</ele>
        <time>2015-10-23T11:58:53Z</time>
      </trkpt>
      <trkpt lat="46.35064" lon="6.00478">
        <ele>1497.87</ele>
        <time>2015-10-23T11:58:55Z</time>
      </trkpt>
      <trkpt lat="46.35073" lon="6.00476">
        <ele>1495.95</ele>
        <time>2015-10-23T11:59:04Z</time>
      </trkpt>
      <trkpt lat="46.35083" lon="6.00474">
        <ele>1493.06</ele>
        <time>2015-10-23T11:59:14Z</time>
      </trkpt>
      <trkpt lat="46.35096" lon="6.00485">
        <ele>1491.14</ele>
        <time>2015-10-23T11:59:27Z</time>
      </trkpt>
      <trkpt lat="46.35105" lon="6.00491">
        <ele>1490.66</ele>
        <time>2015-10-23T11:59:35Z</time>
      </trkpt>
      <trkpt lat="46.35113" lon="6.00496">
        <ele>1490.18</ele>
        <time>2015-10-23T11:59:44Z</time>
      </trkpt>
      <trkpt lat="46.35114" lon="6.005">
        <ele>1489.7</ele>
        <time>2015-10-23T11:59:49Z</time>
      </trkpt>
      <trkpt lat="46.35121" lon="6.00503">
        <ele>1489.22</ele>
        <time>2015-10-23T11:59:55Z</time>
      </trkpt>
      <trkpt lat="46.35137" lon="6.00502">
        <ele>1486.82</ele>
        <time>2015-10-23T12:00:09Z</time>
      </trkpt>
      <trkpt lat="46.35138" lon="6.00501">
        <ele>1486.82</ele>
        <time>2015-10-23T12:00:10Z</time>
      </trkpt>
      <trkpt lat="46.35141" lon="6.005">
        <ele>1485.85</ele>
        <time>2015-10-23T12:00:13Z</time>
      </trkpt>
      <trkpt lat="46.35145" lon="6.00501">
        <ele>1485.37</ele>
        <time>2015-10-23T12:00:16Z</time>
      </trkpt>
      <trkpt lat="46.35156" lon="6.00498">
        <ele>1485.37</ele>
        <time>2015-10-23T12:00:25Z</time>
      </trkpt>
      <trkpt lat="46.35159" lon="6.00496">
        <ele>1485.37</ele>
        <time>2015-10-23T12:00:27Z</time>
      </trkpt>
      <trkpt lat="46.35169" lon="6.00489">
        <ele>1484.89</ele>
        <time>2015-10-23T12:00:38Z</time>
      </trkpt>
      <trkpt lat="46.35172" lon="6.00491">
        <ele>1483.45</ele>
        <time>2015-10-23T12:00:43Z</time>
      </trkpt>
      <trkpt lat="46.35178" lon="6.00495">
        <ele>1482.01</ele>
        <time>2015-10-23T12:00:49Z</time>
      </trkpt>
      <trkpt lat="46.35184" lon="6.00499">
        <ele>1480.57</ele>
        <time>2015-10-23T12:00:56Z</time>
      </trkpt>
      <trkpt lat="46.35199" lon="6.00493">
        <ele>1479.13</ele>
        <time>2015-10-23T12:01:08Z</time>
      </trkpt>
      <trkpt lat="46.35201" lon="6.00493">
        <ele>1478.65</ele>
        <time>2015-10-23T12:01:10Z</time>
      </trkpt>
      <trkpt lat="46.35207" lon="6.00494">
        <ele>1477.68</ele>
        <time>2015-10-23T12:01:16Z</time>
      </trkpt>
      <trkpt lat="46.35211" lon="6.0049">
        <ele>1476.72</ele>
        <time>2015-10-23T12:01:20Z</time>
      </trkpt>
      <trkpt lat="46.35213" lon="6.00485">
        <ele>1476.24</ele>
        <time>2015-10-23T12:01:30Z</time>
      </trkpt>
      <trkpt lat="46.35219" lon="6.00481">
        <ele>1475.76</ele>
        <time>2015-10-23T12:01:34Z</time>
      </trkpt>
      <trkpt lat="46.35223" lon="6.00478">
        <ele>1474.8</ele>
        <time>2015-10-23T12:01:39Z</time>
      </trkpt>
      <trkpt lat="46.35228" lon="6.00474">
        <ele>1473.36</ele>
        <time>2015-10-23T12:01:43Z</time>
      </trkpt>
      <trkpt lat="46.3524" lon="6.00466">
        <ele>1473.36</ele>
        <time>2015-10-23T12:01:51Z</time>
      </trkpt>
      <trkpt lat="46.35244" lon="6.00465">
        <ele>1472.88</ele>
        <time>2015-10-23T12:01:55Z</time>
      </trkpt>
      <trkpt lat="46.35263" lon="6.00463">
        <ele>1472.4</ele>
        <time>2015-10-23T12:02:07Z</time>
      </trkpt>
      <trkpt lat="46.35279" lon="6.0046">
        <ele>1470.95</ele>
        <time>2015-10-23T12:02:19Z</time>
      </trkpt>
      <trkpt lat="46.35281" lon="6.00458">
        <ele>1470.47</ele>
        <time>2015-10-23T12:02:21Z</time>
      </trkpt>
      <trkpt lat="46.35289" lon="6.0045">
        <ele>1470.95</ele>
        <time>2015-10-23T12:02:27Z</time>
      </trkpt>
      <trkpt lat="46.35292" lon="6.00445">
        <ele>1470.95</ele>
        <time>2015-10-23T12:02:32Z</time>
      </trkpt>
      <trkpt lat="46.353" lon="6.00439">
        <ele>1469.99</ele>
        <time>2015-10-23T12:02:38Z</time>
      </trkpt>
      <trkpt lat="46.35307" lon="6.00437">
        <ele>1469.51</ele>
        <time>2015-10-23T12:02:42Z</time>
      </trkpt>
      <trkpt lat="46.35317" lon="6.00451">
        <ele>1469.03</ele>
        <time>2015-10-23T12:02:52Z</time>
      </trkpt>
      <trkpt lat="46.35325" lon="6.00482">
        <ele>1469.51</ele>
        <time>2015-10-23T12:03:08Z</time>
      </trkpt>
      <trkpt lat="46.35328" lon="6.00492">
        <ele>1469.51</ele>
        <time>2015-10-23T12:03:13Z</time>
      </trkpt>
      <trkpt lat="46.35342" lon="6.00503">
        <ele>1469.03</ele>
        <time>2015-10-23T12:03:25Z</time>
      </trkpt>
      <trkpt lat="46.35356" lon="6.00499">
        <ele>1469.03</ele>
        <time>2015-10-23T12:03:34Z</time>
      </trkpt>
      <trkpt lat="46.35371" lon="6.00493">
        <ele>1469.03</ele>
        <time>2015-10-23T12:03:45Z</time>
      </trkpt>
      <trkpt lat="46.35372" lon="6.00492">
        <ele>1469.03</ele>
        <time>2015-10-23T12:03:46Z</time>
      </trkpt>
      <trkpt lat="46.35386" lon="6.00484">
        <ele>1468.55</ele>
        <time>2015-10-23T12:03:55Z</time>
      </trkpt>
      <trkpt lat="46.35402" lon="6.00476">
        <ele>1468.55</ele>
        <time>2015-10-23T12:04:08Z</time>
      </trkpt>
      <trkpt lat="46.35417" lon="6.00486">
        <ele>1468.55</ele>
        <time>2015-10-23T12:04:21Z</time>
      </trkpt>
      <trkpt lat="46.35421" lon="6.0049">
        <ele>1468.55</ele>
        <time>2015-10-23T12:04:24Z</time>
      </trkpt>
      <trkpt lat="46.35436" lon="6.005">
        <ele>1468.55</ele>
        <time>2015-10-23T12:04:35Z</time>
      </trkpt>
      <trkpt lat="46.35455" lon="6.00498">
        <ele>1469.03</ele>
        <time>2015-10-23T12:04:46Z</time>
      </trkpt>
      <trkpt lat="46.35459" lon="6.00499">
        <ele>1469.03</ele>
        <time>2015-10-23T12:04:51Z</time>
      </trkpt>
      <trkpt lat="46.3548" lon="6.00507">
        <ele>1469.03</ele>
        <time>2015-10-23T12:05:04Z</time>
      </trkpt>
      <trkpt lat="46.35491" lon="6.00511">
        <ele>1469.03</ele>
        <time>2015-10-23T12:05:14Z</time>
      </trkpt>
      <trkpt lat="46.35508" lon="6.00512">
        <ele>1469.03</ele>
        <time>2015-10-23T12:05:25Z</time>
      </trkpt>
      <trkpt lat="46.35511" lon="6.00518">
        <ele>1468.55</ele>
        <time>2015-10-23T12:05:29Z</time>
      </trkpt>
      <trkpt lat="46.35508" lon="6.0054">
        <ele>1469.03</ele>
        <time>2015-10-23T12:05:41Z</time>
      </trkpt>
      <trkpt lat="46.35504" lon="6.00555">
        <ele>1468.55</ele>
        <time>2015-10-23T12:05:48Z</time>
      </trkpt>
      <trkpt lat="46.35514" lon="6.00576">
        <ele>1468.55</ele>
        <time>2015-10-23T12:06:00Z</time>
      </trkpt>
      <trkpt lat="46.35533" lon="6.00583">
        <ele>1468.55</ele>
        <time>2015-10-23T12:06:13Z</time>
      </trkpt>
      <trkpt lat="46.35551" lon="6.00574">
        <ele>1467.59</ele>
        <time>2015-10-23T12:06:26Z</time>
      </trkpt>
      <trkpt lat="46.35564" lon="6.00565">
        <ele>1467.11</ele>
        <time>2015-10-23T12:06:38Z</time>
      </trkpt>
      <trkpt lat="46.35573" lon="6.0055">
        <ele>1466.63</ele>
        <time>2015-10-23T12:06:46Z</time>
      </trkpt>
      <trkpt lat="46.35582" lon="6.0054">
        <ele>1466.15</ele>
        <time>2015-10-23T12:06:57Z</time>
      </trkpt>
      <trkpt lat="46.35596" lon="6.00535">
        <ele>1465.67</ele>
        <time>2015-10-23T12:07:08Z</time>
      </trkpt>
      <trkpt lat="46.35597" lon="6.00536">
        <ele>1465.19</ele>
        <time>2015-10-23T12:07:10Z</time>
      </trkpt>
      <trkpt lat="46.35601" lon="6.00538">
        <ele>1465.19</ele>
        <time>2015-10-23T12:07:13Z</time>
      </trkpt>
      <trkpt lat="46.35607" lon="6.0054">
        <ele>1464.71</ele>
        <time>2015-10-23T12:07:17Z</time>
      </trkpt>
      <trkpt lat="46.35618" lon="6.00546">
        <ele>1464.71</ele>
        <time>2015-10-23T12:07:26Z</time>
      </trkpt>
      <trkpt lat="46.35624" lon="6.00552">
        <ele>1464.71</ele>
        <time>2015-10-23T12:07:31Z</time>
      </trkpt>
      <trkpt lat="46.35637" lon="6.00573">
        <ele>1464.23</ele>
        <time>2015-10-23T12:07:43Z</time>
      </trkpt>
      <trkpt lat="46.35646" lon="6.00582">
        <ele>1464.23</ele>
        <time>2015-10-23T12:07:52Z</time>
      </trkpt>
      <trkpt lat="46.35661" lon="6.00602">
        <ele>1463.74</ele>
        <time>2015-10-23T12:08:05Z</time>
      </trkpt>
      <trkpt lat="46.35669" lon="6.00622">
        <ele>1463.26</ele>
        <time>2015-10-23T12:08:17Z</time>
      </trkpt>
      <trkpt lat="46.35673" lon="6.00633">
        <ele>1463.26</ele>
        <time>2015-10-23T12:08:22Z</time>
      </trkpt>
      <trkpt lat="46.35676" lon="6.00643">
        <ele>1462.78</ele>
        <time>2015-10-23T12:08:29Z</time>
      </trkpt>
      <trkpt lat="46.35677" lon="6.00649">
        <ele>1462.78</ele>
        <time>2015-10-23T12:08:32Z</time>
      </trkpt>
      <trkpt lat="46.35683" lon="6.00672">
        <ele>1462.3</ele>
        <time>2015-10-23T12:08:41Z</time>
      </trkpt>
      <trkpt lat="46.35685" lon="6.00681">
        <ele>1462.3</ele>
        <time>2015-10-23T12:08:48Z</time>
      </trkpt>
      <trkpt lat="46.35689" lon="6.00694">
        <ele>1461.82</ele>
        <time>2015-10-23T12:08:54Z</time>
      </trkpt>
      <trkpt lat="46.35691" lon="6.00704">
        <ele>1461.34</ele>
        <time>2015-10-23T12:08:59Z</time>
      </trkpt>
      <trkpt lat="46.35696" lon="6.00723">
        <ele>1461.34</ele>
        <time>2015-10-23T12:09:09Z</time>
      </trkpt>
      <trkpt lat="46.3571" lon="6.00742">
        <ele>1461.34</ele>
        <time>2015-10-23T12:09:21Z</time>
      </trkpt>
      <trkpt lat="46.35725" lon="6.00756">
        <ele>1461.34</ele>
        <time>2015-10-23T12:09:34Z</time>
      </trkpt>
      <trkpt lat="46.35741" lon="6.00766">
        <ele>1460.38</ele>
        <time>2015-10-23T12:09:48Z</time>
      </trkpt>
      <trkpt lat="46.35754" lon="6.0078">
        <ele>1460.38</ele>
        <time>2015-10-23T12:09:59Z</time>
      </trkpt>
      <trkpt lat="46.35761" lon="6.00792">
        <ele>1459.9</ele>
        <time>2015-10-23T12:10:06Z</time>
      </trkpt>
      <trkpt lat="46.3577" lon="6.00805">
        <ele>1458.94</ele>
        <time>2015-10-23T12:10:17Z</time>
      </trkpt>
      <trkpt lat="46.35771" lon="6.00806">
        <ele>1458.94</ele>
        <time>2015-10-23T12:10:18Z</time>
      </trkpt>
      <trkpt lat="46.35788" lon="6.00805">
        <ele>1458.94</ele>
        <time>2015-10-23T12:10:28Z</time>
      </trkpt>
      <trkpt lat="46.35795" lon="6.00804">
        <ele>1458.46</ele>
        <time>2015-10-23T12:10:33Z</time>
      </trkpt>
      <trkpt lat="46.35801" lon="6.00803">
        <ele>1457.98</ele>
        <time>2015-10-23T12:10:37Z</time>
      </trkpt>
      <trkpt lat="46.35812" lon="6.00798">
        <ele>1457.02</ele>
        <time>2015-10-23T12:10:46Z</time>
      </trkpt>
      <trkpt lat="46.35814" lon="6.00785">
        <ele>1455.57</ele>
        <time>2015-10-23T12:10:54Z</time>
      </trkpt>
      <trkpt lat="46.35815" lon="6.0078">
        <ele>1455.09</ele>
        <time>2015-10-23T12:10:58Z</time>
      </trkpt>
      <trkpt lat="46.35817" lon="6.00766">
        <ele>1452.69</ele>
        <time>2015-10-23T12:11:07Z</time>
      </trkpt>
      <trkpt lat="46.35818" lon="6.00764">
        <ele>1452.21</ele>
        <time>2015-10-23T12:11:09Z</time>
      </trkpt>
      <trkpt lat="46.35825" lon="6.00757">
        <ele>1450.29</ele>
        <time>2015-10-23T12:11:16Z</time>
      </trkpt>
      <trkpt lat="46.35829" lon="6.00753">
        <ele>1448.36</ele>
        <time>2015-10-23T12:11:21Z</time>
      </trkpt>
      <trkpt lat="46.3583" lon="6.00746">
        <ele>1447.4</ele>
        <time>2015-10-23T12:11:26Z</time>
      </trkpt>
      <trkpt lat="46.3583" lon="6.00742">
        <ele>1446.92</ele>
        <time>2015-10-23T12:11:28Z</time>
      </trkpt>
      <trkpt lat="46.35833" lon="6.0073">
        <ele>1445.48</ele>
        <time>2015-10-23T12:11:35Z</time>
      </trkpt>
      <trkpt lat="46.35838" lon="6.0072">
        <ele>1444.04</ele>
        <time>2015-10-23T12:11:46Z</time>
      </trkpt>
      <trkpt lat="46.3585" lon="6.00713">
        <ele>1442.6</ele>
        <time>2015-10-23T12:11:59Z</time>
      </trkpt>
      <trkpt lat="46.3586" lon="6.00712">
        <ele>1441.15</ele>
        <time>2015-10-23T12:12:12Z</time>
      </trkpt>
      <trkpt lat="46.35861" lon="6.00712">
        <ele>1441.15</ele>
        <time>2015-10-23T12:12:13Z</time>
      </trkpt>
      <trkpt lat="46.35873" lon="6.00718">
        <ele>1441.15</ele>
        <time>2015-10-23T12:12:25Z</time>
      </trkpt>
      <trkpt lat="46.35883" lon="6.00727">
        <ele>1440.19</ele>
        <time>2015-10-23T12:12:34Z</time>
      </trkpt>
      <trkpt lat="46.35894" lon="6.00732">
        <ele>1439.71</ele>
        <time>2015-10-23T12:12:47Z</time>
      </trkpt>
      <trkpt lat="46.35901" lon="6.00734">
        <ele>1438.75</ele>
        <time>2015-10-23T12:12:55Z</time>
      </trkpt>
      <trkpt lat="46.35908" lon="6.00735">
        <ele>1438.27</ele>
        <time>2015-10-23T12:13:01Z</time>
      </trkpt>
      <trkpt lat="46.35914" lon="6.00742">
        <ele>1437.79</ele>
        <time>2015-10-23T12:13:08Z</time>
      </trkpt>
      <trkpt lat="46.35923" lon="6.00756">
        <ele>1436.35</ele>
        <time>2015-10-23T12:13:20Z</time>
      </trkpt>
      <trkpt lat="46.35925" lon="6.00762">
        <ele>1434.42</ele>
        <time>2015-10-23T12:13:27Z</time>
      </trkpt>
      <trkpt lat="46.35933" lon="6.00765">
        <ele>1433.46</ele>
        <time>2015-10-23T12:13:37Z</time>
      </trkpt>
      <trkpt lat="46.35942" lon="6.00754">
        <ele>1432.02</ele>
        <time>2015-10-23T12:13:47Z</time>
      </trkpt>
      <trkpt lat="46.35951" lon="6.00746">
        <ele>1431.06</ele>
        <time>2015-10-23T12:13:55Z</time>
      </trkpt>
      <trkpt lat="46.35969" lon="6.0074">
        <ele>1431.06</ele>
        <time>2015-10-23T12:14:09Z</time>
      </trkpt>
      <trkpt lat="46.35984" lon="6.00747">
        <ele>1430.58</ele>
        <time>2015-10-23T12:14:24Z</time>
      </trkpt>
      <trkpt lat="46.35987" lon="6.00749">
        <ele>1430.1</ele>
        <time>2015-10-23T12:14:26Z</time>
      </trkpt>
      <trkpt lat="46.35998" lon="6.0075">
        <ele>1428.66</ele>
        <time>2015-10-23T12:14:36Z</time>
      </trkpt>
      <trkpt lat="46.36012" lon="6.00759">
        <ele>1426.25</ele>
        <time>2015-10-23T12:14:49Z</time>
      </trkpt>
      <trkpt lat="46.36022" lon="6.0077">
        <ele>1425.77</ele>
        <time>2015-10-23T12:15:00Z</time>
      </trkpt>
      <trkpt lat="46.36023" lon="6.0077">
        <ele>1425.29</ele>
        <time>2015-10-23T12:15:01Z</time>
      </trkpt>
      <trkpt lat="46.36026" lon="6.00767">
        <ele>1425.29</ele>
        <time>2015-10-23T12:15:04Z</time>
      </trkpt>
      <trkpt lat="46.36041" lon="6.00774">
        <ele>1424.33</ele>
        <time>2015-10-23T12:15:15Z</time>
      </trkpt>
      <trkpt lat="46.36043" lon="6.00776">
        <ele>1423.85</ele>
        <time>2015-10-23T12:15:18Z</time>
      </trkpt>
      <trkpt lat="46.36057" lon="6.00782">
        <ele>1422.41</ele>
        <time>2015-10-23T12:15:30Z</time>
      </trkpt>
      <trkpt lat="46.36064" lon="6.00796">
        <ele>1420.49</ele>
        <time>2015-10-23T12:15:42Z</time>
      </trkpt>
      <trkpt lat="46.36071" lon="6.00804">
        <ele>1418.08</ele>
        <time>2015-10-23T12:15:53Z</time>
      </trkpt>
      <trkpt lat="46.36081" lon="6.00808">
        <ele>1415.68</ele>
        <time>2015-10-23T12:16:06Z</time>
      </trkpt>
      <trkpt lat="46.36082" lon="6.00811">
        <ele>1415.2</ele>
        <time>2015-10-23T12:16:09Z</time>
      </trkpt>
      <trkpt lat="46.36098" lon="6.00829">
        <ele>1414.24</ele>
        <time>2015-10-23T12:16:19Z</time>
      </trkpt>
      <trkpt lat="46.36106" lon="6.00834">
        <ele>1412.79</ele>
        <time>2015-10-23T12:16:29Z</time>
      </trkpt>
      <trkpt lat="46.36117" lon="6.00842">
        <ele>1410.39</ele>
        <time>2015-10-23T12:16:40Z</time>
      </trkpt>
      <trkpt lat="46.36131" lon="6.00847">
        <ele>1409.43</ele>
        <time>2015-10-23T12:16:51Z</time>
      </trkpt>
      <trkpt lat="46.36133" lon="6.00847">
        <ele>1408.95</ele>
        <time>2015-10-23T12:16:53Z</time>
      </trkpt>
      <trkpt lat="46.36147" lon="6.00857">
        <ele>1407.99</ele>
        <time>2015-10-23T12:17:05Z</time>
      </trkpt>
      <trkpt lat="46.36154" lon="6.00868">
        <ele>1405.58</ele>
        <time>2015-10-23T12:17:16Z</time>
      </trkpt>
      <trkpt lat="46.36156" lon="6.0087">
        <ele>1404.62</ele>
        <time>2015-10-23T12:17:20Z</time>
      </trkpt>
      <trkpt lat="46.3616" lon="6.00871">
        <ele>1404.14</ele>
        <time>2015-10-23T12:17:24Z</time>
      </trkpt>
      <trkpt lat="46.36168" lon="6.00871">
        <ele>1401.74</ele>
        <time>2015-10-23T12:17:34Z</time>
      </trkpt>
      <trkpt lat="46.36177" lon="6.00865">
        <ele>1399.34</ele>
        <time>2015-10-23T12:17:46Z</time>
      </trkpt>
      <trkpt lat="46.36182" lon="6.00862">
        <ele>1398.37</ele>
        <time>2015-10-23T12:17:50Z</time>
      </trkpt>
      <trkpt lat="46.36196" lon="6.00853">
        <ele>1395.49</ele>
        <time>2015-10-23T12:18:02Z</time>
      </trkpt>
      <trkpt lat="46.36207" lon="6.0085">
        <ele>1392.61</ele>
        <time>2015-10-23T12:18:15Z</time>
      </trkpt>
      <trkpt lat="46.36211" lon="6.00849">
        <ele>1389.72</ele>
        <time>2015-10-23T12:18:26Z</time>
      </trkpt>
      <trkpt lat="46.36223" lon="6.00856">
        <ele>1388.76</ele>
        <time>2015-10-23T12:18:34Z</time>
      </trkpt>
      <trkpt lat="46.36246" lon="6.00872">
        <ele>1385.88</ele>
        <time>2015-10-23T12:18:50Z</time>
      </trkpt>
      <trkpt lat="46.36249" lon="6.00874">
        <ele>1385.88</ele>
        <time>2015-10-23T12:18:52Z</time>
      </trkpt>
      <trkpt lat="46.36267" lon="6.0089">
        <ele>1383.47</ele>
        <time>2015-10-23T12:19:05Z</time>
      </trkpt>
      <trkpt lat="46.36275" lon="6.00899">
        <ele>1382.99</ele>
        <time>2015-10-23T12:19:12Z</time>
      </trkpt>
      <trkpt lat="46.36285" lon="6.00919">
        <ele>1381.07</ele>
        <time>2015-10-23T12:19:24Z</time>
      </trkpt>
      <trkpt lat="46.36288" lon="6.00928">
        <ele>1380.11</ele>
        <time>2015-10-23T12:19:29Z</time>
      </trkpt>
      <trkpt lat="46.36292" lon="6.00933">
        <ele>1378.67</ele>
        <time>2015-10-23T12:19:37Z</time>
      </trkpt>
      <trkpt lat="46.36294" lon="6.00936">
        <ele>1378.19</ele>
        <time>2015-10-23T12:19:39Z</time>
      </trkpt>
      <trkpt lat="46.36296" lon="6.00943">
        <ele>1377.71</ele>
        <time>2015-10-23T12:19:43Z</time>
      </trkpt>
      <trkpt lat="46.363" lon="6.00949">
        <ele>1377.23</ele>
        <time>2015-10-23T12:19:59Z</time>
      </trkpt>
      <trkpt lat="46.363" lon="6.00949">
        <ele>1377.23</ele>
        <time>2015-10-23T12:20:01Z</time>
      </trkpt>
      <trkpt lat="46.36305" lon="6.00955">
        <ele>1376.75</ele>
        <time>2015-10-23T12:20:14Z</time>
      </trkpt>
      <trkpt lat="46.36305" lon="6.00955">
        <ele>1376.75</ele>
        <time>2015-10-23T12:20:15Z</time>
      </trkpt>
      <trkpt lat="46.36304" lon="6.00951">
        <ele>1375.78</ele>
        <time>2015-10-23T12:20:21Z</time>
      </trkpt>
      <trkpt lat="46.36308" lon="6.00939">
        <ele>1371.94</ele>
        <time>2015-10-23T12:20:29Z</time>
      </trkpt>
      <trkpt lat="46.36315" lon="6.00933">
        <ele>1370.02</ele>
        <time>2015-10-23T12:20:37Z</time>
      </trkpt>
      <trkpt lat="46.36323" lon="6.00926">
        <ele>1366.65</ele>
        <time>2015-10-23T12:20:49Z</time>
      </trkpt>
      <trkpt lat="46.36328" lon="6.00921">
        <ele>1363.29</ele>
        <time>2015-10-23T12:20:58Z</time>
      </trkpt>
      <trkpt lat="46.36338" lon="6.00914">
        <ele>1359.92</ele>
        <time>2015-10-23T12:21:07Z</time>
      </trkpt>
      <trkpt lat="46.3634" lon="6.00913">
        <ele>1359.92</ele>
        <time>2015-10-23T12:21:08Z</time>
      </trkpt>
      <trkpt lat="46.36351" lon="6.00898">
        <ele>1358</ele>
        <time>2015-10-23T12:21:19Z</time>
      </trkpt>
      <trkpt lat="46.36358" lon="6.00886">
        <ele>1354.63</ele>
        <time>2015-10-23T12:21:30Z</time>
      </trkpt>
      <trkpt lat="46.36363" lon="6.00879">
        <ele>1352.23</ele>
        <time>2015-10-23T12:21:37Z</time>
      </trkpt>
      <trkpt lat="46.36369" lon="6.00876">
        <ele>1349.35</ele>
        <time>2015-10-23T12:21:48Z</time>
      </trkpt>
      <trkpt lat="46.36374" lon="6.00881">
        <ele>1347.43</ele>
        <time>2015-10-23T12:21:55Z</time>
      </trkpt>
      <trkpt lat="46.36377" lon="6.00888">
        <ele>1346.46</ele>
        <time>2015-10-23T12:21:59Z</time>
      </trkpt>
      <trkpt lat="46.36383" lon="6.00895">
        <ele>1344.06</ele>
        <time>2015-10-23T12:22:05Z</time>
      </trkpt>
      <trkpt lat="46.36391" lon="6.0091">
        <ele>1341.18</ele>
        <time>2015-10-23T12:22:16Z</time>
      </trkpt>
      <trkpt lat="46.36396" lon="6.00918">
        <ele>1339.25</ele>
        <time>2015-10-23T12:22:21Z</time>
      </trkpt>
      <trkpt lat="46.36399" lon="6.00921">
        <ele>1339.25</ele>
        <time>2015-10-23T12:22:23Z</time>
      </trkpt>
      <trkpt lat="46.364" lon="6.00924">
        <ele>1339.25</ele>
        <time>2015-10-23T12:22:25Z</time>
      </trkpt>
      <trkpt lat="46.36399" lon="6.0093">
        <ele>1338.29</ele>
        <time>2015-10-23T12:22:30Z</time>
      </trkpt>
      <trkpt lat="46.36404" lon="6.00934">
        <ele>1337.33</ele>
        <time>2015-10-23T12:22:35Z</time>
      </trkpt>
      <trkpt lat="46.36416" lon="6.00947">
        <ele>1334.45</ele>
        <time>2015-10-23T12:22:48Z</time>
      </trkpt>
      <trkpt lat="46.36424" lon="6.00951">
        <ele>1332.52</ele>
        <time>2015-10-23T12:22:55Z</time>
      </trkpt>
      <trkpt lat="46.36431" lon="6.00954">
        <ele>1331.08</ele>
        <time>2015-10-23T12:22:59Z</time>
      </trkpt>
      <trkpt lat="46.36444" lon="6.00964">
        <ele>1329.64</ele>
        <time>2015-10-23T12:23:11Z</time>
      </trkpt>
      <trkpt lat="46.36446" lon="6.0097">
        <ele>1329.64</ele>
        <time>2015-10-23T12:23:14Z</time>
      </trkpt>
      <trkpt lat="46.36465" lon="6.00988">
        <ele>1330.12</ele>
        <time>2015-10-23T12:23:27Z</time>
      </trkpt>
      <trkpt lat="46.36483" lon="6.00981">
        <ele>1320.51</ele>
        <time>2015-10-23T12:23:39Z</time>
      </trkpt>
      <trkpt lat="46.36484" lon="6.0098">
        <ele>1334.93</ele>
        <time>2015-10-23T12:23:40Z</time>
      </trkpt>
      <trkpt lat="46.36486" lon="6.00978">
        <ele>1326.28</ele>
        <time>2015-10-23T12:23:42Z</time>
      </trkpt>
      <trkpt lat="46.36488" lon="6.00976">
        <ele>1329.64</ele>
        <time>2015-10-23T12:23:44Z</time>
      </trkpt>
      <trkpt lat="46.36496" lon="6.00971">
        <ele>1329.16</ele>
        <time>2015-10-23T12:23:50Z</time>
      </trkpt>
      <trkpt lat="46.36513" lon="6.00957">
        <ele>1329.16</ele>
        <time>2015-10-23T12:24:06Z</time>
      </trkpt>
      <trkpt lat="46.36515" lon="6.00955">
        <ele>1329.16</ele>
        <time>2015-10-23T12:24:08Z</time>
      </trkpt>
      <trkpt lat="46.36527" lon="6.0096">
        <ele>1328.68</ele>
        <time>2015-10-23T12:24:15Z</time>
      </trkpt>
      <trkpt lat="46.36538" lon="6.00974">
        <ele>1328.2</ele>
        <time>2015-10-23T12:24:26Z</time>
      </trkpt>
      <trkpt lat="46.36542" lon="6.00982">
        <ele>1328.2</ele>
        <time>2015-10-23T12:24:32Z</time>
      </trkpt>
      <trkpt lat="46.3655" lon="6.00989">
        <ele>1327.72</ele>
        <time>2015-10-23T12:24:38Z</time>
      </trkpt>
      <trkpt lat="46.36557" lon="6.01006">
        <ele>1327.24</ele>
        <time>2015-10-23T12:24:50Z</time>
      </trkpt>
      <trkpt lat="46.36558" lon="6.01013">
        <ele>1327.24</ele>
        <time>2015-10-23T12:24:53Z</time>
      </trkpt>
      <trkpt lat="46.36561" lon="6.01031">
        <ele>1326.76</ele>
        <time>2015-10-23T12:25:00Z</time>
      </trkpt>
      <trkpt lat="46.36562" lon="6.01038">
        <ele>1326.76</ele>
        <time>2015-10-23T12:25:02Z</time>
      </trkpt>
      <trkpt lat="46.36566" lon="6.01047">
        <ele>1326.76</ele>
        <time>2015-10-23T12:25:06Z</time>
      </trkpt>
      <trkpt lat="46.36574" lon="6.01051">
        <ele>1326.76</ele>
        <time>2015-10-23T12:25:20Z</time>
      </trkpt>
      <trkpt lat="46.36574" lon="6.01051">
        <ele>1326.76</ele>
        <time>2015-10-23T12:25:22Z</time>
      </trkpt>
      <trkpt lat="46.36569" lon="6.01046">
        <ele>1326.28</ele>
        <time>2015-10-23T12:25:31Z</time>
      </trkpt>
      <trkpt lat="46.3658" lon="6.01043">
        <ele>1325.31</ele>
        <time>2015-10-23T12:25:41Z</time>
      </trkpt>
      <trkpt lat="46.3659" lon="6.01038">
        <ele>1323.39</ele>
        <time>2015-10-23T12:25:50Z</time>
      </trkpt>
      <trkpt lat="46.36602" lon="6.01038">
        <ele>1321.47</ele>
        <time>2015-10-23T12:25:58Z</time>
      </trkpt>
      <trkpt lat="46.36611" lon="6.01039">
        <ele>1320.03</ele>
        <time>2015-10-23T12:26:05Z</time>
      </trkpt>
      <trkpt lat="46.36625" lon="6.01038">
        <ele>1316.18</ele>
        <time>2015-10-23T12:26:16Z</time>
      </trkpt>
      <trkpt lat="46.36634" lon="6.01037">
        <ele>1313.78</ele>
        <time>2015-10-23T12:26:24Z</time>
      </trkpt>
      <trkpt lat="46.36649" lon="6.01042">
        <ele>1310.41</ele>
        <time>2015-10-23T12:26:36Z</time>
      </trkpt>
      <trkpt lat="46.36655" lon="6.01048">
        <ele>1308.97</ele>
        <time>2015-10-23T12:26:43Z</time>
      </trkpt>
      <trkpt lat="46.36671" lon="6.01053">
        <ele>1307.05</ele>
        <time>2015-10-23T12:26:55Z</time>
      </trkpt>
      <trkpt lat="46.36673" lon="6.01054">
        <ele>1306.57</ele>
        <time>2015-10-23T12:26:58Z</time>
      </trkpt>
      <trkpt lat="46.36678" lon="6.01064">
        <ele>1306.09</ele>
        <time>2015-10-23T12:27:10Z</time>
      </trkpt>
      <trkpt lat="46.36682" lon="6.01067">
        <ele>1305.13</ele>
        <time>2015-10-23T12:27:15Z</time>
      </trkpt>
      <trkpt lat="46.36691" lon="6.01062">
        <ele>1301.76</ele>
        <time>2015-10-23T12:27:26Z</time>
      </trkpt>
      <trkpt lat="46.36691" lon="6.01061">
        <ele>1300.8</ele>
        <time>2015-10-23T12:27:27Z</time>
      </trkpt>
      <trkpt lat="46.36692" lon="6.01051">
        <ele>1297.44</ele>
        <time>2015-10-23T12:27:37Z</time>
      </trkpt>
      <trkpt lat="46.36692" lon="6.01044">
        <ele>1296.48</ele>
        <time>2015-10-23T12:27:41Z</time>
      </trkpt>
      <trkpt lat="46.36692" lon="6.01041">
        <ele>1295.99</ele>
        <time>2015-10-23T12:27:43Z</time>
      </trkpt>
      <trkpt lat="46.36691" lon="6.01033">
        <ele>1294.07</ele>
        <time>2015-10-23T12:27:48Z</time>
      </trkpt>
      <trkpt lat="46.36689" lon="6.01029">
        <ele>1293.59</ele>
        <time>2015-10-23T12:27:50Z</time>
      </trkpt>
      <trkpt lat="46.36687" lon="6.01021">
        <ele>1291.19</ele>
        <time>2015-10-23T12:27:58Z</time>
      </trkpt>
      <trkpt lat="46.36685" lon="6.01011">
        <ele>1289.75</ele>
        <time>2015-10-23T12:28:03Z</time>
      </trkpt>
      <trkpt lat="46.36685" lon="6.01008">
        <ele>1288.78</ele>
        <time>2015-10-23T12:28:08Z</time>
      </trkpt>
      <trkpt lat="46.3668" lon="6.00998">
        <ele>1287.82</ele>
        <time>2015-10-23T12:28:13Z</time>
      </trkpt>
      <trkpt lat="46.36677" lon="6.00991">
        <ele>1286.38</ele>
        <time>2015-10-23T12:28:17Z</time>
      </trkpt>
      <trkpt lat="46.36677" lon="6.00988">
        <ele>1285.9</ele>
        <time>2015-10-23T12:28:19Z</time>
      </trkpt>
      <trkpt lat="46.36669" lon="6.00974">
        <ele>1283.02</ele>
        <time>2015-10-23T12:28:29Z</time>
      </trkpt>
      <trkpt lat="46.36664" lon="6.0096">
        <ele>1280.61</ele>
        <time>2015-10-23T12:28:38Z</time>
      </trkpt>
      <trkpt lat="46.36662" lon="6.00957">
        <ele>1279.65</ele>
        <time>2015-10-23T12:28:40Z</time>
      </trkpt>
      <trkpt lat="46.3666" lon="6.00951">
        <ele>1278.69</ele>
        <time>2015-10-23T12:28:44Z</time>
      </trkpt>
      <trkpt lat="46.36656" lon="6.00944">
        <ele>1276.77</ele>
        <time>2015-10-23T12:28:50Z</time>
      </trkpt>
      <trkpt lat="46.36651" lon="6.00937">
        <ele>1275.81</ele>
        <time>2015-10-23T12:28:55Z</time>
      </trkpt>
      <trkpt lat="46.36642" lon="6.00926">
        <ele>1272.44</ele>
        <time>2015-10-23T12:29:07Z</time>
      </trkpt>
      <trkpt lat="46.36641" lon="6.00925">
        <ele>1271.48</ele>
        <time>2015-10-23T12:29:08Z</time>
      </trkpt>
      <trkpt lat="46.3664" lon="6.00924">
        <ele>1271</ele>
        <time>2015-10-23T12:29:10Z</time>
      </trkpt>
      <trkpt lat="46.36638" lon="6.00919">
        <ele>1268.6</ele>
        <time>2015-10-23T12:29:21Z</time>
      </trkpt>
      <trkpt lat="46.36633" lon="6.0091">
        <ele>1264.75</ele>
        <time>2015-10-23T12:29:32Z</time>
      </trkpt>
      <trkpt lat="46.36631" lon="6.00901">
        <ele>1261.87</ele>
        <time>2015-10-23T12:29:41Z</time>
      </trkpt>
      <trkpt lat="46.36629" lon="6.00899">
        <ele>1260.91</ele>
        <time>2015-10-23T12:29:44Z</time>
      </trkpt>
      <trkpt lat="46.36629" lon="6.00889">
        <ele>1259.46</ele>
        <time>2015-10-23T12:29:50Z</time>
      </trkpt>
      <trkpt lat="46.36625" lon="6.00885">
        <ele>1258.98</ele>
        <time>2015-10-23T12:29:54Z</time>
      </trkpt>
      <trkpt lat="46.36616" lon="6.00874">
        <ele>1257.06</ele>
        <time>2015-10-23T12:30:04Z</time>
      </trkpt>
      <trkpt lat="46.36615" lon="6.00872">
        <ele>1257.06</ele>
        <time>2015-10-23T12:30:06Z</time>
      </trkpt>
      <trkpt lat="46.36607" lon="6.00858">
        <ele>1255.62</ele>
        <time>2015-10-23T12:30:13Z</time>
      </trkpt>
      <trkpt lat="46.36603" lon="6.00848">
        <ele>1254.18</ele>
        <time>2015-10-23T12:30:21Z</time>
      </trkpt>
      <trkpt lat="46.36601" lon="6.00846">
        <ele>1253.7</ele>
        <time>2015-10-23T12:30:23Z</time>
      </trkpt>
      <trkpt lat="46.36599" lon="6.00842">
        <ele>1253.7</ele>
        <time>2015-10-23T12:30:25Z</time>
      </trkpt>
      <trkpt lat="46.36598" lon="6.00831">
        <ele>1251.29</ele>
        <time>2015-10-23T12:30:35Z</time>
      </trkpt>
      <trkpt lat="46.36589" lon="6.00815">
        <ele>1247.93</ele>
        <time>2015-10-23T12:30:47Z</time>
      </trkpt>
      <trkpt lat="46.36586" lon="6.00808">
        <ele>1245.04</ele>
        <time>2015-10-23T12:30:55Z</time>
      </trkpt>
      <trkpt lat="46.36579" lon="6.00796">
        <ele>1242.16</ele>
        <time>2015-10-23T12:31:05Z</time>
      </trkpt>
      <trkpt lat="46.36578" lon="6.00794">
        <ele>1241.2</ele>
        <time>2015-10-23T12:31:08Z</time>
      </trkpt>
      <trkpt lat="46.36573" lon="6.00787">
        <ele>1238.8</ele>
        <time>2015-10-23T12:31:14Z</time>
      </trkpt>
      <trkpt lat="46.36577" lon="6.00781">
        <ele>1235.43</ele>
        <time>2015-10-23T12:31:24Z</time>
      </trkpt>
      <trkpt lat="46.36582" lon="6.00783">
        <ele>1232.07</ele>
        <time>2015-10-23T12:31:33Z</time>
      </trkpt>
      <trkpt lat="46.36585" lon="6.00784">
        <ele>1230.62</ele>
        <time>2015-10-23T12:31:37Z</time>
      </trkpt>
      <trkpt lat="46.36597" lon="6.00785">
        <ele>1227.26</ele>
        <time>2015-10-23T12:31:46Z</time>
      </trkpt>
      <trkpt lat="46.36597" lon="6.00785">
        <ele>1226.3</ele>
        <time>2015-10-23T12:32:08Z</time>
      </trkpt>
      <trkpt lat="46.36602" lon="6.00785">
        <ele>1223.42</ele>
        <time>2015-10-23T12:32:21Z</time>
      </trkpt>
      <trkpt lat="46.36605" lon="6.00786">
        <ele>1221.49</ele>
        <time>2015-10-23T12:32:26Z</time>
      </trkpt>
      <trkpt lat="46.36618" lon="6.00784">
        <ele>1219.09</ele>
        <time>2015-10-23T12:32:37Z</time>
      </trkpt>
      <trkpt lat="46.36616" lon="6.00778">
        <ele>1216.21</ele>
        <time>2015-10-23T12:32:47Z</time>
      </trkpt>
      <trkpt lat="46.36615" lon="6.00775">
        <ele>1215.24</ele>
        <time>2015-10-23T12:33:03Z</time>
      </trkpt>
      <trkpt lat="46.36615" lon="6.00775">
        <ele>1215.24</ele>
        <time>2015-10-23T12:33:36Z</time>
      </trkpt>
      <trkpt lat="46.36615" lon="6.00771">
        <ele>1214.28</ele>
        <time>2015-10-23T12:33:52Z</time>
      </trkpt>
      <trkpt lat="46.36612" lon="6.00763">
        <ele>1211.88</ele>
        <time>2015-10-23T12:34:01Z</time>
      </trkpt>
      <trkpt lat="46.36611" lon="6.00759">
        <ele>1210.44</ele>
        <time>2015-10-23T12:34:05Z</time>
      </trkpt>
      <trkpt lat="46.36609" lon="6.00748">
        <ele>1206.59</ele>
        <time>2015-10-23T12:34:15Z</time>
      </trkpt>
      <trkpt lat="46.36608" lon="6.00747">
        <ele>1206.59</ele>
        <time>2015-10-23T12:34:16Z</time>
      </trkpt>
      <trkpt lat="46.36604" lon="6.00735">
        <ele>1203.23</ele>
        <time>2015-10-23T12:34:27Z</time>
      </trkpt>
      <trkpt lat="46.36604" lon="6.00734">
        <ele>1202.75</ele>
        <time>2015-10-23T12:34:28Z</time>
      </trkpt>
      <trkpt lat="46.36602" lon="6.00729">
        <ele>1201.3</ele>
        <time>2015-10-23T12:34:32Z</time>
      </trkpt>
      <trkpt lat="46.36599" lon="6.00724">
        <ele>1199.86</ele>
        <time>2015-10-23T12:34:37Z</time>
      </trkpt>
      <trkpt lat="46.36597" lon="6.00719">
        <ele>1198.9</ele>
        <time>2015-10-23T12:34:41Z</time>
      </trkpt>
      <trkpt lat="46.36592" lon="6.00711">
        <ele>1195.54</ele>
        <time>2015-10-23T12:34:51Z</time>
      </trkpt>
      <trkpt lat="46.3659" lon="6.00704">
        <ele>1192.17</ele>
        <time>2015-10-23T12:35:00Z</time>
      </trkpt>
      <trkpt lat="46.36587" lon="6.00695">
        <ele>1190.25</ele>
        <time>2015-10-23T12:35:07Z</time>
      </trkpt>
      <trkpt lat="46.36585" lon="6.00693">
        <ele>1189.29</ele>
        <time>2015-10-23T12:35:09Z</time>
      </trkpt>
      <trkpt lat="46.36583" lon="6.00692">
        <ele>1188.81</ele>
        <time>2015-10-23T12:35:11Z</time>
      </trkpt>
      <trkpt lat="46.36579" lon="6.00692">
        <ele>1187.37</ele>
        <time>2015-10-23T12:35:16Z</time>
      </trkpt>
      <trkpt lat="46.36577" lon="6.0069">
        <ele>1186.88</ele>
        <time>2015-10-23T12:35:19Z</time>
      </trkpt>
      <trkpt lat="46.36576" lon="6.00687">
        <ele>1185.92</ele>
        <time>2015-10-23T12:35:21Z</time>
      </trkpt>
      <trkpt lat="46.36576" lon="6.0068">
        <ele>1184.96</ele>
        <time>2015-10-23T12:35:26Z</time>
      </trkpt>
      <trkpt lat="46.36575" lon="6.00675">
        <ele>1185.44</ele>
        <time>2015-10-23T12:35:28Z</time>
      </trkpt>
      <trkpt lat="46.3657" lon="6.00668">
        <ele>1184</ele>
        <time>2015-10-23T12:35:33Z</time>
      </trkpt>
      <trkpt lat="46.36553" lon="6.00664">
        <ele>1181.12</ele>
        <time>2015-10-23T12:35:46Z</time>
      </trkpt>
      <trkpt lat="46.36551" lon="6.00664">
        <ele>1180.64</ele>
        <time>2015-10-23T12:35:47Z</time>
      </trkpt>
      <trkpt lat="46.36535" lon="6.00654">
        <ele>1178.71</ele>
        <time>2015-10-23T12:35:59Z</time>
      </trkpt>
      <trkpt lat="46.36526" lon="6.00641">
        <ele>1176.79</ele>
        <time>2015-10-23T12:36:07Z</time>
      </trkpt>
      <trkpt lat="46.36521" lon="6.00639">
        <ele>1174.87</ele>
        <time>2015-10-23T12:36:14Z</time>
      </trkpt>
      <trkpt lat="46.36507" lon="6.00624">
        <ele>1172.95</ele>
        <time>2015-10-23T12:36:25Z</time>
      </trkpt>
      <trkpt lat="46.36499" lon="6.00612">
        <ele>1171.5</ele>
        <time>2015-10-23T12:36:32Z</time>
      </trkpt>
      <trkpt lat="46.36494" lon="6.00599">
        <ele>1168.62</ele>
        <time>2015-10-23T12:36:43Z</time>
      </trkpt>
      <trkpt lat="46.36483" lon="6.00576">
        <ele>1165.74</ele>
        <time>2015-10-23T12:36:53Z</time>
      </trkpt>
      <trkpt lat="46.36478" lon="6.00566">
        <ele>1164.77</ele>
        <time>2015-10-23T12:36:58Z</time>
      </trkpt>
      <trkpt lat="46.36477" lon="6.00551">
        <ele>1161.89</ele>
        <time>2015-10-23T12:37:08Z</time>
      </trkpt>
      <trkpt lat="46.36473" lon="6.00526">
        <ele>1159.01</ele>
        <time>2015-10-23T12:37:20Z</time>
      </trkpt>
      <trkpt lat="46.36472" lon="6.00514">
        <ele>1157.56</ele>
        <time>2015-10-23T12:37:25Z</time>
      </trkpt>
      <trkpt lat="46.3647" lon="6.0049">
        <ele>1154.68</ele>
        <time>2015-10-23T12:37:39Z</time>
      </trkpt>
      <trkpt lat="46.36467" lon="6.00479">
        <ele>1153.24</ele>
        <time>2015-10-23T12:37:44Z</time>
      </trkpt>
      <trkpt lat="46.36465" lon="6.0045">
        <ele>1150.35</ele>
        <time>2015-10-23T12:37:56Z</time>
      </trkpt>
      <trkpt lat="46.36465" lon="6.00437">
        <ele>1148.43</ele>
        <time>2015-10-23T12:38:02Z</time>
      </trkpt>
      <trkpt lat="46.36462" lon="6.0042">
        <ele>1146.03</ele>
        <time>2015-10-23T12:38:13Z</time>
      </trkpt>
      <trkpt lat="46.36468" lon="6.00412">
        <ele>1144.59</ele>
        <time>2015-10-23T12:38:19Z</time>
      </trkpt>
      <trkpt lat="46.36475" lon="6.00411">
        <ele>1144.59</ele>
        <time>2015-10-23T12:38:31Z</time>
      </trkpt>
      <trkpt lat="46.36475" lon="6.00411">
        <ele>1144.59</ele>
        <time>2015-10-23T12:38:48Z</time>
      </trkpt>
      <trkpt lat="46.36472" lon="6.00409">
        <ele>1144.59</ele>
        <time>2015-10-23T12:38:50Z</time>
      </trkpt>
      <trkpt lat="46.3647" lon="6.00406">
        <ele>1144.59</ele>
        <time>2015-10-23T12:38:52Z</time>
      </trkpt>
      <trkpt lat="46.36468" lon="6.00385">
        <ele>1142.18</ele>
        <time>2015-10-23T12:39:04Z</time>
      </trkpt>
      <trkpt lat="46.3647" lon="6.0037">
        <ele>1139.78</ele>
        <time>2015-10-23T12:39:11Z</time>
      </trkpt>
      <trkpt lat="46.36469" lon="6.0036">
        <ele>1138.34</ele>
        <time>2015-10-23T12:39:16Z</time>
      </trkpt>
      <trkpt lat="46.36463" lon="6.00335">
        <ele>1135.45</ele>
        <time>2015-10-23T12:39:28Z</time>
      </trkpt>
      <trkpt lat="46.36462" lon="6.00319">
        <ele>1134.01</ele>
        <time>2015-10-23T12:39:35Z</time>
      </trkpt>
      <trkpt lat="46.36462" lon="6.00305">
        <ele>1131.61</ele>
        <time>2015-10-23T12:39:43Z</time>
      </trkpt>
      <trkpt lat="46.36465" lon="6.00299">
        <ele>1130.65</ele>
        <time>2015-10-23T12:39:48Z</time>
      </trkpt>
      <trkpt lat="46.36463" lon="6.00291">
        <ele>1129.21</ele>
        <time>2015-10-23T12:39:53Z</time>
      </trkpt>
      <trkpt lat="46.36467" lon="6.00279">
        <ele>1127.76</ele>
        <time>2015-10-23T12:39:59Z</time>
      </trkpt>
      <trkpt lat="46.36467" lon="6.00275">
        <ele>1127.28</ele>
        <time>2015-10-23T12:40:01Z</time>
      </trkpt>
      <trkpt lat="46.36471" lon="6.00242">
        <ele>1124.88</ele>
        <time>2015-10-23T12:40:15Z</time>
      </trkpt>
      <trkpt lat="46.36471" lon="6.00234">
        <ele>1123.44</ele>
        <time>2015-10-23T12:40:21Z</time>
      </trkpt>
      <trkpt lat="46.36462" lon="6.00209">
        <ele>1122</ele>
        <time>2015-10-23T12:40:32Z</time>
      </trkpt>
      <trkpt lat="46.36456" lon="6.00192">
        <ele>1121.03</ele>
        <time>2015-10-23T12:40:41Z</time>
      </trkpt>
      <trkpt lat="46.36454" lon="6.00179">
        <ele>1119.59</ele>
        <time>2015-10-23T12:40:47Z</time>
      </trkpt>
      <trkpt lat="46.36449" lon="6.00158">
        <ele>1118.15</ele>
        <time>2015-10-23T12:40:58Z</time>
      </trkpt>
      <trkpt lat="46.36449" lon="6.00156">
        <ele>1117.67</ele>
        <time>2015-10-23T12:41:00Z</time>
      </trkpt>
      <trkpt lat="46.36442" lon="6.00146">
        <ele>1116.71</ele>
        <time>2015-10-23T12:41:07Z</time>
      </trkpt>
      <trkpt lat="46.36438" lon="6.00134">
        <ele>1115.75</ele>
        <time>2015-10-23T12:41:13Z</time>
      </trkpt>
      <trkpt lat="46.36435" lon="6.00119">
        <ele>1113.82</ele>
        <time>2015-10-23T12:41:23Z</time>
      </trkpt>
      <trkpt lat="46.36433" lon="6.00105">
        <ele>1112.86</ele>
        <time>2015-10-23T12:41:31Z</time>
      </trkpt>
      <trkpt lat="46.3643" lon="6.00075">
        <ele>1110.94</ele>
        <time>2015-10-23T12:41:42Z</time>
      </trkpt>
      <trkpt lat="46.36429" lon="6.00061">
        <ele>1109.98</ele>
        <time>2015-10-23T12:41:50Z</time>
      </trkpt>
      <trkpt lat="46.36424" lon="6.00052">
        <ele>1109.02</ele>
        <time>2015-10-23T12:41:54Z</time>
      </trkpt>
      <trkpt lat="46.36417" lon="6.00036">
        <ele>1107.58</ele>
        <time>2015-10-23T12:42:01Z</time>
      </trkpt>
      <trkpt lat="46.36409" lon="6.00018">
        <ele>1105.65</ele>
        <time>2015-10-23T12:42:13Z</time>
      </trkpt>
      <trkpt lat="46.36406" lon="6.00016">
        <ele>1105.17</ele>
        <time>2015-10-23T12:42:17Z</time>
      </trkpt>
      <trkpt lat="46.36405" lon="6.00013">
        <ele>1104.69</ele>
        <time>2015-10-23T12:42:19Z</time>
      </trkpt>
      <trkpt lat="46.36401" lon="6.00002">
        <ele>1103.73</ele>
        <time>2015-10-23T12:42:25Z</time>
      </trkpt>
      <trkpt lat="46.36399" lon="5.99994">
        <ele>1103.25</ele>
        <time>2015-10-23T12:42:28Z</time>
      </trkpt>
      <trkpt lat="46.36391" lon="5.99966">
        <ele>1101.33</ele>
        <time>2015-10-23T12:42:39Z</time>
      </trkpt>
      <trkpt lat="46.36388" lon="5.99952">
        <ele>1099.4</ele>
        <time>2015-10-23T12:42:49Z</time>
      </trkpt>
      <trkpt lat="46.36386" lon="5.99948">
        <ele>1098.92</ele>
        <time>2015-10-23T12:42:52Z</time>
      </trkpt>
      <trkpt lat="46.36381" lon="5.99934">
        <ele>1097.48</ele>
        <time>2015-10-23T12:42:58Z</time>
      </trkpt>
      <trkpt lat="46.36376" lon="5.9992">
        <ele>1096.04</ele>
        <time>2015-10-23T12:43:05Z</time>
      </trkpt>
      <trkpt lat="46.36373" lon="5.99912">
        <ele>1095.56</ele>
        <time>2015-10-23T12:43:08Z</time>
      </trkpt>
      <trkpt lat="46.36369" lon="5.99905">
        <ele>1095.08</ele>
        <time>2015-10-23T12:43:12Z</time>
      </trkpt>
      <trkpt lat="46.36365" lon="5.99892">
        <ele>1093.16</ele>
        <time>2015-10-23T12:43:21Z</time>
      </trkpt>
      <trkpt lat="46.36363" lon="5.99879">
        <ele>1091.71</ele>
        <time>2015-10-23T12:43:27Z</time>
      </trkpt>
      <trkpt lat="46.36361" lon="5.99844">
        <ele>1088.83</ele>
        <time>2015-10-23T12:43:41Z</time>
      </trkpt>
      <trkpt lat="46.36357" lon="5.99826">
        <ele>1087.87</ele>
        <time>2015-10-23T12:43:52Z</time>
      </trkpt>
      <trkpt lat="46.36354" lon="5.99813">
        <ele>1086.43</ele>
        <time>2015-10-23T12:44:02Z</time>
      </trkpt>
      <trkpt lat="46.36359" lon="5.99817">
        <ele>1083.54</ele>
        <time>2015-10-23T12:44:12Z</time>
      </trkpt>
      <trkpt lat="46.36371" lon="5.99813">
        <ele>1081.14</ele>
        <time>2015-10-23T12:44:25Z</time>
      </trkpt>
      <trkpt lat="46.36379" lon="5.99814">
        <ele>1077.78</ele>
        <time>2015-10-23T12:44:35Z</time>
      </trkpt>
      <trkpt lat="46.36388" lon="5.99817">
        <ele>1074.89</ele>
        <time>2015-10-23T12:44:46Z</time>
      </trkpt>
      <trkpt lat="46.36395" lon="5.99822">
        <ele>1071.53</ele>
        <time>2015-10-23T12:44:57Z</time>
      </trkpt>
      <trkpt lat="46.36395" lon="5.99822">
        <ele>1070.08</ele>
        <time>2015-10-23T12:45:02Z</time>
      </trkpt>
      <trkpt lat="46.36403" lon="5.99818">
        <ele>1066.72</ele>
        <time>2015-10-23T12:45:12Z</time>
      </trkpt>
      <trkpt lat="46.36409" lon="5.99821">
        <ele>1065.28</ele>
        <time>2015-10-23T12:45:17Z</time>
      </trkpt>
      <trkpt lat="46.36419" lon="5.9982">
        <ele>1061.91</ele>
        <time>2015-10-23T12:45:29Z</time>
      </trkpt>
      <trkpt lat="46.36425" lon="5.9981">
        <ele>1059.51</ele>
        <time>2015-10-23T12:45:39Z</time>
      </trkpt>
      <trkpt lat="46.36434" lon="5.99806">
        <ele>1056.15</ele>
        <time>2015-10-23T12:45:49Z</time>
      </trkpt>
      <trkpt lat="46.36438" lon="5.99806">
        <ele>1055.18</ele>
        <time>2015-10-23T12:45:54Z</time>
      </trkpt>
      <trkpt lat="46.36446" lon="5.99808">
        <ele>1052.3</ele>
        <time>2015-10-23T12:46:05Z</time>
      </trkpt>
      <trkpt lat="46.36451" lon="5.99812">
        <ele>1050.86</ele>
        <time>2015-10-23T12:46:09Z</time>
      </trkpt>
      <trkpt lat="46.36456" lon="5.99816">
        <ele>1048.94</ele>
        <time>2015-10-23T12:46:16Z</time>
      </trkpt>
      <trkpt lat="46.36467" lon="5.99809">
        <ele>1045.57</ele>
        <time>2015-10-23T12:46:27Z</time>
      </trkpt>
      <trkpt lat="46.36481" lon="5.99801">
        <ele>1042.69</ele>
        <time>2015-10-23T12:46:38Z</time>
      </trkpt>
      <trkpt lat="46.36484" lon="5.99802">
        <ele>1042.21</ele>
        <time>2015-10-23T12:46:41Z</time>
      </trkpt>
      <trkpt lat="46.36485" lon="5.99802">
        <ele>1042.21</ele>
        <time>2015-10-23T12:46:43Z</time>
      </trkpt>
      <trkpt lat="46.36499" lon="5.99806">
        <ele>1038.84</ele>
        <time>2015-10-23T12:46:55Z</time>
      </trkpt>
      <trkpt lat="46.36499" lon="5.99805">
        <ele>1038.36</ele>
        <time>2015-10-23T12:46:56Z</time>
      </trkpt>
      <trkpt lat="46.36503" lon="5.99803">
        <ele>1037.88</ele>
        <time>2015-10-23T12:46:59Z</time>
      </trkpt>
      <trkpt lat="46.36503" lon="5.99796">
        <ele>1035.96</ele>
        <time>2015-10-23T12:47:05Z</time>
      </trkpt>
      <trkpt lat="46.36501" lon="5.99795">
        <ele>1036.44</ele>
        <time>2015-10-23T12:47:07Z</time>
      </trkpt>
      <trkpt lat="46.36494" lon="5.9979">
        <ele>1036.44</ele>
        <time>2015-10-23T12:47:13Z</time>
      </trkpt>
      <trkpt lat="46.3648" lon="5.99784">
        <ele>1035.96</ele>
        <time>2015-10-23T12:47:25Z</time>
      </trkpt>
      <trkpt lat="46.36479" lon="5.99786">
        <ele>1036.92</ele>
        <time>2015-10-23T12:47:37Z</time>
      </trkpt>
      <trkpt lat="46.36479" lon="5.99781">
        <ele>1035.96</ele>
        <time>2015-10-23T12:47:48Z</time>
      </trkpt>
      <trkpt lat="46.36481" lon="5.99778">
        <ele>1035.96</ele>
        <time>2015-10-23T12:47:59Z</time>
      </trkpt>
      <trkpt lat="46.3649" lon="5.99777">
        <ele>1035.48</ele>
        <time>2015-10-23T12:48:06Z</time>
      </trkpt>
      <trkpt lat="46.36509" lon="5.99791">
        <ele>1035</ele>
        <time>2015-10-23T12:48:21Z</time>
      </trkpt>
      <trkpt lat="46.3651" lon="5.99791">
        <ele>1035</ele>
        <time>2015-10-23T12:48:22Z</time>
      </trkpt>
      <trkpt lat="46.36516" lon="5.99795">
        <ele>1033.55</ele>
        <time>2015-10-23T12:48:37Z</time>
      </trkpt>
      <trkpt lat="46.36516" lon="5.99795">
        <ele>1033.07</ele>
        <time>2015-10-23T12:49:08Z</time>
      </trkpt>
      <trkpt lat="46.36525" lon="5.99799">
        <ele>1030.19</ele>
        <time>2015-10-23T12:49:22Z</time>
      </trkpt>
      <trkpt lat="46.3653" lon="5.99801">
        <ele>1029.71</ele>
        <time>2015-10-23T12:49:25Z</time>
      </trkpt>
      <trkpt lat="46.36543" lon="5.99793">
        <ele>1028.75</ele>
        <time>2015-10-23T12:49:32Z</time>
      </trkpt>
      <trkpt lat="46.36542" lon="5.99779">
        <ele>1026.34</ele>
        <time>2015-10-23T12:49:43Z</time>
      </trkpt>
      <trkpt lat="46.36541" lon="5.99775">
        <ele>1025.86</ele>
        <time>2015-10-23T12:49:45Z</time>
      </trkpt>
      <trkpt lat="46.36544" lon="5.99761">
        <ele>1024.42</ele>
        <time>2015-10-23T12:49:52Z</time>
      </trkpt>
      <trkpt lat="46.36551" lon="5.99765">
        <ele>1022.5</ele>
        <time>2015-10-23T12:50:00Z</time>
      </trkpt>
      <trkpt lat="46.36554" lon="5.99766">
        <ele>1022.02</ele>
        <time>2015-10-23T12:50:03Z</time>
      </trkpt>
      <trkpt lat="46.36561" lon="5.99775">
        <ele>1019.13</ele>
        <time>2015-10-23T12:50:13Z</time>
      </trkpt>
      <trkpt lat="46.36563" lon="5.99769">
        <ele>1018.17</ele>
        <time>2015-10-23T12:50:23Z</time>
      </trkpt>
      <trkpt lat="46.36563" lon="5.99769">
        <ele>1018.17</ele>
        <time>2015-10-23T12:50:24Z</time>
      </trkpt>
      <trkpt lat="46.36562" lon="5.99765">
        <ele>1018.17</ele>
        <time>2015-10-23T12:50:26Z</time>
      </trkpt>
      <trkpt lat="46.36564" lon="5.9974">
        <ele>1017.21</ele>
        <time>2015-10-23T12:50:37Z</time>
      </trkpt>
      <trkpt lat="46.36564" lon="5.99736">
        <ele>1016.25</ele>
        <time>2015-10-23T12:50:40Z</time>
      </trkpt>
      <trkpt lat="46.36572" lon="5.99735">
        <ele>1014.33</ele>
        <time>2015-10-23T12:50:47Z</time>
      </trkpt>
      <trkpt lat="46.36576" lon="5.99739">
        <ele>1013.37</ele>
        <time>2015-10-23T12:50:52Z</time>
      </trkpt>
      <trkpt lat="46.36577" lon="5.99743">
        <ele>1012.89</ele>
        <time>2015-10-23T12:50:54Z</time>
      </trkpt>
      <trkpt lat="46.36581" lon="5.99751">
        <ele>1011.93</ele>
        <time>2015-10-23T12:50:59Z</time>
      </trkpt>
      <trkpt lat="46.36584" lon="5.9975">
        <ele>1010.96</ele>
        <time>2015-10-23T12:51:02Z</time>
      </trkpt>
      <trkpt lat="46.3659" lon="5.99735">
        <ele>1007.6</ele>
        <time>2015-10-23T12:51:14Z</time>
      </trkpt>
      <trkpt lat="46.36592" lon="5.99726">
        <ele>1007.12</ele>
        <time>2015-10-23T12:51:19Z</time>
      </trkpt>
      <trkpt lat="46.36597" lon="5.99703">
        <ele>1005.2</ele>
        <time>2015-10-23T12:51:29Z</time>
      </trkpt>
      <trkpt lat="46.36599" lon="5.99699">
        <ele>1004.23</ele>
        <time>2015-10-23T12:51:31Z</time>
      </trkpt>
      <trkpt lat="46.36601" lon="5.99691">
        <ele>1003.75</ele>
        <time>2015-10-23T12:51:36Z</time>
      </trkpt>
      <trkpt lat="46.36605" lon="5.99687">
        <ele>1003.27</ele>
        <time>2015-10-23T12:51:40Z</time>
      </trkpt>
      <trkpt lat="46.36613" lon="5.9967">
        <ele>1001.83</ele>
        <time>2015-10-23T12:51:50Z</time>
      </trkpt>
      <trkpt lat="46.36614" lon="5.99665">
        <ele>1001.35</ele>
        <time>2015-10-23T12:51:53Z</time>
      </trkpt>
      <trkpt lat="46.36616" lon="5.9966">
        <ele>1000.39</ele>
        <time>2015-10-23T12:51:56Z</time>
      </trkpt>
      <trkpt lat="46.36619" lon="5.99651">
        <ele>999.91</ele>
        <time>2015-10-23T12:52:06Z</time>
      </trkpt>
      <trkpt lat="46.36619" lon="5.99651">
        <ele>999.91</ele>
        <time>2015-10-23T12:52:07Z</time>
      </trkpt>
      <trkpt lat="46.36624" lon="5.99644">
        <ele>998.95</ele>
        <time>2015-10-23T12:52:14Z</time>
      </trkpt>
      <trkpt lat="46.3663" lon="5.99647">
        <ele>998.47</ele>
        <time>2015-10-23T12:52:21Z</time>
      </trkpt>
      <trkpt lat="46.36635" lon="5.99647">
        <ele>997.99</ele>
        <time>2015-10-23T12:52:25Z</time>
      </trkpt>
      <trkpt lat="46.36642" lon="5.99654">
        <ele>997.99</ele>
        <time>2015-10-23T12:52:31Z</time>
      </trkpt>
      <trkpt lat="46.36658" lon="5.99667">
        <ele>997.99</ele>
        <time>2015-10-23T12:52:45Z</time>
      </trkpt>
      <trkpt lat="46.36665" lon="5.99673">
        <ele>997.51</ele>
        <time>2015-10-23T12:52:50Z</time>
      </trkpt>
      <trkpt lat="46.3667" lon="5.99678">
        <ele>997.51</ele>
        <time>2015-10-23T12:52:54Z</time>
      </trkpt>
      <trkpt lat="46.36672" lon="5.99679">
        <ele>997.02</ele>
        <time>2015-10-23T12:52:55Z</time>
      </trkpt>
      <trkpt lat="46.36679" lon="5.99686">
        <ele>997.02</ele>
        <time>2015-10-23T12:53:00Z</time>
      </trkpt>
      <trkpt lat="46.36684" lon="5.99697">
        <ele>997.02</ele>
        <time>2015-10-23T12:53:08Z</time>
      </trkpt>
      <trkpt lat="46.36689" lon="5.99707">
        <ele>997.02</ele>
        <time>2015-10-23T12:53:13Z</time>
      </trkpt>
      <trkpt lat="46.36702" lon="5.99727">
        <ele>996.06</ele>
        <time>2015-10-23T12:53:24Z</time>
      </trkpt>
      <trkpt lat="46.3671" lon="5.99733">
        <ele>996.06</ele>
        <time>2015-10-23T12:53:32Z</time>
      </trkpt>
      <trkpt lat="46.36711" lon="5.99736">
        <ele>996.06</ele>
        <time>2015-10-23T12:53:34Z</time>
      </trkpt>
      <trkpt lat="46.36723" lon="5.99734">
        <ele>995.1</ele>
        <time>2015-10-23T12:53:42Z</time>
      </trkpt>
      <trkpt lat="46.36726" lon="5.9973">
        <ele>995.1</ele>
        <time>2015-10-23T12:53:44Z</time>
      </trkpt>
      <trkpt lat="46.36738" lon="5.9972">
        <ele>994.62</ele>
        <time>2015-10-23T12:53:53Z</time>
      </trkpt>
      <trkpt lat="46.36739" lon="5.99718">
        <ele>994.62</ele>
        <time>2015-10-23T12:53:56Z</time>
      </trkpt>
      <trkpt lat="46.36746" lon="5.99714">
        <ele>995.1</ele>
        <time>2015-10-23T12:54:05Z</time>
      </trkpt>
      <trkpt lat="46.36747" lon="5.99716">
        <ele>994.62</ele>
        <time>2015-10-23T12:54:27Z</time>
      </trkpt>
      <trkpt lat="46.36747" lon="5.99716">
        <ele>994.62</ele>
        <time>2015-10-23T12:54:44Z</time>
      </trkpt>
      <trkpt lat="46.36748" lon="5.99721">
        <ele>994.62</ele>
        <time>2015-10-23T12:55:04Z</time>
      </trkpt>
      <trkpt lat="46.36748" lon="5.99721">
        <ele>995.1</ele>
        <time>2015-10-23T12:55:23Z</time>
      </trkpt>
      <trkpt lat="46.36748" lon="5.99721">
        <ele>993.66</ele>
        <time>2015-10-23T12:55:44Z</time>
      </trkpt>
      <trkpt lat="46.36748" lon="5.99721">
        <ele>994.62</ele>
        <time>2015-10-23T12:56:05Z</time>
      </trkpt>
    </trkseg>
  </trk>
</gpx>